<?xml version="1.0" encoding="UTF-8" standalone="no" ?>
<gpx xmlns="http://www.topografix.com/GPX/1/1" xmlns:xsi="http://www.w3.org/2001/XMLSchema-instance" xsi:schemaLocation="http://www.topografix.com/GPX/1/1 http://www.topografix.com/GPX/1/1/gpx.xsd" version="1.1" creator="VisuGPX - https://www.visugpx.com">
  <metadata>
    <name>Châtel-Guyon-Chazeron-Vallée du sans souci</name>
  </metadata>
  <trk>
    <name><![CDATA[Châtel-Guyon Randonnée 25 mars 2021 à 13:25]]></name>
    <trkseg>
      <trkpt lat="45.92597" lon="3.06279">
        <ele>450.7039</ele>
        <time>2021-03-25T12:25:28.000Z</time>
      </trkpt>
      <trkpt lat="45.92601" lon="3.06276">
        <ele>453.70404</ele>
        <time>2021-03-25T12:25:41.000Z</time>
      </trkpt>
      <trkpt lat="45.92605" lon="3.0627">
        <ele>454.70418</ele>
        <time>2021-03-25T12:25:45.000Z</time>
      </trkpt>
      <trkpt lat="45.92609" lon="3.06267">
        <ele>453.70437</ele>
        <time>2021-03-25T12:25:50.000Z</time>
      </trkpt>
      <trkpt lat="45.92614" lon="3.06263">
        <ele>453.70454</ele>
        <time>2021-03-25T12:25:54.000Z</time>
      </trkpt>
      <trkpt lat="45.92617" lon="3.0626">
        <ele>453.70468</ele>
        <time>2021-03-25T12:25:58.000Z</time>
      </trkpt>
      <trkpt lat="45.92622" lon="3.06257">
        <ele>456.70488</ele>
        <time>2021-03-25T12:26:02.000Z</time>
      </trkpt>
      <trkpt lat="45.92625" lon="3.06253">
        <ele>456.70501</ele>
        <time>2021-03-25T12:26:08.000Z</time>
      </trkpt>
      <trkpt lat="45.92629" lon="3.06249">
        <ele>457.70517</ele>
        <time>2021-03-25T12:26:13.000Z</time>
      </trkpt>
      <trkpt lat="45.92634" lon="3.06246">
        <ele>456.70536</ele>
        <time>2021-03-25T12:26:18.000Z</time>
      </trkpt>
      <trkpt lat="45.92637" lon="3.06243">
        <ele>456.70549</ele>
        <time>2021-03-25T12:26:23.000Z</time>
      </trkpt>
      <trkpt lat="45.92642" lon="3.06239">
        <ele>456.70568</ele>
        <time>2021-03-25T12:26:27.000Z</time>
      </trkpt>
      <trkpt lat="45.92647" lon="3.06237">
        <ele>456.70587</ele>
        <time>2021-03-25T12:26:31.000Z</time>
      </trkpt>
      <trkpt lat="45.92651" lon="3.06236">
        <ele>456.70605</ele>
        <time>2021-03-25T12:26:36.000Z</time>
      </trkpt>
      <trkpt lat="45.92655" lon="3.06234">
        <ele>457.7062</ele>
        <time>2021-03-25T12:26:40.000Z</time>
      </trkpt>
      <trkpt lat="45.92659" lon="3.06231">
        <ele>459.70634</ele>
        <time>2021-03-25T12:26:45.000Z</time>
      </trkpt>
      <trkpt lat="45.92663" lon="3.06226">
        <ele>459.70653</ele>
        <time>2021-03-25T12:26:49.000Z</time>
      </trkpt>
      <trkpt lat="45.92669" lon="3.06222">
        <ele>461.70676</ele>
        <time>2021-03-25T12:26:54.000Z</time>
      </trkpt>
      <trkpt lat="45.92673" lon="3.06221">
        <ele>461.7069</ele>
        <time>2021-03-25T12:26:58.000Z</time>
      </trkpt>
      <trkpt lat="45.92678" lon="3.06216">
        <ele>461.70712</ele>
        <time>2021-03-25T12:27:03.000Z</time>
      </trkpt>
      <trkpt lat="45.92681" lon="3.06214">
        <ele>463.70725</ele>
        <time>2021-03-25T12:27:07.000Z</time>
      </trkpt>
      <trkpt lat="45.92686" lon="3.06213">
        <ele>463.70744</ele>
        <time>2021-03-25T12:27:11.000Z</time>
      </trkpt>
      <trkpt lat="45.92691" lon="3.06213">
        <ele>463.70766</ele>
        <time>2021-03-25T12:27:15.000Z</time>
      </trkpt>
      <trkpt lat="45.92698" lon="3.06213">
        <ele>462.70793</ele>
        <time>2021-03-25T12:27:19.000Z</time>
      </trkpt>
      <trkpt lat="45.92702" lon="3.06211">
        <ele>462.70809</ele>
        <time>2021-03-25T12:27:24.000Z</time>
      </trkpt>
      <trkpt lat="45.92707" lon="3.06211">
        <ele>465.70828</ele>
        <time>2021-03-25T12:27:29.000Z</time>
      </trkpt>
      <trkpt lat="45.92711" lon="3.06211">
        <ele>466.70845</ele>
        <time>2021-03-25T12:27:33.000Z</time>
      </trkpt>
      <trkpt lat="45.92715" lon="3.06211">
        <ele>466.70859</ele>
        <time>2021-03-25T12:27:37.000Z</time>
      </trkpt>
      <trkpt lat="45.92719" lon="3.0621">
        <ele>467.70877</ele>
        <time>2021-03-25T12:27:41.000Z</time>
      </trkpt>
      <trkpt lat="45.92726" lon="3.0621">
        <ele>467.70903</ele>
        <time>2021-03-25T12:27:46.000Z</time>
      </trkpt>
      <trkpt lat="45.92729" lon="3.0621">
        <ele>468.70918</ele>
        <time>2021-03-25T12:27:50.000Z</time>
      </trkpt>
      <trkpt lat="45.92734" lon="3.0621">
        <ele>467.70934</ele>
        <time>2021-03-25T12:27:54.000Z</time>
      </trkpt>
      <trkpt lat="45.9274" lon="3.0621">
        <ele>468.70958</ele>
        <time>2021-03-25T12:27:58.000Z</time>
      </trkpt>
      <trkpt lat="45.92745" lon="3.06212">
        <ele>468.70978</ele>
        <time>2021-03-25T12:28:03.000Z</time>
      </trkpt>
      <trkpt lat="45.92752" lon="3.06213">
        <ele>468.71007</ele>
        <time>2021-03-25T12:28:08.000Z</time>
      </trkpt>
      <trkpt lat="45.92754" lon="3.06216">
        <ele>469.71016</ele>
        <time>2021-03-25T12:28:11.000Z</time>
      </trkpt>
      <trkpt lat="45.92758" lon="3.06215">
        <ele>468.7103</ele>
        <time>2021-03-25T12:28:16.000Z</time>
      </trkpt>
      <trkpt lat="45.92763" lon="3.06215">
        <ele>470.71052</ele>
        <time>2021-03-25T12:28:20.000Z</time>
      </trkpt>
      <trkpt lat="45.92766" lon="3.06218">
        <ele>470.71065</ele>
        <time>2021-03-25T12:28:24.000Z</time>
      </trkpt>
      <trkpt lat="45.92772" lon="3.06221">
        <ele>469.71087</ele>
        <time>2021-03-25T12:28:28.000Z</time>
      </trkpt>
      <trkpt lat="45.92777" lon="3.06223">
        <ele>469.71109</ele>
        <time>2021-03-25T12:28:33.000Z</time>
      </trkpt>
      <trkpt lat="45.92781" lon="3.06224">
        <ele>470.71125</ele>
        <time>2021-03-25T12:28:38.000Z</time>
      </trkpt>
      <trkpt lat="45.92787" lon="3.06224">
        <ele>470.71148</ele>
        <time>2021-03-25T12:28:42.000Z</time>
      </trkpt>
      <trkpt lat="45.92792" lon="3.06226">
        <ele>470.71168</ele>
        <time>2021-03-25T12:28:47.000Z</time>
      </trkpt>
      <trkpt lat="45.92797" lon="3.06228">
        <ele>471.71188</ele>
        <time>2021-03-25T12:28:52.000Z</time>
      </trkpt>
      <trkpt lat="45.92801" lon="3.06229">
        <ele>471.71205</ele>
        <time>2021-03-25T12:28:56.000Z</time>
      </trkpt>
      <trkpt lat="45.92805" lon="3.0623">
        <ele>470.7122</ele>
        <time>2021-03-25T12:29:00.000Z</time>
      </trkpt>
      <trkpt lat="45.92811" lon="3.06232">
        <ele>471.71242</ele>
        <time>2021-03-25T12:29:04.000Z</time>
      </trkpt>
      <trkpt lat="45.92816" lon="3.06234">
        <ele>472.71265</ele>
        <time>2021-03-25T12:29:09.000Z</time>
      </trkpt>
      <trkpt lat="45.92821" lon="3.06236">
        <ele>473.71282</ele>
        <time>2021-03-25T12:29:14.000Z</time>
      </trkpt>
      <trkpt lat="45.92826" lon="3.06239">
        <ele>473.71303</ele>
        <time>2021-03-25T12:29:19.000Z</time>
      </trkpt>
      <trkpt lat="45.92832" lon="3.06241">
        <ele>473.71327</ele>
        <time>2021-03-25T12:29:24.000Z</time>
      </trkpt>
      <trkpt lat="45.92838" lon="3.06243">
        <ele>474.71352</ele>
        <time>2021-03-25T12:29:28.000Z</time>
      </trkpt>
      <trkpt lat="45.92843" lon="3.06243">
        <ele>474.7137</ele>
        <time>2021-03-25T12:29:33.000Z</time>
      </trkpt>
      <trkpt lat="45.92848" lon="3.06246">
        <ele>474.71392</ele>
        <time>2021-03-25T12:29:38.000Z</time>
      </trkpt>
      <trkpt lat="45.92852" lon="3.06248">
        <ele>475.71406</ele>
        <time>2021-03-25T12:29:42.000Z</time>
      </trkpt>
      <trkpt lat="45.92857" lon="3.06249">
        <ele>476.71428</ele>
        <time>2021-03-25T12:29:47.000Z</time>
      </trkpt>
      <trkpt lat="45.92861" lon="3.06249">
        <ele>477.71444</ele>
        <time>2021-03-25T12:29:51.000Z</time>
      </trkpt>
      <trkpt lat="45.92866" lon="3.06248">
        <ele>477.71464</ele>
        <time>2021-03-25T12:29:55.000Z</time>
      </trkpt>
      <trkpt lat="45.9287" lon="3.06247">
        <ele>477.7148</ele>
        <time>2021-03-25T12:29:59.000Z</time>
      </trkpt>
      <trkpt lat="45.92875" lon="3.06245">
        <ele>477.71499</ele>
        <time>2021-03-25T12:30:04.000Z</time>
      </trkpt>
      <trkpt lat="45.92878" lon="3.06243">
        <ele>478.71513</ele>
        <time>2021-03-25T12:30:09.000Z</time>
      </trkpt>
      <trkpt lat="45.92883" lon="3.06241">
        <ele>479.7153</ele>
        <time>2021-03-25T12:30:13.000Z</time>
      </trkpt>
      <trkpt lat="45.92887" lon="3.06238">
        <ele>480.71547</ele>
        <time>2021-03-25T12:30:18.000Z</time>
      </trkpt>
      <trkpt lat="45.92891" lon="3.06236">
        <ele>480.71565</ele>
        <time>2021-03-25T12:30:22.000Z</time>
      </trkpt>
      <trkpt lat="45.92897" lon="3.06234">
        <ele>482.71588</ele>
        <time>2021-03-25T12:30:26.000Z</time>
      </trkpt>
      <trkpt lat="45.92901" lon="3.06232">
        <ele>481.71603</ele>
        <time>2021-03-25T12:30:31.000Z</time>
      </trkpt>
      <trkpt lat="45.92904" lon="3.06231">
        <ele>482.71617</ele>
        <time>2021-03-25T12:30:35.000Z</time>
      </trkpt>
      <trkpt lat="45.9291" lon="3.06229">
        <ele>482.71639</ele>
        <time>2021-03-25T12:30:40.000Z</time>
      </trkpt>
      <trkpt lat="45.92914" lon="3.06227">
        <ele>481.71655</ele>
        <time>2021-03-25T12:30:44.000Z</time>
      </trkpt>
      <trkpt lat="45.92918" lon="3.06225">
        <ele>481.71673</ele>
        <time>2021-03-25T12:30:49.000Z</time>
      </trkpt>
      <trkpt lat="45.92922" lon="3.06224">
        <ele>482.71688</ele>
        <time>2021-03-25T12:30:53.000Z</time>
      </trkpt>
      <trkpt lat="45.92927" lon="3.06221">
        <ele>482.71706</ele>
        <time>2021-03-25T12:30:57.000Z</time>
      </trkpt>
      <trkpt lat="45.92932" lon="3.06219">
        <ele>483.71726</ele>
        <time>2021-03-25T12:31:01.000Z</time>
      </trkpt>
      <trkpt lat="45.92935" lon="3.06218">
        <ele>484.71741</ele>
        <time>2021-03-25T12:31:06.000Z</time>
      </trkpt>
      <trkpt lat="45.9294" lon="3.06216">
        <ele>484.7176</ele>
        <time>2021-03-25T12:31:10.000Z</time>
      </trkpt>
      <trkpt lat="45.92945" lon="3.06212">
        <ele>486.71779</ele>
        <time>2021-03-25T12:31:15.000Z</time>
      </trkpt>
      <trkpt lat="45.92948" lon="3.06209">
        <ele>486.71792</ele>
        <time>2021-03-25T12:31:19.000Z</time>
      </trkpt>
      <trkpt lat="45.92952" lon="3.06204">
        <ele>486.71807</ele>
        <time>2021-03-25T12:31:24.000Z</time>
      </trkpt>
      <trkpt lat="45.92954" lon="3.06201">
        <ele>486.71816</ele>
        <time>2021-03-25T12:31:28.000Z</time>
      </trkpt>
      <trkpt lat="45.92955" lon="3.06195">
        <ele>486.71819</ele>
        <time>2021-03-25T12:31:32.000Z</time>
      </trkpt>
      <trkpt lat="45.92955" lon="3.06195">
        <ele>486.71819</ele>
        <time>2021-03-25T12:31:32.000Z</time>
      </trkpt>
      <trkpt lat="45.92956" lon="3.06187">
        <ele>486.71824</ele>
        <time>2021-03-25T12:31:37.000Z</time>
      </trkpt>
      <trkpt lat="45.92956" lon="3.06182">
        <ele>486.71824</ele>
        <time>2021-03-25T12:31:41.000Z</time>
      </trkpt>
      <trkpt lat="45.92955" lon="3.06176">
        <ele>487.71818</ele>
        <time>2021-03-25T12:31:46.000Z</time>
      </trkpt>
      <trkpt lat="45.92953" lon="3.0617">
        <ele>489.71813</ele>
        <time>2021-03-25T12:31:50.000Z</time>
      </trkpt>
      <trkpt lat="45.92951" lon="3.06166">
        <ele>490.71805</ele>
        <time>2021-03-25T12:31:55.000Z</time>
      </trkpt>
      <trkpt lat="45.92949" lon="3.06159">
        <ele>490.71795</ele>
        <time>2021-03-25T12:32:00.000Z</time>
      </trkpt>
      <trkpt lat="45.92946" lon="3.06154">
        <ele>492.71784</ele>
        <time>2021-03-25T12:32:05.000Z</time>
      </trkpt>
      <trkpt lat="45.92943" lon="3.0615">
        <ele>492.71773</ele>
        <time>2021-03-25T12:32:09.000Z</time>
      </trkpt>
      <trkpt lat="45.9294" lon="3.06144">
        <ele>492.71762</ele>
        <time>2021-03-25T12:32:13.000Z</time>
      </trkpt>
      <trkpt lat="45.92938" lon="3.0614">
        <ele>492.71752</ele>
        <time>2021-03-25T12:32:17.000Z</time>
      </trkpt>
      <trkpt lat="45.92936" lon="3.06135">
        <ele>493.71742</ele>
        <time>2021-03-25T12:32:21.000Z</time>
      </trkpt>
      <trkpt lat="45.92932" lon="3.06131">
        <ele>494.71726</ele>
        <time>2021-03-25T12:32:26.000Z</time>
      </trkpt>
      <trkpt lat="45.92928" lon="3.06127">
        <ele>493.71713</ele>
        <time>2021-03-25T12:32:30.000Z</time>
      </trkpt>
      <trkpt lat="45.92924" lon="3.06124">
        <ele>494.71697</ele>
        <time>2021-03-25T12:32:34.000Z</time>
      </trkpt>
      <trkpt lat="45.92922" lon="3.0612">
        <ele>493.71687</ele>
        <time>2021-03-25T12:32:39.000Z</time>
      </trkpt>
      <trkpt lat="45.92917" lon="3.06116">
        <ele>493.7167</ele>
        <time>2021-03-25T12:32:43.000Z</time>
      </trkpt>
      <trkpt lat="45.92913" lon="3.06112">
        <ele>494.71651</ele>
        <time>2021-03-25T12:32:48.000Z</time>
      </trkpt>
      <trkpt lat="45.92909" lon="3.06108">
        <ele>494.71638</ele>
        <time>2021-03-25T12:32:52.000Z</time>
      </trkpt>
      <trkpt lat="45.92907" lon="3.06104">
        <ele>494.71629</ele>
        <time>2021-03-25T12:33:00.000Z</time>
      </trkpt>
      <trkpt lat="45.92904" lon="3.06101">
        <ele>493.71616</ele>
        <time>2021-03-25T12:33:04.000Z</time>
      </trkpt>
      <trkpt lat="45.929" lon="3.06096">
        <ele>493.716</ele>
        <time>2021-03-25T12:33:09.000Z</time>
      </trkpt>
      <trkpt lat="45.92896" lon="3.06093">
        <ele>495.71582</ele>
        <time>2021-03-25T12:33:14.000Z</time>
      </trkpt>
      <trkpt lat="45.92893" lon="3.06089">
        <ele>495.71571</ele>
        <time>2021-03-25T12:33:18.000Z</time>
      </trkpt>
      <trkpt lat="45.9289" lon="3.06084">
        <ele>495.71561</ele>
        <time>2021-03-25T12:33:23.000Z</time>
      </trkpt>
      <trkpt lat="45.92887" lon="3.06077">
        <ele>495.71548</ele>
        <time>2021-03-25T12:33:28.000Z</time>
      </trkpt>
      <trkpt lat="45.92885" lon="3.06071">
        <ele>495.7154</ele>
        <time>2021-03-25T12:33:32.000Z</time>
      </trkpt>
      <trkpt lat="45.92882" lon="3.06065">
        <ele>494.71526</ele>
        <time>2021-03-25T12:33:37.000Z</time>
      </trkpt>
      <trkpt lat="45.92879" lon="3.06061">
        <ele>497.71514</ele>
        <time>2021-03-25T12:33:41.000Z</time>
      </trkpt>
      <trkpt lat="45.92875" lon="3.06058">
        <ele>497.715</ele>
        <time>2021-03-25T12:33:48.000Z</time>
      </trkpt>
      <trkpt lat="45.92873" lon="3.06054">
        <ele>499.71491</ele>
        <time>2021-03-25T12:33:52.000Z</time>
      </trkpt>
      <trkpt lat="45.9287" lon="3.06049">
        <ele>501.71478</ele>
        <time>2021-03-25T12:33:56.000Z</time>
      </trkpt>
      <trkpt lat="45.92866" lon="3.06044">
        <ele>502.71464</ele>
        <time>2021-03-25T12:34:00.000Z</time>
      </trkpt>
      <trkpt lat="45.92864" lon="3.0604">
        <ele>503.71455</ele>
        <time>2021-03-25T12:34:05.000Z</time>
      </trkpt>
      <trkpt lat="45.9286" lon="3.06036">
        <ele>506.71442</ele>
        <time>2021-03-25T12:34:11.000Z</time>
      </trkpt>
      <trkpt lat="45.92857" lon="3.06031">
        <ele>505.71426</ele>
        <time>2021-03-25T12:34:16.000Z</time>
      </trkpt>
      <trkpt lat="45.92853" lon="3.06027">
        <ele>506.71412</ele>
        <time>2021-03-25T12:34:23.000Z</time>
      </trkpt>
      <trkpt lat="45.92851" lon="3.06023">
        <ele>506.71402</ele>
        <time>2021-03-25T12:34:28.000Z</time>
      </trkpt>
      <trkpt lat="45.92848" lon="3.06019">
        <ele>507.71392</ele>
        <time>2021-03-25T12:34:32.000Z</time>
      </trkpt>
      <trkpt lat="45.92847" lon="3.06013">
        <ele>506.71387</ele>
        <time>2021-03-25T12:34:37.000Z</time>
      </trkpt>
      <trkpt lat="45.92846" lon="3.06006">
        <ele>507.71384</ele>
        <time>2021-03-25T12:34:43.000Z</time>
      </trkpt>
      <trkpt lat="45.92844" lon="3.06001">
        <ele>507.71375</ele>
        <time>2021-03-25T12:34:48.000Z</time>
      </trkpt>
      <trkpt lat="45.92841" lon="3.05997">
        <ele>508.71364</ele>
        <time>2021-03-25T12:34:54.000Z</time>
      </trkpt>
      <trkpt lat="45.92838" lon="3.05992">
        <ele>510.71352</ele>
        <time>2021-03-25T12:34:58.000Z</time>
      </trkpt>
      <trkpt lat="45.92836" lon="3.05987">
        <ele>510.71344</ele>
        <time>2021-03-25T12:35:05.000Z</time>
      </trkpt>
      <trkpt lat="45.92834" lon="3.05983">
        <ele>511.71336</ele>
        <time>2021-03-25T12:35:11.000Z</time>
      </trkpt>
      <trkpt lat="45.9283" lon="3.05978">
        <ele>511.71321</ele>
        <time>2021-03-25T12:35:15.000Z</time>
      </trkpt>
      <trkpt lat="45.92828" lon="3.05974">
        <ele>511.71313</ele>
        <time>2021-03-25T12:35:20.000Z</time>
      </trkpt>
      <trkpt lat="45.92825" lon="3.05969">
        <ele>514.71301</ele>
        <time>2021-03-25T12:35:26.000Z</time>
      </trkpt>
      <trkpt lat="45.92826" lon="3.05964">
        <ele>515.71304</ele>
        <time>2021-03-25T12:36:19.000Z</time>
      </trkpt>
      <trkpt lat="45.92829" lon="3.05959">
        <ele>516.71316</ele>
        <time>2021-03-25T12:36:23.000Z</time>
      </trkpt>
      <trkpt lat="45.92832" lon="3.05954">
        <ele>517.71329</ele>
        <time>2021-03-25T12:36:28.000Z</time>
      </trkpt>
      <trkpt lat="45.92838" lon="3.05952">
        <ele>518.7135</ele>
        <time>2021-03-25T12:36:32.000Z</time>
      </trkpt>
      <trkpt lat="45.92844" lon="3.05951">
        <ele>518.71375</ele>
        <time>2021-03-25T12:36:36.000Z</time>
      </trkpt>
      <trkpt lat="45.92848" lon="3.05953">
        <ele>519.71391</ele>
        <time>2021-03-25T12:36:41.000Z</time>
      </trkpt>
      <trkpt lat="45.92851" lon="3.05954">
        <ele>519.71404</ele>
        <time>2021-03-25T12:36:44.000Z</time>
      </trkpt>
      <trkpt lat="45.92855" lon="3.05954">
        <ele>518.71419</ele>
        <time>2021-03-25T12:36:50.000Z</time>
      </trkpt>
      <trkpt lat="45.92857" lon="3.05949">
        <ele>517.71427</ele>
        <time>2021-03-25T12:37:03.000Z</time>
      </trkpt>
      <trkpt lat="45.92853" lon="3.05947">
        <ele>518.71412</ele>
        <time>2021-03-25T12:37:08.000Z</time>
      </trkpt>
      <trkpt lat="45.9285" lon="3.05943">
        <ele>518.714</ele>
        <time>2021-03-25T12:37:13.000Z</time>
      </trkpt>
      <trkpt lat="45.92848" lon="3.05938">
        <ele>518.71391</ele>
        <time>2021-03-25T12:37:17.000Z</time>
      </trkpt>
      <trkpt lat="45.92845" lon="3.05933">
        <ele>519.71379</ele>
        <time>2021-03-25T12:37:21.000Z</time>
      </trkpt>
      <trkpt lat="45.92841" lon="3.05929">
        <ele>518.71365</ele>
        <time>2021-03-25T12:37:25.000Z</time>
      </trkpt>
      <trkpt lat="45.92839" lon="3.05925">
        <ele>519.71356</ele>
        <time>2021-03-25T12:37:29.000Z</time>
      </trkpt>
      <trkpt lat="45.92838" lon="3.05918">
        <ele>520.7135</ele>
        <time>2021-03-25T12:37:34.000Z</time>
      </trkpt>
      <trkpt lat="45.92833" lon="3.05914">
        <ele>520.71333</ele>
        <time>2021-03-25T12:37:38.000Z</time>
      </trkpt>
      <trkpt lat="45.9283" lon="3.0591">
        <ele>519.71321</ele>
        <time>2021-03-25T12:37:43.000Z</time>
      </trkpt>
      <trkpt lat="45.92827" lon="3.05905">
        <ele>521.71309</ele>
        <time>2021-03-25T12:37:50.000Z</time>
      </trkpt>
      <trkpt lat="45.92825" lon="3.05901">
        <ele>521.71298</ele>
        <time>2021-03-25T12:37:54.000Z</time>
      </trkpt>
      <trkpt lat="45.92822" lon="3.05896">
        <ele>520.7129</ele>
        <time>2021-03-25T12:37:58.000Z</time>
      </trkpt>
      <trkpt lat="45.92821" lon="3.05888">
        <ele>520.71282</ele>
        <time>2021-03-25T12:38:02.000Z</time>
      </trkpt>
      <trkpt lat="45.92817" lon="3.05886">
        <ele>521.71266</ele>
        <time>2021-03-25T12:38:08.000Z</time>
      </trkpt>
      <trkpt lat="45.92814" lon="3.05881">
        <ele>524.71254</ele>
        <time>2021-03-25T12:38:13.000Z</time>
      </trkpt>
      <trkpt lat="45.9281" lon="3.05877">
        <ele>525.71242</ele>
        <time>2021-03-25T12:38:18.000Z</time>
      </trkpt>
      <trkpt lat="45.92807" lon="3.05873">
        <ele>525.71227</ele>
        <time>2021-03-25T12:38:22.000Z</time>
      </trkpt>
      <trkpt lat="45.92802" lon="3.05866">
        <ele>525.71208</ele>
        <time>2021-03-25T12:38:27.000Z</time>
      </trkpt>
      <trkpt lat="45.92799" lon="3.05863">
        <ele>527.71194</ele>
        <time>2021-03-25T12:38:32.000Z</time>
      </trkpt>
      <trkpt lat="45.92795" lon="3.05857">
        <ele>527.71181</ele>
        <time>2021-03-25T12:38:37.000Z</time>
      </trkpt>
      <trkpt lat="45.92793" lon="3.05853">
        <ele>529.7117</ele>
        <time>2021-03-25T12:38:42.000Z</time>
      </trkpt>
      <trkpt lat="45.92791" lon="3.05848">
        <ele>530.71165</ele>
        <time>2021-03-25T12:38:45.000Z</time>
      </trkpt>
      <trkpt lat="45.92792" lon="3.05842">
        <ele>530.71166</ele>
        <time>2021-03-25T12:38:50.000Z</time>
      </trkpt>
      <trkpt lat="45.92791" lon="3.05833">
        <ele>531.71162</ele>
        <time>2021-03-25T12:38:54.000Z</time>
      </trkpt>
      <trkpt lat="45.92789" lon="3.05825">
        <ele>533.71156</ele>
        <time>2021-03-25T12:38:59.000Z</time>
      </trkpt>
      <trkpt lat="45.92788" lon="3.05817">
        <ele>533.71153</ele>
        <time>2021-03-25T12:39:04.000Z</time>
      </trkpt>
      <trkpt lat="45.92785" lon="3.05813">
        <ele>534.71141</ele>
        <time>2021-03-25T12:39:09.000Z</time>
      </trkpt>
      <trkpt lat="45.92784" lon="3.05806">
        <ele>533.71137</ele>
        <time>2021-03-25T12:39:13.000Z</time>
      </trkpt>
      <trkpt lat="45.92783" lon="3.05801">
        <ele>533.71132</ele>
        <time>2021-03-25T12:39:18.000Z</time>
      </trkpt>
      <trkpt lat="45.92781" lon="3.05794">
        <ele>532.71123</ele>
        <time>2021-03-25T12:39:23.000Z</time>
      </trkpt>
      <trkpt lat="45.92778" lon="3.05791">
        <ele>531.71112</ele>
        <time>2021-03-25T12:39:28.000Z</time>
      </trkpt>
      <trkpt lat="45.92776" lon="3.05786">
        <ele>533.71103</ele>
        <time>2021-03-25T12:39:32.000Z</time>
      </trkpt>
      <trkpt lat="45.92773" lon="3.0578">
        <ele>534.71094</ele>
        <time>2021-03-25T12:39:36.000Z</time>
      </trkpt>
      <trkpt lat="45.92773" lon="3.05773">
        <ele>535.71093</ele>
        <time>2021-03-25T12:39:41.000Z</time>
      </trkpt>
      <trkpt lat="45.92772" lon="3.05767">
        <ele>537.7109</ele>
        <time>2021-03-25T12:39:46.000Z</time>
      </trkpt>
      <trkpt lat="45.92771" lon="3.0576">
        <ele>537.71083</ele>
        <time>2021-03-25T12:39:51.000Z</time>
      </trkpt>
      <trkpt lat="45.92768" lon="3.05756">
        <ele>537.71071</ele>
        <time>2021-03-25T12:39:57.000Z</time>
      </trkpt>
      <trkpt lat="45.92767" lon="3.0575">
        <ele>536.71068</ele>
        <time>2021-03-25T12:40:02.000Z</time>
      </trkpt>
      <trkpt lat="45.92766" lon="3.05743">
        <ele>538.71062</ele>
        <time>2021-03-25T12:40:06.000Z</time>
      </trkpt>
      <trkpt lat="45.92763" lon="3.05737">
        <ele>536.71053</ele>
        <time>2021-03-25T12:40:11.000Z</time>
      </trkpt>
      <trkpt lat="45.9276" lon="3.05735">
        <ele>537.71041</ele>
        <time>2021-03-25T12:40:15.000Z</time>
      </trkpt>
      <trkpt lat="45.92757" lon="3.05728">
        <ele>539.71028</ele>
        <time>2021-03-25T12:40:19.000Z</time>
      </trkpt>
      <trkpt lat="45.92756" lon="3.05722">
        <ele>538.71024</ele>
        <time>2021-03-25T12:40:23.000Z</time>
      </trkpt>
      <trkpt lat="45.92754" lon="3.05716">
        <ele>539.71015</ele>
        <time>2021-03-25T12:40:28.000Z</time>
      </trkpt>
      <trkpt lat="45.92752" lon="3.0571">
        <ele>539.71007</ele>
        <time>2021-03-25T12:40:33.000Z</time>
      </trkpt>
      <trkpt lat="45.92748" lon="3.05702">
        <ele>538.70992</ele>
        <time>2021-03-25T12:40:38.000Z</time>
      </trkpt>
      <trkpt lat="45.92744" lon="3.05695">
        <ele>539.70976</ele>
        <time>2021-03-25T12:40:43.000Z</time>
      </trkpt>
      <trkpt lat="45.92743" lon="3.05689">
        <ele>540.70973</ele>
        <time>2021-03-25T12:40:47.000Z</time>
      </trkpt>
      <trkpt lat="45.92742" lon="3.05683">
        <ele>542.70969</ele>
        <time>2021-03-25T12:40:52.000Z</time>
      </trkpt>
      <trkpt lat="45.92742" lon="3.05677">
        <ele>545.70966</ele>
        <time>2021-03-25T12:40:57.000Z</time>
      </trkpt>
      <trkpt lat="45.9274" lon="3.05671">
        <ele>547.70959</ele>
        <time>2021-03-25T12:41:02.000Z</time>
      </trkpt>
      <trkpt lat="45.92736" lon="3.05665">
        <ele>548.70944</ele>
        <time>2021-03-25T12:41:07.000Z</time>
      </trkpt>
      <trkpt lat="45.92735" lon="3.05661">
        <ele>547.70939</ele>
        <time>2021-03-25T12:41:11.000Z</time>
      </trkpt>
      <trkpt lat="45.92735" lon="3.05653">
        <ele>546.7094</ele>
        <time>2021-03-25T12:41:15.000Z</time>
      </trkpt>
      <trkpt lat="45.92738" lon="3.05645">
        <ele>548.70952</ele>
        <time>2021-03-25T12:41:19.000Z</time>
      </trkpt>
      <trkpt lat="45.9274" lon="3.05633">
        <ele>547.70959</ele>
        <time>2021-03-25T12:41:23.000Z</time>
      </trkpt>
      <trkpt lat="45.9274" lon="3.05627">
        <ele>547.7096</ele>
        <time>2021-03-25T12:41:28.000Z</time>
      </trkpt>
      <trkpt lat="45.92744" lon="3.05628">
        <ele>545.70977</ele>
        <time>2021-03-25T12:41:33.000Z</time>
      </trkpt>
      <trkpt lat="45.92744" lon="3.05622">
        <ele>543.70976</ele>
        <time>2021-03-25T12:41:43.000Z</time>
      </trkpt>
      <trkpt lat="45.92744" lon="3.05615">
        <ele>544.70978</ele>
        <time>2021-03-25T12:41:51.000Z</time>
      </trkpt>
      <trkpt lat="45.92745" lon="3.0561">
        <ele>547.70979</ele>
        <time>2021-03-25T12:41:58.000Z</time>
      </trkpt>
      <trkpt lat="45.92747" lon="3.05604">
        <ele>545.70987</ele>
        <time>2021-03-25T12:42:02.000Z</time>
      </trkpt>
      <trkpt lat="45.92744" lon="3.056">
        <ele>547.70977</ele>
        <time>2021-03-25T12:42:09.000Z</time>
      </trkpt>
      <trkpt lat="45.92742" lon="3.05595">
        <ele>547.70968</ele>
        <time>2021-03-25T12:42:14.000Z</time>
      </trkpt>
      <trkpt lat="45.9274" lon="3.05589">
        <ele>549.70959</ele>
        <time>2021-03-25T12:42:18.000Z</time>
      </trkpt>
      <trkpt lat="45.92739" lon="3.05584">
        <ele>551.70955</ele>
        <time>2021-03-25T12:42:22.000Z</time>
      </trkpt>
      <trkpt lat="45.92738" lon="3.05577">
        <ele>551.70952</ele>
        <time>2021-03-25T12:42:27.000Z</time>
      </trkpt>
      <trkpt lat="45.92737" lon="3.05569">
        <ele>550.70946</ele>
        <time>2021-03-25T12:42:32.000Z</time>
      </trkpt>
      <trkpt lat="45.92733" lon="3.05562">
        <ele>551.70931</ele>
        <time>2021-03-25T12:42:37.000Z</time>
      </trkpt>
      <trkpt lat="45.92731" lon="3.05555">
        <ele>552.70924</ele>
        <time>2021-03-25T12:42:42.000Z</time>
      </trkpt>
      <trkpt lat="45.9273" lon="3.05549">
        <ele>554.70919</ele>
        <time>2021-03-25T12:42:47.000Z</time>
      </trkpt>
      <trkpt lat="45.92729" lon="3.05544">
        <ele>554.70917</ele>
        <time>2021-03-25T12:42:50.000Z</time>
      </trkpt>
      <trkpt lat="45.92724" lon="3.05536">
        <ele>555.70897</ele>
        <time>2021-03-25T12:42:55.000Z</time>
      </trkpt>
      <trkpt lat="45.92723" lon="3.05528">
        <ele>553.70891</ele>
        <time>2021-03-25T12:43:00.000Z</time>
      </trkpt>
      <trkpt lat="45.92722" lon="3.05522">
        <ele>554.70887</ele>
        <time>2021-03-25T12:43:04.000Z</time>
      </trkpt>
      <trkpt lat="45.92719" lon="3.05516">
        <ele>556.70878</ele>
        <time>2021-03-25T12:43:09.000Z</time>
      </trkpt>
      <trkpt lat="45.92715" lon="3.05509">
        <ele>555.70861</ele>
        <time>2021-03-25T12:43:13.000Z</time>
      </trkpt>
      <trkpt lat="45.92713" lon="3.05504">
        <ele>555.70852</ele>
        <time>2021-03-25T12:43:17.000Z</time>
      </trkpt>
      <trkpt lat="45.92713" lon="3.05499">
        <ele>555.70854</ele>
        <time>2021-03-25T12:43:21.000Z</time>
      </trkpt>
      <trkpt lat="45.92709" lon="3.05493">
        <ele>555.70836</ele>
        <time>2021-03-25T12:43:26.000Z</time>
      </trkpt>
      <trkpt lat="45.92705" lon="3.05486">
        <ele>555.70821</ele>
        <time>2021-03-25T12:43:31.000Z</time>
      </trkpt>
      <trkpt lat="45.92702" lon="3.05479">
        <ele>556.70809</ele>
        <time>2021-03-25T12:43:36.000Z</time>
      </trkpt>
      <trkpt lat="45.92699" lon="3.05472">
        <ele>556.70797</ele>
        <time>2021-03-25T12:43:41.000Z</time>
      </trkpt>
      <trkpt lat="45.92699" lon="3.05464">
        <ele>555.70797</ele>
        <time>2021-03-25T12:43:46.000Z</time>
      </trkpt>
      <trkpt lat="45.92696" lon="3.05458">
        <ele>554.70785</ele>
        <time>2021-03-25T12:43:51.000Z</time>
      </trkpt>
      <trkpt lat="45.92697" lon="3.05451">
        <ele>554.70787</ele>
        <time>2021-03-25T12:43:55.000Z</time>
      </trkpt>
      <trkpt lat="45.92697" lon="3.05442">
        <ele>556.70786</ele>
        <time>2021-03-25T12:43:59.000Z</time>
      </trkpt>
      <trkpt lat="45.92694" lon="3.05435">
        <ele>555.70776</ele>
        <time>2021-03-25T12:44:04.000Z</time>
      </trkpt>
      <trkpt lat="45.92693" lon="3.05428">
        <ele>554.70773</ele>
        <time>2021-03-25T12:44:08.000Z</time>
      </trkpt>
      <trkpt lat="45.92692" lon="3.0542">
        <ele>555.70768</ele>
        <time>2021-03-25T12:44:13.000Z</time>
      </trkpt>
      <trkpt lat="45.92689" lon="3.05414">
        <ele>557.70757</ele>
        <time>2021-03-25T12:44:17.000Z</time>
      </trkpt>
      <trkpt lat="45.92687" lon="3.05408">
        <ele>558.7075</ele>
        <time>2021-03-25T12:44:21.000Z</time>
      </trkpt>
      <trkpt lat="45.92685" lon="3.05401">
        <ele>559.7074</ele>
        <time>2021-03-25T12:44:25.000Z</time>
      </trkpt>
      <trkpt lat="45.92683" lon="3.05395">
        <ele>559.70731</ele>
        <time>2021-03-25T12:44:29.000Z</time>
      </trkpt>
      <trkpt lat="45.9268" lon="3.05389">
        <ele>559.70721</ele>
        <time>2021-03-25T12:44:33.000Z</time>
      </trkpt>
      <trkpt lat="45.92677" lon="3.05383">
        <ele>559.70708</ele>
        <time>2021-03-25T12:44:38.000Z</time>
      </trkpt>
      <trkpt lat="45.92675" lon="3.05377">
        <ele>559.70699</ele>
        <time>2021-03-25T12:44:42.000Z</time>
      </trkpt>
      <trkpt lat="45.92672" lon="3.05372">
        <ele>558.70687</ele>
        <time>2021-03-25T12:44:46.000Z</time>
      </trkpt>
      <trkpt lat="45.92669" lon="3.05365">
        <ele>557.70678</ele>
        <time>2021-03-25T12:44:50.000Z</time>
      </trkpt>
      <trkpt lat="45.92667" lon="3.05359">
        <ele>559.70669</ele>
        <time>2021-03-25T12:44:55.000Z</time>
      </trkpt>
      <trkpt lat="45.92666" lon="3.05353">
        <ele>560.70664</ele>
        <time>2021-03-25T12:44:59.000Z</time>
      </trkpt>
      <trkpt lat="45.92662" lon="3.05348">
        <ele>561.70647</ele>
        <time>2021-03-25T12:45:03.000Z</time>
      </trkpt>
      <trkpt lat="45.92659" lon="3.05344">
        <ele>561.70634</ele>
        <time>2021-03-25T12:45:08.000Z</time>
      </trkpt>
      <trkpt lat="45.92659" lon="3.05337">
        <ele>563.70634</ele>
        <time>2021-03-25T12:45:12.000Z</time>
      </trkpt>
      <trkpt lat="45.92656" lon="3.05332">
        <ele>563.70626</ele>
        <time>2021-03-25T12:45:17.000Z</time>
      </trkpt>
      <trkpt lat="45.92656" lon="3.05322">
        <ele>563.70623</ele>
        <time>2021-03-25T12:45:22.000Z</time>
      </trkpt>
      <trkpt lat="45.92655" lon="3.05316">
        <ele>565.70619</ele>
        <time>2021-03-25T12:45:26.000Z</time>
      </trkpt>
      <trkpt lat="45.92653" lon="3.05309">
        <ele>566.70613</ele>
        <time>2021-03-25T12:45:30.000Z</time>
      </trkpt>
      <trkpt lat="45.92653" lon="3.05301">
        <ele>567.70612</ele>
        <time>2021-03-25T12:45:35.000Z</time>
      </trkpt>
      <trkpt lat="45.92649" lon="3.05296">
        <ele>566.70597</ele>
        <time>2021-03-25T12:45:40.000Z</time>
      </trkpt>
      <trkpt lat="45.92648" lon="3.05287">
        <ele>566.70592</ele>
        <time>2021-03-25T12:45:45.000Z</time>
      </trkpt>
      <trkpt lat="45.92644" lon="3.05285">
        <ele>568.70575</ele>
        <time>2021-03-25T12:45:49.000Z</time>
      </trkpt>
      <trkpt lat="45.9264" lon="3.05279">
        <ele>567.7056</ele>
        <time>2021-03-25T12:45:53.000Z</time>
      </trkpt>
      <trkpt lat="45.92637" lon="3.05275">
        <ele>568.70548</ele>
        <time>2021-03-25T12:45:57.000Z</time>
      </trkpt>
      <trkpt lat="45.92637" lon="3.05268">
        <ele>570.70547</ele>
        <time>2021-03-25T12:46:02.000Z</time>
      </trkpt>
      <trkpt lat="45.92637" lon="3.0526">
        <ele>569.70549</ele>
        <time>2021-03-25T12:46:06.000Z</time>
      </trkpt>
      <trkpt lat="45.92636" lon="3.05254">
        <ele>568.70542</ele>
        <time>2021-03-25T12:46:11.000Z</time>
      </trkpt>
      <trkpt lat="45.9263" lon="3.05248">
        <ele>565.7052</ele>
        <time>2021-03-25T12:46:16.000Z</time>
      </trkpt>
      <trkpt lat="45.92628" lon="3.05243">
        <ele>565.7051</ele>
        <time>2021-03-25T12:46:20.000Z</time>
      </trkpt>
      <trkpt lat="45.92625" lon="3.0524">
        <ele>563.70499</ele>
        <time>2021-03-25T12:46:26.000Z</time>
      </trkpt>
      <trkpt lat="45.92623" lon="3.05234">
        <ele>564.70491</ele>
        <time>2021-03-25T12:46:31.000Z</time>
      </trkpt>
      <trkpt lat="45.92621" lon="3.05229">
        <ele>562.70482</ele>
        <time>2021-03-25T12:46:36.000Z</time>
      </trkpt>
      <trkpt lat="45.92617" lon="3.05225">
        <ele>561.70469</ele>
        <time>2021-03-25T12:46:40.000Z</time>
      </trkpt>
      <trkpt lat="45.92613" lon="3.05223">
        <ele>560.70452</ele>
        <time>2021-03-25T12:46:45.000Z</time>
      </trkpt>
      <trkpt lat="45.92612" lon="3.05217">
        <ele>560.7045</ele>
        <time>2021-03-25T12:46:50.000Z</time>
      </trkpt>
      <trkpt lat="45.92612" lon="3.05217">
        <ele>560.7045</ele>
        <time>2021-03-25T12:46:50.000Z</time>
      </trkpt>
      <trkpt lat="45.92609" lon="3.05213">
        <ele>562.70437</ele>
        <time>2021-03-25T12:46:55.000Z</time>
      </trkpt>
      <trkpt lat="45.92608" lon="3.05208">
        <ele>562.70431</ele>
        <time>2021-03-25T12:47:01.000Z</time>
      </trkpt>
      <trkpt lat="45.92605" lon="3.05201">
        <ele>563.70419</ele>
        <time>2021-03-25T12:47:05.000Z</time>
      </trkpt>
      <trkpt lat="45.92603" lon="3.05194">
        <ele>565.70412</ele>
        <time>2021-03-25T12:47:10.000Z</time>
      </trkpt>
      <trkpt lat="45.92602" lon="3.05188">
        <ele>565.70409</ele>
        <time>2021-03-25T12:47:14.000Z</time>
      </trkpt>
      <trkpt lat="45.92602" lon="3.05177">
        <ele>567.70408</ele>
        <time>2021-03-25T12:47:18.000Z</time>
      </trkpt>
      <trkpt lat="45.92602" lon="3.0517">
        <ele>567.70407</ele>
        <time>2021-03-25T12:47:22.000Z</time>
      </trkpt>
      <trkpt lat="45.926" lon="3.05164">
        <ele>569.70401</ele>
        <time>2021-03-25T12:47:27.000Z</time>
      </trkpt>
      <trkpt lat="45.92598" lon="3.05159">
        <ele>571.70391</ele>
        <time>2021-03-25T12:47:32.000Z</time>
      </trkpt>
      <trkpt lat="45.92597" lon="3.05153">
        <ele>573.70389</ele>
        <time>2021-03-25T12:47:36.000Z</time>
      </trkpt>
      <trkpt lat="45.92599" lon="3.05143">
        <ele>573.70395</ele>
        <time>2021-03-25T12:47:40.000Z</time>
      </trkpt>
      <trkpt lat="45.92598" lon="3.05135">
        <ele>573.70393</ele>
        <time>2021-03-25T12:47:45.000Z</time>
      </trkpt>
      <trkpt lat="45.92598" lon="3.05129">
        <ele>574.7039</ele>
        <time>2021-03-25T12:47:50.000Z</time>
      </trkpt>
      <trkpt lat="45.92597" lon="3.05124">
        <ele>575.7039</ele>
        <time>2021-03-25T12:47:54.000Z</time>
      </trkpt>
      <trkpt lat="45.92598" lon="3.05117">
        <ele>575.70392</ele>
        <time>2021-03-25T12:47:57.000Z</time>
      </trkpt>
      <trkpt lat="45.92597" lon="3.05109">
        <ele>575.7039</ele>
        <time>2021-03-25T12:48:02.000Z</time>
      </trkpt>
      <trkpt lat="45.92596" lon="3.05104">
        <ele>576.70382</ele>
        <time>2021-03-25T12:48:08.000Z</time>
      </trkpt>
      <trkpt lat="45.92596" lon="3.05095">
        <ele>576.70383</ele>
        <time>2021-03-25T12:48:13.000Z</time>
      </trkpt>
      <trkpt lat="45.92592" lon="3.05089">
        <ele>575.70368</ele>
        <time>2021-03-25T12:48:17.000Z</time>
      </trkpt>
      <trkpt lat="45.9259" lon="3.05082">
        <ele>574.70361</ele>
        <time>2021-03-25T12:48:21.000Z</time>
      </trkpt>
      <trkpt lat="45.92591" lon="3.05077">
        <ele>575.70364</ele>
        <time>2021-03-25T12:48:26.000Z</time>
      </trkpt>
      <trkpt lat="45.92591" lon="3.05069">
        <ele>576.70365</ele>
        <time>2021-03-25T12:48:31.000Z</time>
      </trkpt>
      <trkpt lat="45.92589" lon="3.05064">
        <ele>576.70354</ele>
        <time>2021-03-25T12:48:35.000Z</time>
      </trkpt>
      <trkpt lat="45.92589" lon="3.05056">
        <ele>577.70356</ele>
        <time>2021-03-25T12:48:39.000Z</time>
      </trkpt>
      <trkpt lat="45.92589" lon="3.05046">
        <ele>576.70355</ele>
        <time>2021-03-25T12:48:44.000Z</time>
      </trkpt>
      <trkpt lat="45.92588" lon="3.0504">
        <ele>576.70351</ele>
        <time>2021-03-25T12:48:48.000Z</time>
      </trkpt>
      <trkpt lat="45.92588" lon="3.05034">
        <ele>577.70352</ele>
        <time>2021-03-25T12:48:53.000Z</time>
      </trkpt>
      <trkpt lat="45.92587" lon="3.05026">
        <ele>578.70349</ele>
        <time>2021-03-25T12:48:58.000Z</time>
      </trkpt>
      <trkpt lat="45.92586" lon="3.05024">
        <ele>577.70343</ele>
        <time>2021-03-25T12:49:02.000Z</time>
      </trkpt>
      <trkpt lat="45.92582" lon="3.05012">
        <ele>577.7033</ele>
        <time>2021-03-25T12:49:07.000Z</time>
      </trkpt>
      <trkpt lat="45.92581" lon="3.05006">
        <ele>576.70323</ele>
        <time>2021-03-25T12:49:12.000Z</time>
      </trkpt>
      <trkpt lat="45.92581" lon="3.05">
        <ele>575.70323</ele>
        <time>2021-03-25T12:49:15.000Z</time>
      </trkpt>
      <trkpt lat="45.92578" lon="3.04995">
        <ele>576.70312</ele>
        <time>2021-03-25T12:49:21.000Z</time>
      </trkpt>
      <trkpt lat="45.92578" lon="3.04987">
        <ele>576.70312</ele>
        <time>2021-03-25T12:49:26.000Z</time>
      </trkpt>
      <trkpt lat="45.92579" lon="3.04979">
        <ele>575.70316</ele>
        <time>2021-03-25T12:49:31.000Z</time>
      </trkpt>
      <trkpt lat="45.92581" lon="3.04971">
        <ele>574.70325</ele>
        <time>2021-03-25T12:49:36.000Z</time>
      </trkpt>
      <trkpt lat="45.9258" lon="3.04962">
        <ele>573.70322</ele>
        <time>2021-03-25T12:49:40.000Z</time>
      </trkpt>
      <trkpt lat="45.9258" lon="3.04955">
        <ele>573.70318</ele>
        <time>2021-03-25T12:49:44.000Z</time>
      </trkpt>
      <trkpt lat="45.92581" lon="3.04949">
        <ele>569.70322</ele>
        <time>2021-03-25T12:49:51.000Z</time>
      </trkpt>
      <trkpt lat="45.92579" lon="3.04943">
        <ele>568.70317</ele>
        <time>2021-03-25T12:49:56.000Z</time>
      </trkpt>
      <trkpt lat="45.92579" lon="3.04937">
        <ele>568.70317</ele>
        <time>2021-03-25T12:50:00.000Z</time>
      </trkpt>
      <trkpt lat="45.92582" lon="3.0493">
        <ele>569.70329</ele>
        <time>2021-03-25T12:50:04.000Z</time>
      </trkpt>
      <trkpt lat="45.92587" lon="3.0492">
        <ele>568.70346</ele>
        <time>2021-03-25T12:50:09.000Z</time>
      </trkpt>
      <trkpt lat="45.9259" lon="3.04914">
        <ele>569.7036</ele>
        <time>2021-03-25T12:50:14.000Z</time>
      </trkpt>
      <trkpt lat="45.92593" lon="3.04907">
        <ele>569.7037</ele>
        <time>2021-03-25T12:50:18.000Z</time>
      </trkpt>
      <trkpt lat="45.92595" lon="3.04902">
        <ele>570.70378</ele>
        <time>2021-03-25T12:50:22.000Z</time>
      </trkpt>
      <trkpt lat="45.92597" lon="3.04897">
        <ele>570.70386</ele>
        <time>2021-03-25T12:50:26.000Z</time>
      </trkpt>
      <trkpt lat="45.92599" lon="3.04891">
        <ele>570.70395</ele>
        <time>2021-03-25T12:50:30.000Z</time>
      </trkpt>
      <trkpt lat="45.92601" lon="3.04886">
        <ele>570.70406</ele>
        <time>2021-03-25T12:50:34.000Z</time>
      </trkpt>
      <trkpt lat="45.92604" lon="3.04881">
        <ele>570.70417</ele>
        <time>2021-03-25T12:50:38.000Z</time>
      </trkpt>
      <trkpt lat="45.92606" lon="3.04873">
        <ele>570.70423</ele>
        <time>2021-03-25T12:50:42.000Z</time>
      </trkpt>
      <trkpt lat="45.92606" lon="3.04864">
        <ele>571.70426</ele>
        <time>2021-03-25T12:50:46.000Z</time>
      </trkpt>
      <trkpt lat="45.92608" lon="3.04858">
        <ele>572.7043</ele>
        <time>2021-03-25T12:50:51.000Z</time>
      </trkpt>
      <trkpt lat="45.92609" lon="3.0485">
        <ele>571.70434</ele>
        <time>2021-03-25T12:50:55.000Z</time>
      </trkpt>
      <trkpt lat="45.92609" lon="3.04843">
        <ele>572.70435</ele>
        <time>2021-03-25T12:50:59.000Z</time>
      </trkpt>
      <trkpt lat="45.92609" lon="3.04835">
        <ele>571.70434</ele>
        <time>2021-03-25T12:51:04.000Z</time>
      </trkpt>
      <trkpt lat="45.92608" lon="3.04827">
        <ele>569.70433</ele>
        <time>2021-03-25T12:51:08.000Z</time>
      </trkpt>
      <trkpt lat="45.92607" lon="3.0482">
        <ele>569.70429</ele>
        <time>2021-03-25T12:51:13.000Z</time>
      </trkpt>
      <trkpt lat="45.92608" lon="3.04812">
        <ele>567.70431</ele>
        <time>2021-03-25T12:51:18.000Z</time>
      </trkpt>
      <trkpt lat="45.92607" lon="3.04805">
        <ele>567.70429</ele>
        <time>2021-03-25T12:51:22.000Z</time>
      </trkpt>
      <trkpt lat="45.92603" lon="3.048">
        <ele>567.70413</ele>
        <time>2021-03-25T12:51:27.000Z</time>
      </trkpt>
      <trkpt lat="45.92599" lon="3.04797">
        <ele>566.70398</ele>
        <time>2021-03-25T12:51:31.000Z</time>
      </trkpt>
      <trkpt lat="45.92597" lon="3.04791">
        <ele>567.7039</ele>
        <time>2021-03-25T12:51:37.000Z</time>
      </trkpt>
      <trkpt lat="45.92595" lon="3.04786">
        <ele>567.70378</ele>
        <time>2021-03-25T12:51:42.000Z</time>
      </trkpt>
      <trkpt lat="45.92592" lon="3.04782">
        <ele>567.70367</ele>
        <time>2021-03-25T12:51:47.000Z</time>
      </trkpt>
      <trkpt lat="45.92588" lon="3.0478">
        <ele>568.7035</ele>
        <time>2021-03-25T12:51:52.000Z</time>
      </trkpt>
      <trkpt lat="45.92584" lon="3.04777">
        <ele>569.70335</ele>
        <time>2021-03-25T12:51:57.000Z</time>
      </trkpt>
      <trkpt lat="45.92584" lon="3.04777">
        <ele>569.70335</ele>
        <time>2021-03-25T12:51:57.000Z</time>
      </trkpt>
      <trkpt lat="45.92581" lon="3.04775">
        <ele>570.70324</ele>
        <time>2021-03-25T12:52:01.000Z</time>
      </trkpt>
      <trkpt lat="45.92577" lon="3.04773">
        <ele>571.7031</ele>
        <time>2021-03-25T12:52:05.000Z</time>
      </trkpt>
      <trkpt lat="45.92575" lon="3.04769">
        <ele>573.703</ele>
        <time>2021-03-25T12:52:11.000Z</time>
      </trkpt>
      <trkpt lat="45.92572" lon="3.04765">
        <ele>572.70288</ele>
        <time>2021-03-25T12:52:15.000Z</time>
      </trkpt>
      <trkpt lat="45.92567" lon="3.04759">
        <ele>571.7027</ele>
        <time>2021-03-25T12:52:20.000Z</time>
      </trkpt>
      <trkpt lat="45.92562" lon="3.04755">
        <ele>572.70249</ele>
        <time>2021-03-25T12:52:24.000Z</time>
      </trkpt>
      <trkpt lat="45.92557" lon="3.04754">
        <ele>572.70228</ele>
        <time>2021-03-25T12:52:28.000Z</time>
      </trkpt>
      <trkpt lat="45.92553" lon="3.04753">
        <ele>573.7021</ele>
        <time>2021-03-25T12:52:33.000Z</time>
      </trkpt>
      <trkpt lat="45.92546" lon="3.04752">
        <ele>574.70183</ele>
        <time>2021-03-25T12:52:37.000Z</time>
      </trkpt>
      <trkpt lat="45.92541" lon="3.0475">
        <ele>576.70165</ele>
        <time>2021-03-25T12:52:42.000Z</time>
      </trkpt>
      <trkpt lat="45.92537" lon="3.0475">
        <ele>576.70149</ele>
        <time>2021-03-25T12:52:45.000Z</time>
      </trkpt>
      <trkpt lat="45.92533" lon="3.0475">
        <ele>577.70131</ele>
        <time>2021-03-25T12:52:50.000Z</time>
      </trkpt>
      <trkpt lat="45.92527" lon="3.04748">
        <ele>580.70108</ele>
        <time>2021-03-25T12:52:55.000Z</time>
      </trkpt>
      <trkpt lat="45.92522" lon="3.04746">
        <ele>580.70087</ele>
        <time>2021-03-25T12:52:59.000Z</time>
      </trkpt>
      <trkpt lat="45.92517" lon="3.04747">
        <ele>580.70068</ele>
        <time>2021-03-25T12:53:03.000Z</time>
      </trkpt>
      <trkpt lat="45.92513" lon="3.04744">
        <ele>581.70053</ele>
        <time>2021-03-25T12:53:07.000Z</time>
      </trkpt>
      <trkpt lat="45.92508" lon="3.04742">
        <ele>580.70032</ele>
        <time>2021-03-25T12:53:12.000Z</time>
      </trkpt>
      <trkpt lat="45.92502" lon="3.04741">
        <ele>580.70009</ele>
        <time>2021-03-25T12:53:17.000Z</time>
      </trkpt>
      <trkpt lat="45.92497" lon="3.04742">
        <ele>579.69986</ele>
        <time>2021-03-25T12:53:21.000Z</time>
      </trkpt>
      <trkpt lat="45.92491" lon="3.04744">
        <ele>580.69964</ele>
        <time>2021-03-25T12:53:26.000Z</time>
      </trkpt>
      <trkpt lat="45.92484" lon="3.04741">
        <ele>580.69936</ele>
        <time>2021-03-25T12:53:31.000Z</time>
      </trkpt>
      <trkpt lat="45.92481" lon="3.04739">
        <ele>579.69925</ele>
        <time>2021-03-25T12:53:36.000Z</time>
      </trkpt>
      <trkpt lat="45.92476" lon="3.04734">
        <ele>580.69902</ele>
        <time>2021-03-25T12:53:40.000Z</time>
      </trkpt>
      <trkpt lat="45.92472" lon="3.04731">
        <ele>580.69888</ele>
        <time>2021-03-25T12:53:45.000Z</time>
      </trkpt>
      <trkpt lat="45.92467" lon="3.04728">
        <ele>581.69868</ele>
        <time>2021-03-25T12:53:49.000Z</time>
      </trkpt>
      <trkpt lat="45.92458" lon="3.04723">
        <ele>581.69834</ele>
        <time>2021-03-25T12:53:54.000Z</time>
      </trkpt>
      <trkpt lat="45.92453" lon="3.04719">
        <ele>582.69811</ele>
        <time>2021-03-25T12:53:58.000Z</time>
      </trkpt>
      <trkpt lat="45.92448" lon="3.04714">
        <ele>582.69791</ele>
        <time>2021-03-25T12:54:01.000Z</time>
      </trkpt>
      <trkpt lat="45.92443" lon="3.04709">
        <ele>582.69771</ele>
        <time>2021-03-25T12:54:06.000Z</time>
      </trkpt>
      <trkpt lat="45.92439" lon="3.04704">
        <ele>582.69757</ele>
        <time>2021-03-25T12:54:11.000Z</time>
      </trkpt>
      <trkpt lat="45.92436" lon="3.04699">
        <ele>583.69745</ele>
        <time>2021-03-25T12:54:16.000Z</time>
      </trkpt>
      <trkpt lat="45.92433" lon="3.04694">
        <ele>583.69734</ele>
        <time>2021-03-25T12:54:20.000Z</time>
      </trkpt>
      <trkpt lat="45.92428" lon="3.04691">
        <ele>583.69711</ele>
        <time>2021-03-25T12:54:24.000Z</time>
      </trkpt>
      <trkpt lat="45.92422" lon="3.04688">
        <ele>582.69688</ele>
        <time>2021-03-25T12:54:28.000Z</time>
      </trkpt>
      <trkpt lat="45.92419" lon="3.04685">
        <ele>583.69674</ele>
        <time>2021-03-25T12:54:32.000Z</time>
      </trkpt>
      <trkpt lat="45.92419" lon="3.04685">
        <ele>583.69674</ele>
        <time>2021-03-25T12:54:32.000Z</time>
      </trkpt>
      <trkpt lat="45.92416" lon="3.0468">
        <ele>584.69662</ele>
        <time>2021-03-25T12:54:36.000Z</time>
      </trkpt>
      <trkpt lat="45.92412" lon="3.04676">
        <ele>584.69647</ele>
        <time>2021-03-25T12:54:41.000Z</time>
      </trkpt>
      <trkpt lat="45.92412" lon="3.04671">
        <ele>586.69646</ele>
        <time>2021-03-25T12:54:46.000Z</time>
      </trkpt>
      <trkpt lat="45.9241" lon="3.04664">
        <ele>587.69639</ele>
        <time>2021-03-25T12:54:50.000Z</time>
      </trkpt>
      <trkpt lat="45.92408" lon="3.04654">
        <ele>587.69633</ele>
        <time>2021-03-25T12:54:55.000Z</time>
      </trkpt>
      <trkpt lat="45.92406" lon="3.04646">
        <ele>587.69622</ele>
        <time>2021-03-25T12:55:00.000Z</time>
      </trkpt>
      <trkpt lat="45.92407" lon="3.04639">
        <ele>587.69627</ele>
        <time>2021-03-25T12:55:04.000Z</time>
      </trkpt>
      <trkpt lat="45.92407" lon="3.04632">
        <ele>588.69628</ele>
        <time>2021-03-25T12:55:08.000Z</time>
      </trkpt>
      <trkpt lat="45.92407" lon="3.04623">
        <ele>588.69627</ele>
        <time>2021-03-25T12:55:13.000Z</time>
      </trkpt>
      <trkpt lat="45.92408" lon="3.04616">
        <ele>588.69631</ele>
        <time>2021-03-25T12:55:17.000Z</time>
      </trkpt>
      <trkpt lat="45.92409" lon="3.04609">
        <ele>589.69637</ele>
        <time>2021-03-25T12:55:21.000Z</time>
      </trkpt>
      <trkpt lat="45.9241" lon="3.04599">
        <ele>590.69642</ele>
        <time>2021-03-25T12:55:26.000Z</time>
      </trkpt>
      <trkpt lat="45.92408" lon="3.04594">
        <ele>590.69632</ele>
        <time>2021-03-25T12:55:31.000Z</time>
      </trkpt>
      <trkpt lat="45.92407" lon="3.04589">
        <ele>590.69626</ele>
        <time>2021-03-25T12:55:37.000Z</time>
      </trkpt>
      <trkpt lat="45.92405" lon="3.04583">
        <ele>590.69621</ele>
        <time>2021-03-25T12:55:43.000Z</time>
      </trkpt>
      <trkpt lat="45.92407" lon="3.04577">
        <ele>590.69626</ele>
        <time>2021-03-25T12:55:46.000Z</time>
      </trkpt>
      <trkpt lat="45.92407" lon="3.04573">
        <ele>590.69626</ele>
        <time>2021-03-25T12:55:53.000Z</time>
      </trkpt>
      <trkpt lat="45.92408" lon="3.0456">
        <ele>591.69632</ele>
        <time>2021-03-25T12:55:58.000Z</time>
      </trkpt>
      <trkpt lat="45.92409" lon="3.04552">
        <ele>591.69634</ele>
        <time>2021-03-25T12:56:01.000Z</time>
      </trkpt>
      <trkpt lat="45.9241" lon="3.04544">
        <ele>592.6964</ele>
        <time>2021-03-25T12:56:06.000Z</time>
      </trkpt>
      <trkpt lat="45.92411" lon="3.04537">
        <ele>591.69645</ele>
        <time>2021-03-25T12:56:10.000Z</time>
      </trkpt>
      <trkpt lat="45.9241" lon="3.04532">
        <ele>592.69641</ele>
        <time>2021-03-25T12:56:17.000Z</time>
      </trkpt>
      <trkpt lat="45.92409" lon="3.04526">
        <ele>591.69636</ele>
        <time>2021-03-25T12:56:22.000Z</time>
      </trkpt>
      <trkpt lat="45.92409" lon="3.04518">
        <ele>592.69634</ele>
        <time>2021-03-25T12:56:27.000Z</time>
      </trkpt>
      <trkpt lat="45.92407" lon="3.04514">
        <ele>593.69629</ele>
        <time>2021-03-25T12:56:33.000Z</time>
      </trkpt>
      <trkpt lat="45.92409" lon="3.04508">
        <ele>594.69637</ele>
        <time>2021-03-25T12:56:40.000Z</time>
      </trkpt>
      <trkpt lat="45.92408" lon="3.045">
        <ele>593.69633</ele>
        <time>2021-03-25T12:56:45.000Z</time>
      </trkpt>
      <trkpt lat="45.92407" lon="3.04494">
        <ele>594.69628</ele>
        <time>2021-03-25T12:56:53.000Z</time>
      </trkpt>
      <trkpt lat="45.92405" lon="3.04488">
        <ele>596.6962</ele>
        <time>2021-03-25T12:57:01.000Z</time>
      </trkpt>
      <trkpt lat="45.92401" lon="3.04486">
        <ele>596.69604</ele>
        <time>2021-03-25T12:57:11.000Z</time>
      </trkpt>
      <trkpt lat="45.92397" lon="3.04486">
        <ele>597.69587</ele>
        <time>2021-03-25T12:57:16.000Z</time>
      </trkpt>
      <trkpt lat="45.92393" lon="3.04489">
        <ele>597.69572</ele>
        <time>2021-03-25T12:57:22.000Z</time>
      </trkpt>
      <trkpt lat="45.92393" lon="3.04489">
        <ele>597.69572</ele>
        <time>2021-03-25T12:57:22.000Z</time>
      </trkpt>
      <trkpt lat="45.9239" lon="3.04493">
        <ele>595.6956</ele>
        <time>2021-03-25T12:57:27.000Z</time>
      </trkpt>
      <trkpt lat="45.92385" lon="3.04497">
        <ele>594.69542</ele>
        <time>2021-03-25T12:57:31.000Z</time>
      </trkpt>
      <trkpt lat="45.92383" lon="3.045">
        <ele>594.6953</ele>
        <time>2021-03-25T12:57:35.000Z</time>
      </trkpt>
      <trkpt lat="45.92377" lon="3.04503">
        <ele>595.69508</ele>
        <time>2021-03-25T12:57:39.000Z</time>
      </trkpt>
      <trkpt lat="45.92373" lon="3.04508">
        <ele>593.69491</ele>
        <time>2021-03-25T12:57:44.000Z</time>
      </trkpt>
      <trkpt lat="45.92369" lon="3.04511">
        <ele>595.69475</ele>
        <time>2021-03-25T12:57:48.000Z</time>
      </trkpt>
      <trkpt lat="45.92366" lon="3.04515">
        <ele>595.69464</ele>
        <time>2021-03-25T12:57:53.000Z</time>
      </trkpt>
      <trkpt lat="45.92363" lon="3.04519">
        <ele>598.69452</ele>
        <time>2021-03-25T12:58:03.000Z</time>
      </trkpt>
      <trkpt lat="45.92357" lon="3.04524">
        <ele>603.69429</ele>
        <time>2021-03-25T12:58:07.000Z</time>
      </trkpt>
      <trkpt lat="45.92354" lon="3.04525">
        <ele>604.69414</ele>
        <time>2021-03-25T12:58:13.000Z</time>
      </trkpt>
      <trkpt lat="45.92349" lon="3.04527">
        <ele>603.69394</ele>
        <time>2021-03-25T12:58:17.000Z</time>
      </trkpt>
      <trkpt lat="45.92345" lon="3.0453">
        <ele>605.69379</ele>
        <time>2021-03-25T12:58:22.000Z</time>
      </trkpt>
      <trkpt lat="45.92339" lon="3.04532">
        <ele>606.69357</ele>
        <time>2021-03-25T12:58:26.000Z</time>
      </trkpt>
      <trkpt lat="45.92334" lon="3.04532">
        <ele>607.69336</ele>
        <time>2021-03-25T12:58:30.000Z</time>
      </trkpt>
      <trkpt lat="45.9233" lon="3.04532">
        <ele>608.6932</ele>
        <time>2021-03-25T12:58:36.000Z</time>
      </trkpt>
      <trkpt lat="45.92325" lon="3.0453">
        <ele>609.69299</ele>
        <time>2021-03-25T12:58:41.000Z</time>
      </trkpt>
      <trkpt lat="45.92321" lon="3.04528">
        <ele>610.69283</ele>
        <time>2021-03-25T12:58:45.000Z</time>
      </trkpt>
      <trkpt lat="45.92315" lon="3.04526">
        <ele>612.69258</ele>
        <time>2021-03-25T12:58:50.000Z</time>
      </trkpt>
      <trkpt lat="45.92309" lon="3.04523">
        <ele>613.69237</ele>
        <time>2021-03-25T12:58:54.000Z</time>
      </trkpt>
      <trkpt lat="45.92307" lon="3.04522">
        <ele>613.69227</ele>
        <time>2021-03-25T12:58:58.000Z</time>
      </trkpt>
      <trkpt lat="45.92301" lon="3.04518">
        <ele>613.69205</ele>
        <time>2021-03-25T12:59:03.000Z</time>
      </trkpt>
      <trkpt lat="45.92298" lon="3.04514">
        <ele>614.69193</ele>
        <time>2021-03-25T12:59:07.000Z</time>
      </trkpt>
      <trkpt lat="45.92292" lon="3.04511">
        <ele>613.69167</ele>
        <time>2021-03-25T12:59:12.000Z</time>
      </trkpt>
      <trkpt lat="45.92289" lon="3.04508">
        <ele>614.69156</ele>
        <time>2021-03-25T12:59:16.000Z</time>
      </trkpt>
      <trkpt lat="45.92283" lon="3.04505">
        <ele>613.69132</ele>
        <time>2021-03-25T12:59:20.000Z</time>
      </trkpt>
      <trkpt lat="45.9228" lon="3.045">
        <ele>612.6912</ele>
        <time>2021-03-25T12:59:25.000Z</time>
      </trkpt>
      <trkpt lat="45.92278" lon="3.04495">
        <ele>612.69111</ele>
        <time>2021-03-25T12:59:30.000Z</time>
      </trkpt>
      <trkpt lat="45.92274" lon="3.04491">
        <ele>610.69095</ele>
        <time>2021-03-25T12:59:34.000Z</time>
      </trkpt>
      <trkpt lat="45.9227" lon="3.04489">
        <ele>610.69079</ele>
        <time>2021-03-25T12:59:38.000Z</time>
      </trkpt>
      <trkpt lat="45.92266" lon="3.04485">
        <ele>611.69064</ele>
        <time>2021-03-25T12:59:44.000Z</time>
      </trkpt>
      <trkpt lat="45.92262" lon="3.04482">
        <ele>611.69047</ele>
        <time>2021-03-25T12:59:48.000Z</time>
      </trkpt>
      <trkpt lat="45.9226" lon="3.04477">
        <ele>611.69038</ele>
        <time>2021-03-25T12:59:52.000Z</time>
      </trkpt>
      <trkpt lat="45.92255" lon="3.04472">
        <ele>614.6902</ele>
        <time>2021-03-25T12:59:57.000Z</time>
      </trkpt>
      <trkpt lat="45.92253" lon="3.04466">
        <ele>614.6901</ele>
        <time>2021-03-25T13:00:02.000Z</time>
      </trkpt>
      <trkpt lat="45.92249" lon="3.04463">
        <ele>616.68997</ele>
        <time>2021-03-25T13:00:07.000Z</time>
      </trkpt>
      <trkpt lat="45.92248" lon="3.04459">
        <ele>618.68992</ele>
        <time>2021-03-25T13:00:12.000Z</time>
      </trkpt>
      <trkpt lat="45.92244" lon="3.04454">
        <ele>620.68977</ele>
        <time>2021-03-25T13:00:16.000Z</time>
      </trkpt>
      <trkpt lat="45.92243" lon="3.04448">
        <ele>621.68972</ele>
        <time>2021-03-25T13:00:21.000Z</time>
      </trkpt>
      <trkpt lat="45.92243" lon="3.04448">
        <ele>621.68972</ele>
        <time>2021-03-25T13:00:21.000Z</time>
      </trkpt>
      <trkpt lat="45.92241" lon="3.04444">
        <ele>622.68962</ele>
        <time>2021-03-25T13:00:27.000Z</time>
      </trkpt>
      <trkpt lat="45.92241" lon="3.04435">
        <ele>622.68964</ele>
        <time>2021-03-25T13:00:31.000Z</time>
      </trkpt>
      <trkpt lat="45.92239" lon="3.0443">
        <ele>622.68957</ele>
        <time>2021-03-25T13:00:35.000Z</time>
      </trkpt>
      <trkpt lat="45.9224" lon="3.04423">
        <ele>623.68959</ele>
        <time>2021-03-25T13:00:40.000Z</time>
      </trkpt>
      <trkpt lat="45.92243" lon="3.04414">
        <ele>624.6897</ele>
        <time>2021-03-25T13:00:45.000Z</time>
      </trkpt>
      <trkpt lat="45.92244" lon="3.04404">
        <ele>623.68975</ele>
        <time>2021-03-25T13:00:50.000Z</time>
      </trkpt>
      <trkpt lat="45.92244" lon="3.04399">
        <ele>621.68976</ele>
        <time>2021-03-25T13:00:55.000Z</time>
      </trkpt>
      <trkpt lat="45.92246" lon="3.04394">
        <ele>620.68982</ele>
        <time>2021-03-25T13:00:59.000Z</time>
      </trkpt>
      <trkpt lat="45.92247" lon="3.04388">
        <ele>620.68986</ele>
        <time>2021-03-25T13:01:04.000Z</time>
      </trkpt>
      <trkpt lat="45.92248" lon="3.04381">
        <ele>620.68992</ele>
        <time>2021-03-25T13:01:09.000Z</time>
      </trkpt>
      <trkpt lat="45.92248" lon="3.04374">
        <ele>621.68991</ele>
        <time>2021-03-25T13:01:13.000Z</time>
      </trkpt>
      <trkpt lat="45.92246" lon="3.04367">
        <ele>621.68985</ele>
        <time>2021-03-25T13:01:17.000Z</time>
      </trkpt>
      <trkpt lat="45.92243" lon="3.04364">
        <ele>619.68972</ele>
        <time>2021-03-25T13:01:23.000Z</time>
      </trkpt>
      <trkpt lat="45.92242" lon="3.04358">
        <ele>620.68968</ele>
        <time>2021-03-25T13:01:27.000Z</time>
      </trkpt>
      <trkpt lat="45.92239" lon="3.04352">
        <ele>621.68955</ele>
        <time>2021-03-25T13:01:32.000Z</time>
      </trkpt>
      <trkpt lat="45.92236" lon="3.04345">
        <ele>620.68943</ele>
        <time>2021-03-25T13:01:37.000Z</time>
      </trkpt>
      <trkpt lat="45.92234" lon="3.04339">
        <ele>620.68936</ele>
        <time>2021-03-25T13:01:41.000Z</time>
      </trkpt>
      <trkpt lat="45.92233" lon="3.04331">
        <ele>621.68932</ele>
        <time>2021-03-25T13:01:45.000Z</time>
      </trkpt>
      <trkpt lat="45.92233" lon="3.04325">
        <ele>621.68933</ele>
        <time>2021-03-25T13:01:49.000Z</time>
      </trkpt>
      <trkpt lat="45.92233" lon="3.04318">
        <ele>619.68931</ele>
        <time>2021-03-25T13:01:54.000Z</time>
      </trkpt>
      <trkpt lat="45.9223" lon="3.0431">
        <ele>620.68921</ele>
        <time>2021-03-25T13:01:59.000Z</time>
      </trkpt>
      <trkpt lat="45.92231" lon="3.04302">
        <ele>620.68924</ele>
        <time>2021-03-25T13:02:03.000Z</time>
      </trkpt>
      <trkpt lat="45.92229" lon="3.04295">
        <ele>620.68918</ele>
        <time>2021-03-25T13:02:08.000Z</time>
      </trkpt>
      <trkpt lat="45.9223" lon="3.04288">
        <ele>620.68919</ele>
        <time>2021-03-25T13:02:12.000Z</time>
      </trkpt>
      <trkpt lat="45.92232" lon="3.04277">
        <ele>620.68927</ele>
        <time>2021-03-25T13:02:17.000Z</time>
      </trkpt>
      <trkpt lat="45.92236" lon="3.04267">
        <ele>621.68944</ele>
        <time>2021-03-25T13:02:22.000Z</time>
      </trkpt>
      <trkpt lat="45.92234" lon="3.04261">
        <ele>621.68936</ele>
        <time>2021-03-25T13:02:26.000Z</time>
      </trkpt>
      <trkpt lat="45.92231" lon="3.04253">
        <ele>621.68925</ele>
        <time>2021-03-25T13:02:31.000Z</time>
      </trkpt>
      <trkpt lat="45.92231" lon="3.04245">
        <ele>621.68925</ele>
        <time>2021-03-25T13:02:36.000Z</time>
      </trkpt>
      <trkpt lat="45.92231" lon="3.04241">
        <ele>621.68922</ele>
        <time>2021-03-25T13:02:40.000Z</time>
      </trkpt>
      <trkpt lat="45.9223" lon="3.04233">
        <ele>623.68919</ele>
        <time>2021-03-25T13:02:44.000Z</time>
      </trkpt>
      <trkpt lat="45.92231" lon="3.04226">
        <ele>622.68922</ele>
        <time>2021-03-25T13:02:49.000Z</time>
      </trkpt>
      <trkpt lat="45.92227" lon="3.04217">
        <ele>623.68909</ele>
        <time>2021-03-25T13:02:53.000Z</time>
      </trkpt>
      <trkpt lat="45.92226" lon="3.04212">
        <ele>622.68903</ele>
        <time>2021-03-25T13:02:58.000Z</time>
      </trkpt>
      <trkpt lat="45.92226" lon="3.04204">
        <ele>622.68905</ele>
        <time>2021-03-25T13:03:02.000Z</time>
      </trkpt>
      <trkpt lat="45.92225" lon="3.04199">
        <ele>622.68899</ele>
        <time>2021-03-25T13:03:06.000Z</time>
      </trkpt>
      <trkpt lat="45.92223" lon="3.04194">
        <ele>621.68891</ele>
        <time>2021-03-25T13:03:10.000Z</time>
      </trkpt>
      <trkpt lat="45.92218" lon="3.04189">
        <ele>624.68873</ele>
        <time>2021-03-25T13:03:14.000Z</time>
      </trkpt>
      <trkpt lat="45.92216" lon="3.04182">
        <ele>625.68865</ele>
        <time>2021-03-25T13:03:18.000Z</time>
      </trkpt>
      <trkpt lat="45.92217" lon="3.04174">
        <ele>626.68869</ele>
        <time>2021-03-25T13:03:22.000Z</time>
      </trkpt>
      <trkpt lat="45.92221" lon="3.04163">
        <ele>626.68883</ele>
        <time>2021-03-25T13:03:27.000Z</time>
      </trkpt>
      <trkpt lat="45.92221" lon="3.04157">
        <ele>626.68886</ele>
        <time>2021-03-25T13:03:31.000Z</time>
      </trkpt>
      <trkpt lat="45.92222" lon="3.04149">
        <ele>626.68889</ele>
        <time>2021-03-25T13:03:35.000Z</time>
      </trkpt>
      <trkpt lat="45.92223" lon="3.04142">
        <ele>626.68893</ele>
        <time>2021-03-25T13:03:40.000Z</time>
      </trkpt>
      <trkpt lat="45.92225" lon="3.04137">
        <ele>625.68899</ele>
        <time>2021-03-25T13:03:46.000Z</time>
      </trkpt>
      <trkpt lat="45.92225" lon="3.0413">
        <ele>625.68898</ele>
        <time>2021-03-25T13:03:51.000Z</time>
      </trkpt>
      <trkpt lat="45.92221" lon="3.04126">
        <ele>628.68885</ele>
        <time>2021-03-25T13:03:55.000Z</time>
      </trkpt>
      <trkpt lat="45.92221" lon="3.0412">
        <ele>627.68885</ele>
        <time>2021-03-25T13:04:00.000Z</time>
      </trkpt>
      <trkpt lat="45.92219" lon="3.04114">
        <ele>628.68875</ele>
        <time>2021-03-25T13:04:05.000Z</time>
      </trkpt>
      <trkpt lat="45.92216" lon="3.04108">
        <ele>627.68865</ele>
        <time>2021-03-25T13:04:10.000Z</time>
      </trkpt>
      <trkpt lat="45.92213" lon="3.04102">
        <ele>629.68853</ele>
        <time>2021-03-25T13:04:14.000Z</time>
      </trkpt>
      <trkpt lat="45.9221" lon="3.04096">
        <ele>629.68841</ele>
        <time>2021-03-25T13:04:19.000Z</time>
      </trkpt>
      <trkpt lat="45.92209" lon="3.04091">
        <ele>629.68835</ele>
        <time>2021-03-25T13:04:23.000Z</time>
      </trkpt>
      <trkpt lat="45.92207" lon="3.04083">
        <ele>630.68827</ele>
        <time>2021-03-25T13:04:27.000Z</time>
      </trkpt>
      <trkpt lat="45.92204" lon="3.04076">
        <ele>630.68817</ele>
        <time>2021-03-25T13:04:32.000Z</time>
      </trkpt>
      <trkpt lat="45.92204" lon="3.0407">
        <ele>631.68814</ele>
        <time>2021-03-25T13:04:35.000Z</time>
      </trkpt>
      <trkpt lat="45.92201" lon="3.04066">
        <ele>631.68804</ele>
        <time>2021-03-25T13:04:40.000Z</time>
      </trkpt>
      <trkpt lat="45.92199" lon="3.04059">
        <ele>631.68795</ele>
        <time>2021-03-25T13:04:45.000Z</time>
      </trkpt>
      <trkpt lat="45.92199" lon="3.0405">
        <ele>631.68794</ele>
        <time>2021-03-25T13:04:50.000Z</time>
      </trkpt>
      <trkpt lat="45.92198" lon="3.04043">
        <ele>632.68791</ele>
        <time>2021-03-25T13:04:54.000Z</time>
      </trkpt>
      <trkpt lat="45.92197" lon="3.04036">
        <ele>632.68787</ele>
        <time>2021-03-25T13:04:58.000Z</time>
      </trkpt>
      <trkpt lat="45.92193" lon="3.04029">
        <ele>632.68773</ele>
        <time>2021-03-25T13:05:03.000Z</time>
      </trkpt>
      <trkpt lat="45.92191" lon="3.04024">
        <ele>633.68763</ele>
        <time>2021-03-25T13:05:07.000Z</time>
      </trkpt>
      <trkpt lat="45.92188" lon="3.04018">
        <ele>634.68753</ele>
        <time>2021-03-25T13:05:12.000Z</time>
      </trkpt>
      <trkpt lat="45.92186" lon="3.04011">
        <ele>634.68742</ele>
        <time>2021-03-25T13:05:16.000Z</time>
      </trkpt>
      <trkpt lat="45.92184" lon="3.04004">
        <ele>635.68737</ele>
        <time>2021-03-25T13:05:20.000Z</time>
      </trkpt>
      <trkpt lat="45.92182" lon="3.04">
        <ele>634.68727</ele>
        <time>2021-03-25T13:05:24.000Z</time>
      </trkpt>
      <trkpt lat="45.9218" lon="3.03993">
        <ele>635.6872</ele>
        <time>2021-03-25T13:05:28.000Z</time>
      </trkpt>
      <trkpt lat="45.92179" lon="3.03988">
        <ele>635.68715</ele>
        <time>2021-03-25T13:05:33.000Z</time>
      </trkpt>
      <trkpt lat="45.92177" lon="3.03982">
        <ele>636.68706</ele>
        <time>2021-03-25T13:05:38.000Z</time>
      </trkpt>
      <trkpt lat="45.92174" lon="3.03976">
        <ele>637.68696</ele>
        <time>2021-03-25T13:05:43.000Z</time>
      </trkpt>
      <trkpt lat="45.92175" lon="3.03969">
        <ele>637.687</ele>
        <time>2021-03-25T13:05:47.000Z</time>
      </trkpt>
      <trkpt lat="45.92171" lon="3.03967">
        <ele>639.68685</ele>
        <time>2021-03-25T13:05:51.000Z</time>
      </trkpt>
      <trkpt lat="45.92168" lon="3.0396">
        <ele>641.68672</ele>
        <time>2021-03-25T13:05:55.000Z</time>
      </trkpt>
      <trkpt lat="45.92166" lon="3.03954">
        <ele>641.68665</ele>
        <time>2021-03-25T13:06:00.000Z</time>
      </trkpt>
      <trkpt lat="45.92162" lon="3.03949">
        <ele>641.68646</ele>
        <time>2021-03-25T13:06:05.000Z</time>
      </trkpt>
      <trkpt lat="45.9216" lon="3.0394">
        <ele>641.68639</ele>
        <time>2021-03-25T13:06:10.000Z</time>
      </trkpt>
      <trkpt lat="45.92157" lon="3.03933">
        <ele>642.6863</ele>
        <time>2021-03-25T13:06:15.000Z</time>
      </trkpt>
      <trkpt lat="45.92158" lon="3.03928">
        <ele>641.68631</ele>
        <time>2021-03-25T13:06:18.000Z</time>
      </trkpt>
      <trkpt lat="45.92156" lon="3.03922">
        <ele>640.68625</ele>
        <time>2021-03-25T13:06:22.000Z</time>
      </trkpt>
      <trkpt lat="45.92153" lon="3.03915">
        <ele>641.68611</ele>
        <time>2021-03-25T13:06:27.000Z</time>
      </trkpt>
      <trkpt lat="45.92153" lon="3.03909">
        <ele>641.6861</ele>
        <time>2021-03-25T13:06:31.000Z</time>
      </trkpt>
      <trkpt lat="45.92149" lon="3.03904">
        <ele>642.68594</ele>
        <time>2021-03-25T13:06:36.000Z</time>
      </trkpt>
      <trkpt lat="45.92145" lon="3.03898">
        <ele>642.6858</ele>
        <time>2021-03-25T13:06:40.000Z</time>
      </trkpt>
      <trkpt lat="45.92144" lon="3.0389">
        <ele>642.68578</ele>
        <time>2021-03-25T13:06:44.000Z</time>
      </trkpt>
      <trkpt lat="45.92142" lon="3.03885">
        <ele>642.68568</ele>
        <time>2021-03-25T13:06:48.000Z</time>
      </trkpt>
      <trkpt lat="45.92139" lon="3.0388">
        <ele>644.68556</ele>
        <time>2021-03-25T13:06:52.000Z</time>
      </trkpt>
      <trkpt lat="45.92137" lon="3.03873">
        <ele>643.68548</ele>
        <time>2021-03-25T13:06:57.000Z</time>
      </trkpt>
      <trkpt lat="45.92135" lon="3.03866">
        <ele>644.68539</ele>
        <time>2021-03-25T13:07:01.000Z</time>
      </trkpt>
      <trkpt lat="45.92133" lon="3.03861">
        <ele>645.68533</ele>
        <time>2021-03-25T13:07:06.000Z</time>
      </trkpt>
      <trkpt lat="45.92131" lon="3.03855">
        <ele>648.68523</ele>
        <time>2021-03-25T13:07:10.000Z</time>
      </trkpt>
      <trkpt lat="45.9213" lon="3.03849">
        <ele>647.68518</ele>
        <time>2021-03-25T13:07:14.000Z</time>
      </trkpt>
      <trkpt lat="45.92127" lon="3.03844">
        <ele>649.68509</ele>
        <time>2021-03-25T13:07:19.000Z</time>
      </trkpt>
      <trkpt lat="45.92125" lon="3.03836">
        <ele>649.68501</ele>
        <time>2021-03-25T13:07:23.000Z</time>
      </trkpt>
      <trkpt lat="45.92125" lon="3.03836">
        <ele>649.68501</ele>
        <time>2021-03-25T13:07:23.000Z</time>
      </trkpt>
      <trkpt lat="45.92126" lon="3.0383">
        <ele>650.68502</ele>
        <time>2021-03-25T13:07:30.000Z</time>
      </trkpt>
      <trkpt lat="45.92126" lon="3.03824">
        <ele>652.68504</ele>
        <time>2021-03-25T13:07:35.000Z</time>
      </trkpt>
      <trkpt lat="45.92127" lon="3.03817">
        <ele>654.68508</ele>
        <time>2021-03-25T13:07:40.000Z</time>
      </trkpt>
      <trkpt lat="45.92127" lon="3.03811">
        <ele>655.68507</ele>
        <time>2021-03-25T13:07:44.000Z</time>
      </trkpt>
      <trkpt lat="45.92127" lon="3.03806">
        <ele>655.68508</ele>
        <time>2021-03-25T13:07:48.000Z</time>
      </trkpt>
      <trkpt lat="45.9213" lon="3.03799">
        <ele>654.68519</ele>
        <time>2021-03-25T13:07:52.000Z</time>
      </trkpt>
      <trkpt lat="45.9213" lon="3.03793">
        <ele>654.68519</ele>
        <time>2021-03-25T13:07:56.000Z</time>
      </trkpt>
      <trkpt lat="45.92132" lon="3.03786">
        <ele>656.68528</ele>
        <time>2021-03-25T13:08:00.000Z</time>
      </trkpt>
      <trkpt lat="45.92131" lon="3.03781">
        <ele>658.68523</ele>
        <time>2021-03-25T13:08:06.000Z</time>
      </trkpt>
      <trkpt lat="45.92132" lon="3.03775">
        <ele>659.68526</ele>
        <time>2021-03-25T13:08:13.000Z</time>
      </trkpt>
      <trkpt lat="45.92133" lon="3.0377">
        <ele>659.6853</ele>
        <time>2021-03-25T13:08:17.000Z</time>
      </trkpt>
      <trkpt lat="45.92134" lon="3.03761">
        <ele>660.68535</ele>
        <time>2021-03-25T13:08:22.000Z</time>
      </trkpt>
      <trkpt lat="45.92135" lon="3.03753">
        <ele>660.68539</ele>
        <time>2021-03-25T13:08:27.000Z</time>
      </trkpt>
      <trkpt lat="45.92136" lon="3.03747">
        <ele>660.68543</ele>
        <time>2021-03-25T13:08:31.000Z</time>
      </trkpt>
      <trkpt lat="45.92137" lon="3.03743">
        <ele>662.68548</ele>
        <time>2021-03-25T13:08:35.000Z</time>
      </trkpt>
      <trkpt lat="45.92141" lon="3.03737">
        <ele>662.68563</ele>
        <time>2021-03-25T13:08:39.000Z</time>
      </trkpt>
      <trkpt lat="45.92143" lon="3.03731">
        <ele>662.6857</ele>
        <time>2021-03-25T13:08:44.000Z</time>
      </trkpt>
      <trkpt lat="45.92145" lon="3.03726">
        <ele>661.68581</ele>
        <time>2021-03-25T13:08:49.000Z</time>
      </trkpt>
      <trkpt lat="45.92151" lon="3.0372">
        <ele>662.68603</ele>
        <time>2021-03-25T13:08:54.000Z</time>
      </trkpt>
      <trkpt lat="45.92156" lon="3.03716">
        <ele>663.68624</ele>
        <time>2021-03-25T13:08:58.000Z</time>
      </trkpt>
      <trkpt lat="45.92162" lon="3.03713">
        <ele>663.68647</ele>
        <time>2021-03-25T13:09:02.000Z</time>
      </trkpt>
      <trkpt lat="45.92166" lon="3.03712">
        <ele>665.68663</ele>
        <time>2021-03-25T13:09:07.000Z</time>
      </trkpt>
      <trkpt lat="45.9217" lon="3.03711">
        <ele>666.68682</ele>
        <time>2021-03-25T13:09:11.000Z</time>
      </trkpt>
      <trkpt lat="45.92175" lon="3.0371">
        <ele>668.68698</ele>
        <time>2021-03-25T13:09:18.000Z</time>
      </trkpt>
      <trkpt lat="45.9218" lon="3.03708">
        <ele>670.68721</ele>
        <time>2021-03-25T13:09:22.000Z</time>
      </trkpt>
      <trkpt lat="45.92185" lon="3.03707">
        <ele>671.68738</ele>
        <time>2021-03-25T13:09:28.000Z</time>
      </trkpt>
      <trkpt lat="45.92188" lon="3.03707">
        <ele>671.68754</ele>
        <time>2021-03-25T13:09:34.000Z</time>
      </trkpt>
      <trkpt lat="45.92192" lon="3.03703">
        <ele>673.68768</ele>
        <time>2021-03-25T13:09:40.000Z</time>
      </trkpt>
      <trkpt lat="45.92194" lon="3.037">
        <ele>675.68777</ele>
        <time>2021-03-25T13:09:44.000Z</time>
      </trkpt>
      <trkpt lat="45.92199" lon="3.03698">
        <ele>675.68794</ele>
        <time>2021-03-25T13:09:48.000Z</time>
      </trkpt>
      <trkpt lat="45.92206" lon="3.03696">
        <ele>675.68824</ele>
        <time>2021-03-25T13:09:52.000Z</time>
      </trkpt>
      <trkpt lat="45.92214" lon="3.03694">
        <ele>676.68854</ele>
        <time>2021-03-25T13:09:57.000Z</time>
      </trkpt>
      <trkpt lat="45.92218" lon="3.03695">
        <ele>679.68871</ele>
        <time>2021-03-25T13:10:02.000Z</time>
      </trkpt>
      <trkpt lat="45.92222" lon="3.03695">
        <ele>679.68888</ele>
        <time>2021-03-25T13:10:06.000Z</time>
      </trkpt>
      <trkpt lat="45.92226" lon="3.03694">
        <ele>679.68905</ele>
        <time>2021-03-25T13:10:10.000Z</time>
      </trkpt>
      <trkpt lat="45.9223" lon="3.03692">
        <ele>677.68918</ele>
        <time>2021-03-25T13:10:26.000Z</time>
      </trkpt>
      <trkpt lat="45.92233" lon="3.0369">
        <ele>677.68932</ele>
        <time>2021-03-25T13:10:30.000Z</time>
      </trkpt>
      <trkpt lat="45.92237" lon="3.03686">
        <ele>679.68946</ele>
        <time>2021-03-25T13:10:35.000Z</time>
      </trkpt>
      <trkpt lat="45.92241" lon="3.03682">
        <ele>679.68964</ele>
        <time>2021-03-25T13:10:40.000Z</time>
      </trkpt>
      <trkpt lat="45.92245" lon="3.03682">
        <ele>675.6898</ele>
        <time>2021-03-25T13:11:08.000Z</time>
      </trkpt>
      <trkpt lat="45.92248" lon="3.03681">
        <ele>673.68991</ele>
        <time>2021-03-25T13:11:14.000Z</time>
      </trkpt>
      <trkpt lat="45.92252" lon="3.03682">
        <ele>673.69009</ele>
        <time>2021-03-25T13:11:18.000Z</time>
      </trkpt>
      <trkpt lat="45.92257" lon="3.03684">
        <ele>674.69027</ele>
        <time>2021-03-25T13:11:21.000Z</time>
      </trkpt>
      <trkpt lat="45.9226" lon="3.03686">
        <ele>674.69042</ele>
        <time>2021-03-25T13:11:27.000Z</time>
      </trkpt>
      <trkpt lat="45.92265" lon="3.03685">
        <ele>674.6906</ele>
        <time>2021-03-25T13:11:32.000Z</time>
      </trkpt>
      <trkpt lat="45.92265" lon="3.03692">
        <ele>668.69059</ele>
        <time>2021-03-25T13:12:21.000Z</time>
      </trkpt>
      <trkpt lat="45.92267" lon="3.03693">
        <ele>663.69068</ele>
        <time>2021-03-25T13:14:44.000Z</time>
      </trkpt>
      <trkpt lat="45.92271" lon="3.03694">
        <ele>668.69084</ele>
        <time>2021-03-25T13:15:15.000Z</time>
      </trkpt>
      <trkpt lat="45.92275" lon="3.03695">
        <ele>669.69098</ele>
        <time>2021-03-25T13:15:24.000Z</time>
      </trkpt>
      <trkpt lat="45.9228" lon="3.03696">
        <ele>669.69121</ele>
        <time>2021-03-25T13:15:28.000Z</time>
      </trkpt>
      <trkpt lat="45.92285" lon="3.03695">
        <ele>670.69138</ele>
        <time>2021-03-25T13:15:34.000Z</time>
      </trkpt>
      <trkpt lat="45.92288" lon="3.03693">
        <ele>672.69151</ele>
        <time>2021-03-25T13:15:38.000Z</time>
      </trkpt>
      <trkpt lat="45.92292" lon="3.03691">
        <ele>673.69166</ele>
        <time>2021-03-25T13:15:43.000Z</time>
      </trkpt>
      <trkpt lat="45.92297" lon="3.03687">
        <ele>674.69187</ele>
        <time>2021-03-25T13:15:47.000Z</time>
      </trkpt>
      <trkpt lat="45.92299" lon="3.03685">
        <ele>674.69196</ele>
        <time>2021-03-25T13:15:51.000Z</time>
      </trkpt>
      <trkpt lat="45.92304" lon="3.0368">
        <ele>676.69216</ele>
        <time>2021-03-25T13:15:56.000Z</time>
      </trkpt>
      <trkpt lat="45.92309" lon="3.03675">
        <ele>677.69234</ele>
        <time>2021-03-25T13:16:00.000Z</time>
      </trkpt>
      <trkpt lat="45.92311" lon="3.0367">
        <ele>675.69245</ele>
        <time>2021-03-25T13:16:05.000Z</time>
      </trkpt>
      <trkpt lat="45.92314" lon="3.03664">
        <ele>676.69256</ele>
        <time>2021-03-25T13:16:09.000Z</time>
      </trkpt>
      <trkpt lat="45.92316" lon="3.03659">
        <ele>675.69264</ele>
        <time>2021-03-25T13:16:14.000Z</time>
      </trkpt>
      <trkpt lat="45.92319" lon="3.03655">
        <ele>675.69277</ele>
        <time>2021-03-25T13:16:19.000Z</time>
      </trkpt>
      <trkpt lat="45.92325" lon="3.0365">
        <ele>675.69298</ele>
        <time>2021-03-25T13:16:23.000Z</time>
      </trkpt>
      <trkpt lat="45.92328" lon="3.03646">
        <ele>675.69312</ele>
        <time>2021-03-25T13:16:27.000Z</time>
      </trkpt>
      <trkpt lat="45.92332" lon="3.03642">
        <ele>674.69328</ele>
        <time>2021-03-25T13:16:32.000Z</time>
      </trkpt>
      <trkpt lat="45.92337" lon="3.03635">
        <ele>675.6935</ele>
        <time>2021-03-25T13:16:36.000Z</time>
      </trkpt>
      <trkpt lat="45.92341" lon="3.03627">
        <ele>676.69364</ele>
        <time>2021-03-25T13:16:40.000Z</time>
      </trkpt>
      <trkpt lat="45.92343" lon="3.0362">
        <ele>675.69373</ele>
        <time>2021-03-25T13:16:44.000Z</time>
      </trkpt>
      <trkpt lat="45.92343" lon="3.0362">
        <ele>675.69373</ele>
        <time>2021-03-25T13:16:44.000Z</time>
      </trkpt>
      <trkpt lat="45.92347" lon="3.03612">
        <ele>674.69387</ele>
        <time>2021-03-25T13:16:49.000Z</time>
      </trkpt>
      <trkpt lat="45.92348" lon="3.03605">
        <ele>672.6939</ele>
        <time>2021-03-25T13:16:54.000Z</time>
      </trkpt>
      <trkpt lat="45.9235" lon="3.03597">
        <ele>672.694</ele>
        <time>2021-03-25T13:16:58.000Z</time>
      </trkpt>
      <trkpt lat="45.92354" lon="3.03589">
        <ele>672.69414</ele>
        <time>2021-03-25T13:17:03.000Z</time>
      </trkpt>
      <trkpt lat="45.92355" lon="3.03583">
        <ele>672.69422</ele>
        <time>2021-03-25T13:17:07.000Z</time>
      </trkpt>
      <trkpt lat="45.92358" lon="3.03577">
        <ele>671.69431</ele>
        <time>2021-03-25T13:17:12.000Z</time>
      </trkpt>
      <trkpt lat="45.92359" lon="3.03571">
        <ele>673.69436</ele>
        <time>2021-03-25T13:17:16.000Z</time>
      </trkpt>
      <trkpt lat="45.92361" lon="3.03564">
        <ele>674.69446</ele>
        <time>2021-03-25T13:17:21.000Z</time>
      </trkpt>
      <trkpt lat="45.92363" lon="3.0356">
        <ele>674.69454</ele>
        <time>2021-03-25T13:17:26.000Z</time>
      </trkpt>
      <trkpt lat="45.92367" lon="3.03554">
        <ele>675.69467</ele>
        <time>2021-03-25T13:17:30.000Z</time>
      </trkpt>
      <trkpt lat="45.9237" lon="3.03546">
        <ele>676.69479</ele>
        <time>2021-03-25T13:17:34.000Z</time>
      </trkpt>
      <trkpt lat="45.9237" lon="3.03538">
        <ele>674.69479</ele>
        <time>2021-03-25T13:17:39.000Z</time>
      </trkpt>
      <trkpt lat="45.92371" lon="3.0353">
        <ele>675.69482</ele>
        <time>2021-03-25T13:17:43.000Z</time>
      </trkpt>
      <trkpt lat="45.92369" lon="3.03524">
        <ele>675.69474</ele>
        <time>2021-03-25T13:17:47.000Z</time>
      </trkpt>
      <trkpt lat="45.9237" lon="3.03516">
        <ele>674.69478</ele>
        <time>2021-03-25T13:17:52.000Z</time>
      </trkpt>
      <trkpt lat="45.92369" lon="3.03511">
        <ele>672.69477</ele>
        <time>2021-03-25T13:17:57.000Z</time>
      </trkpt>
      <trkpt lat="45.92369" lon="3.03503">
        <ele>672.69474</ele>
        <time>2021-03-25T13:18:01.000Z</time>
      </trkpt>
      <trkpt lat="45.92368" lon="3.03497">
        <ele>670.69472</ele>
        <time>2021-03-25T13:18:05.000Z</time>
      </trkpt>
      <trkpt lat="45.92369" lon="3.03491">
        <ele>670.69477</ele>
        <time>2021-03-25T13:18:09.000Z</time>
      </trkpt>
      <trkpt lat="45.92369" lon="3.03484">
        <ele>671.69474</ele>
        <time>2021-03-25T13:18:13.000Z</time>
      </trkpt>
      <trkpt lat="45.92366" lon="3.03477">
        <ele>672.69462</ele>
        <time>2021-03-25T13:18:18.000Z</time>
      </trkpt>
      <trkpt lat="45.92363" lon="3.03469">
        <ele>670.6945</ele>
        <time>2021-03-25T13:18:23.000Z</time>
      </trkpt>
      <trkpt lat="45.9236" lon="3.0346">
        <ele>670.69441</ele>
        <time>2021-03-25T13:18:28.000Z</time>
      </trkpt>
      <trkpt lat="45.92358" lon="3.03453">
        <ele>669.69433</ele>
        <time>2021-03-25T13:18:33.000Z</time>
      </trkpt>
      <trkpt lat="45.92355" lon="3.03447">
        <ele>668.69422</ele>
        <time>2021-03-25T13:18:38.000Z</time>
      </trkpt>
      <trkpt lat="45.92354" lon="3.0344">
        <ele>668.69415</ele>
        <time>2021-03-25T13:18:43.000Z</time>
      </trkpt>
      <trkpt lat="45.92352" lon="3.03434">
        <ele>667.69406</ele>
        <time>2021-03-25T13:18:48.000Z</time>
      </trkpt>
      <trkpt lat="45.9235" lon="3.03425">
        <ele>667.69399</ele>
        <time>2021-03-25T13:18:52.000Z</time>
      </trkpt>
      <trkpt lat="45.9235" lon="3.03416">
        <ele>665.69398</ele>
        <time>2021-03-25T13:18:57.000Z</time>
      </trkpt>
      <trkpt lat="45.9235" lon="3.03409">
        <ele>665.69399</ele>
        <time>2021-03-25T13:19:01.000Z</time>
      </trkpt>
      <trkpt lat="45.92351" lon="3.03403">
        <ele>664.69404</ele>
        <time>2021-03-25T13:19:05.000Z</time>
      </trkpt>
      <trkpt lat="45.92352" lon="3.03395">
        <ele>664.69408</ele>
        <time>2021-03-25T13:19:09.000Z</time>
      </trkpt>
      <trkpt lat="45.92353" lon="3.03386">
        <ele>664.69412</ele>
        <time>2021-03-25T13:19:14.000Z</time>
      </trkpt>
      <trkpt lat="45.92353" lon="3.0338">
        <ele>665.69411</ele>
        <time>2021-03-25T13:19:19.000Z</time>
      </trkpt>
      <trkpt lat="45.92352" lon="3.03374">
        <ele>665.69409</ele>
        <time>2021-03-25T13:19:23.000Z</time>
      </trkpt>
      <trkpt lat="45.92353" lon="3.03365">
        <ele>664.69412</ele>
        <time>2021-03-25T13:19:27.000Z</time>
      </trkpt>
      <trkpt lat="45.92353" lon="3.03357">
        <ele>664.6941</ele>
        <time>2021-03-25T13:19:32.000Z</time>
      </trkpt>
      <trkpt lat="45.92354" lon="3.03348">
        <ele>664.69416</ele>
        <time>2021-03-25T13:19:37.000Z</time>
      </trkpt>
      <trkpt lat="45.92355" lon="3.03338">
        <ele>664.69419</ele>
        <time>2021-03-25T13:19:42.000Z</time>
      </trkpt>
      <trkpt lat="45.92357" lon="3.03332">
        <ele>664.69429</ele>
        <time>2021-03-25T13:19:46.000Z</time>
      </trkpt>
      <trkpt lat="45.92357" lon="3.03332">
        <ele>664.69429</ele>
        <time>2021-03-25T13:19:46.000Z</time>
      </trkpt>
      <trkpt lat="45.92361" lon="3.03324">
        <ele>663.69445</ele>
        <time>2021-03-25T13:19:50.000Z</time>
      </trkpt>
      <trkpt lat="45.92365" lon="3.03316">
        <ele>663.69462</ele>
        <time>2021-03-25T13:19:55.000Z</time>
      </trkpt>
      <trkpt lat="45.92371" lon="3.03312">
        <ele>665.69485</ele>
        <time>2021-03-25T13:20:00.000Z</time>
      </trkpt>
      <trkpt lat="45.92376" lon="3.03308">
        <ele>666.69504</ele>
        <time>2021-03-25T13:20:04.000Z</time>
      </trkpt>
      <trkpt lat="45.92382" lon="3.03307">
        <ele>665.69527</ele>
        <time>2021-03-25T13:20:08.000Z</time>
      </trkpt>
      <trkpt lat="45.92389" lon="3.03306">
        <ele>664.69554</ele>
        <time>2021-03-25T13:20:13.000Z</time>
      </trkpt>
      <trkpt lat="45.92393" lon="3.03303">
        <ele>664.69571</ele>
        <time>2021-03-25T13:20:18.000Z</time>
      </trkpt>
      <trkpt lat="45.92397" lon="3.03299">
        <ele>663.6959</ele>
        <time>2021-03-25T13:20:23.000Z</time>
      </trkpt>
      <trkpt lat="45.92403" lon="3.03291">
        <ele>662.69612</ele>
        <time>2021-03-25T13:20:28.000Z</time>
      </trkpt>
      <trkpt lat="45.92407" lon="3.03285">
        <ele>662.69629</ele>
        <time>2021-03-25T13:20:33.000Z</time>
      </trkpt>
      <trkpt lat="45.92412" lon="3.03281">
        <ele>662.69647</ele>
        <time>2021-03-25T13:20:37.000Z</time>
      </trkpt>
      <trkpt lat="45.92415" lon="3.03276">
        <ele>663.69659</ele>
        <time>2021-03-25T13:20:41.000Z</time>
      </trkpt>
      <trkpt lat="45.92417" lon="3.03271">
        <ele>664.69666</ele>
        <time>2021-03-25T13:20:45.000Z</time>
      </trkpt>
      <trkpt lat="45.9242" lon="3.03265">
        <ele>664.6968</ele>
        <time>2021-03-25T13:20:49.000Z</time>
      </trkpt>
      <trkpt lat="45.92424" lon="3.03259">
        <ele>664.69697</ele>
        <time>2021-03-25T13:20:54.000Z</time>
      </trkpt>
      <trkpt lat="45.92427" lon="3.03254">
        <ele>664.6971</ele>
        <time>2021-03-25T13:20:58.000Z</time>
      </trkpt>
      <trkpt lat="45.92432" lon="3.03247">
        <ele>664.69727</ele>
        <time>2021-03-25T13:21:03.000Z</time>
      </trkpt>
      <trkpt lat="45.92433" lon="3.0324">
        <ele>664.69734</ele>
        <time>2021-03-25T13:21:08.000Z</time>
      </trkpt>
      <trkpt lat="45.92437" lon="3.03233">
        <ele>664.69748</ele>
        <time>2021-03-25T13:21:13.000Z</time>
      </trkpt>
      <trkpt lat="45.92441" lon="3.03226">
        <ele>664.69763</ele>
        <time>2021-03-25T13:21:17.000Z</time>
      </trkpt>
      <trkpt lat="45.92447" lon="3.03217">
        <ele>664.69789</ele>
        <time>2021-03-25T13:21:22.000Z</time>
      </trkpt>
      <trkpt lat="45.92452" lon="3.03209">
        <ele>663.69808</ele>
        <time>2021-03-25T13:21:27.000Z</time>
      </trkpt>
      <trkpt lat="45.92454" lon="3.03203">
        <ele>664.69817</ele>
        <time>2021-03-25T13:21:31.000Z</time>
      </trkpt>
      <trkpt lat="45.92458" lon="3.03197">
        <ele>665.69832</ele>
        <time>2021-03-25T13:21:35.000Z</time>
      </trkpt>
      <trkpt lat="45.92462" lon="3.0319">
        <ele>665.69848</ele>
        <time>2021-03-25T13:21:40.000Z</time>
      </trkpt>
      <trkpt lat="45.92465" lon="3.03184">
        <ele>666.69861</ele>
        <time>2021-03-25T13:21:44.000Z</time>
      </trkpt>
      <trkpt lat="45.92469" lon="3.03178">
        <ele>666.69876</ele>
        <time>2021-03-25T13:21:48.000Z</time>
      </trkpt>
      <trkpt lat="45.92471" lon="3.03174">
        <ele>667.69885</ele>
        <time>2021-03-25T13:21:53.000Z</time>
      </trkpt>
      <trkpt lat="45.92475" lon="3.0317">
        <ele>665.69898</ele>
        <time>2021-03-25T13:21:59.000Z</time>
      </trkpt>
      <trkpt lat="45.92477" lon="3.03166">
        <ele>665.69906</ele>
        <time>2021-03-25T13:22:04.000Z</time>
      </trkpt>
      <trkpt lat="45.92478" lon="3.03159">
        <ele>665.69914</ele>
        <time>2021-03-25T13:22:09.000Z</time>
      </trkpt>
      <trkpt lat="45.92481" lon="3.03154">
        <ele>664.69924</ele>
        <time>2021-03-25T13:22:18.000Z</time>
      </trkpt>
      <trkpt lat="45.92483" lon="3.0315">
        <ele>665.6993</ele>
        <time>2021-03-25T13:22:22.000Z</time>
      </trkpt>
      <trkpt lat="45.92486" lon="3.03142">
        <ele>664.69945</ele>
        <time>2021-03-25T13:22:27.000Z</time>
      </trkpt>
      <trkpt lat="45.9249" lon="3.03138">
        <ele>666.69959</ele>
        <time>2021-03-25T13:22:32.000Z</time>
      </trkpt>
      <trkpt lat="45.92494" lon="3.0313">
        <ele>666.69976</ele>
        <time>2021-03-25T13:22:37.000Z</time>
      </trkpt>
      <trkpt lat="45.92497" lon="3.03128">
        <ele>667.6999</ele>
        <time>2021-03-25T13:22:41.000Z</time>
      </trkpt>
      <trkpt lat="45.92501" lon="3.0312">
        <ele>668.70005</ele>
        <time>2021-03-25T13:22:46.000Z</time>
      </trkpt>
      <trkpt lat="45.92505" lon="3.03114">
        <ele>667.70021</ele>
        <time>2021-03-25T13:22:50.000Z</time>
      </trkpt>
      <trkpt lat="45.92508" lon="3.03107">
        <ele>669.70033</ele>
        <time>2021-03-25T13:22:55.000Z</time>
      </trkpt>
      <trkpt lat="45.92511" lon="3.03102">
        <ele>669.70046</ele>
        <time>2021-03-25T13:22:59.000Z</time>
      </trkpt>
      <trkpt lat="45.92515" lon="3.03098">
        <ele>669.7006</ele>
        <time>2021-03-25T13:23:05.000Z</time>
      </trkpt>
      <trkpt lat="45.92519" lon="3.03093">
        <ele>669.70075</ele>
        <time>2021-03-25T13:23:09.000Z</time>
      </trkpt>
      <trkpt lat="45.92523" lon="3.03089">
        <ele>669.70094</ele>
        <time>2021-03-25T13:23:13.000Z</time>
      </trkpt>
      <trkpt lat="45.9253" lon="3.03084">
        <ele>669.70118</ele>
        <time>2021-03-25T13:23:17.000Z</time>
      </trkpt>
      <trkpt lat="45.92533" lon="3.03076">
        <ele>669.7013</ele>
        <time>2021-03-25T13:23:22.000Z</time>
      </trkpt>
      <trkpt lat="45.92533" lon="3.0307">
        <ele>668.70131</ele>
        <time>2021-03-25T13:23:26.000Z</time>
      </trkpt>
      <trkpt lat="45.92534" lon="3.03065">
        <ele>667.70135</ele>
        <time>2021-03-25T13:23:30.000Z</time>
      </trkpt>
      <trkpt lat="45.92533" lon="3.03059">
        <ele>667.70133</ele>
        <time>2021-03-25T13:23:35.000Z</time>
      </trkpt>
      <trkpt lat="45.92533" lon="3.03059">
        <ele>667.70133</ele>
        <time>2021-03-25T13:23:35.000Z</time>
      </trkpt>
      <trkpt lat="45.92533" lon="3.03052">
        <ele>668.70133</ele>
        <time>2021-03-25T13:23:39.000Z</time>
      </trkpt>
      <trkpt lat="45.92533" lon="3.03043">
        <ele>668.70132</ele>
        <time>2021-03-25T13:23:43.000Z</time>
      </trkpt>
      <trkpt lat="45.92533" lon="3.03035">
        <ele>667.70131</ele>
        <time>2021-03-25T13:23:48.000Z</time>
      </trkpt>
      <trkpt lat="45.92534" lon="3.03029">
        <ele>667.70135</ele>
        <time>2021-03-25T13:23:52.000Z</time>
      </trkpt>
      <trkpt lat="45.92536" lon="3.03021">
        <ele>667.70145</ele>
        <time>2021-03-25T13:23:56.000Z</time>
      </trkpt>
      <trkpt lat="45.92538" lon="3.03014">
        <ele>668.70152</ele>
        <time>2021-03-25T13:24:00.000Z</time>
      </trkpt>
      <trkpt lat="45.9254" lon="3.03006">
        <ele>668.70158</ele>
        <time>2021-03-25T13:24:05.000Z</time>
      </trkpt>
      <trkpt lat="45.92542" lon="3.02998">
        <ele>667.70168</ele>
        <time>2021-03-25T13:24:10.000Z</time>
      </trkpt>
      <trkpt lat="45.92544" lon="3.02989">
        <ele>668.70175</ele>
        <time>2021-03-25T13:24:14.000Z</time>
      </trkpt>
      <trkpt lat="45.92545" lon="3.02978">
        <ele>667.70179</ele>
        <time>2021-03-25T13:24:19.000Z</time>
      </trkpt>
      <trkpt lat="45.92546" lon="3.0297">
        <ele>667.70183</ele>
        <time>2021-03-25T13:24:24.000Z</time>
      </trkpt>
      <trkpt lat="45.92547" lon="3.02961">
        <ele>666.70189</ele>
        <time>2021-03-25T13:24:28.000Z</time>
      </trkpt>
      <trkpt lat="45.92547" lon="3.02954">
        <ele>667.70188</ele>
        <time>2021-03-25T13:24:32.000Z</time>
      </trkpt>
      <trkpt lat="45.92548" lon="3.02946">
        <ele>667.70192</ele>
        <time>2021-03-25T13:24:37.000Z</time>
      </trkpt>
      <trkpt lat="45.92548" lon="3.0294">
        <ele>667.70191</ele>
        <time>2021-03-25T13:24:41.000Z</time>
      </trkpt>
      <trkpt lat="45.92547" lon="3.02932">
        <ele>666.70188</ele>
        <time>2021-03-25T13:24:46.000Z</time>
      </trkpt>
      <trkpt lat="45.92547" lon="3.02925">
        <ele>666.70187</ele>
        <time>2021-03-25T13:24:50.000Z</time>
      </trkpt>
      <trkpt lat="45.92547" lon="3.02916">
        <ele>667.70187</ele>
        <time>2021-03-25T13:24:54.000Z</time>
      </trkpt>
      <trkpt lat="45.92546" lon="3.0291">
        <ele>666.70185</ele>
        <time>2021-03-25T13:24:59.000Z</time>
      </trkpt>
      <trkpt lat="45.92548" lon="3.029">
        <ele>667.70191</ele>
        <time>2021-03-25T13:25:04.000Z</time>
      </trkpt>
      <trkpt lat="45.92546" lon="3.02892">
        <ele>667.70185</ele>
        <time>2021-03-25T13:25:08.000Z</time>
      </trkpt>
      <trkpt lat="45.92543" lon="3.02883">
        <ele>666.70173</ele>
        <time>2021-03-25T13:25:13.000Z</time>
      </trkpt>
      <trkpt lat="45.92542" lon="3.02877">
        <ele>666.70166</ele>
        <time>2021-03-25T13:25:17.000Z</time>
      </trkpt>
      <trkpt lat="45.92541" lon="3.02868">
        <ele>667.70165</ele>
        <time>2021-03-25T13:25:21.000Z</time>
      </trkpt>
      <trkpt lat="45.92541" lon="3.0286">
        <ele>668.70165</ele>
        <time>2021-03-25T13:25:26.000Z</time>
      </trkpt>
      <trkpt lat="45.9254" lon="3.02851">
        <ele>669.7016</ele>
        <time>2021-03-25T13:25:31.000Z</time>
      </trkpt>
      <trkpt lat="45.92541" lon="3.02843">
        <ele>669.70164</ele>
        <time>2021-03-25T13:25:35.000Z</time>
      </trkpt>
      <trkpt lat="45.9254" lon="3.02836">
        <ele>670.70161</ele>
        <time>2021-03-25T13:25:39.000Z</time>
      </trkpt>
      <trkpt lat="45.92539" lon="3.02829">
        <ele>669.70155</ele>
        <time>2021-03-25T13:25:44.000Z</time>
      </trkpt>
      <trkpt lat="45.92538" lon="3.02821">
        <ele>670.70153</ele>
        <time>2021-03-25T13:25:48.000Z</time>
      </trkpt>
      <trkpt lat="45.92538" lon="3.02813">
        <ele>669.70151</ele>
        <time>2021-03-25T13:25:53.000Z</time>
      </trkpt>
      <trkpt lat="45.92535" lon="3.02805">
        <ele>667.70141</ele>
        <time>2021-03-25T13:25:57.000Z</time>
      </trkpt>
      <trkpt lat="45.92533" lon="3.028">
        <ele>667.70133</ele>
        <time>2021-03-25T13:26:01.000Z</time>
      </trkpt>
      <trkpt lat="45.92532" lon="3.02791">
        <ele>667.70128</ele>
        <time>2021-03-25T13:26:06.000Z</time>
      </trkpt>
      <trkpt lat="45.9253" lon="3.02783">
        <ele>667.70121</ele>
        <time>2021-03-25T13:26:10.000Z</time>
      </trkpt>
      <trkpt lat="45.92529" lon="3.02772">
        <ele>666.70116</ele>
        <time>2021-03-25T13:26:15.000Z</time>
      </trkpt>
      <trkpt lat="45.92528" lon="3.02764">
        <ele>666.70113</ele>
        <time>2021-03-25T13:26:20.000Z</time>
      </trkpt>
      <trkpt lat="45.92529" lon="3.02757">
        <ele>667.70115</ele>
        <time>2021-03-25T13:26:24.000Z</time>
      </trkpt>
      <trkpt lat="45.92529" lon="3.0275">
        <ele>667.70116</ele>
        <time>2021-03-25T13:26:28.000Z</time>
      </trkpt>
      <trkpt lat="45.92529" lon="3.02743">
        <ele>667.70116</ele>
        <time>2021-03-25T13:26:32.000Z</time>
      </trkpt>
      <trkpt lat="45.92529" lon="3.02737">
        <ele>667.70118</ele>
        <time>2021-03-25T13:26:36.000Z</time>
      </trkpt>
      <trkpt lat="45.92527" lon="3.02726">
        <ele>667.70109</ele>
        <time>2021-03-25T13:26:41.000Z</time>
      </trkpt>
      <trkpt lat="45.92525" lon="3.02716">
        <ele>669.70102</ele>
        <time>2021-03-25T13:26:46.000Z</time>
      </trkpt>
      <trkpt lat="45.92526" lon="3.02707">
        <ele>668.70102</ele>
        <time>2021-03-25T13:26:51.000Z</time>
      </trkpt>
      <trkpt lat="45.92525" lon="3.02698">
        <ele>669.70098</ele>
        <time>2021-03-25T13:26:56.000Z</time>
      </trkpt>
      <trkpt lat="45.92524" lon="3.02688">
        <ele>668.70098</ele>
        <time>2021-03-25T13:27:01.000Z</time>
      </trkpt>
      <trkpt lat="45.92525" lon="3.02681">
        <ele>667.70101</ele>
        <time>2021-03-25T13:27:05.000Z</time>
      </trkpt>
      <trkpt lat="45.92525" lon="3.02675">
        <ele>667.70101</ele>
        <time>2021-03-25T13:27:09.000Z</time>
      </trkpt>
      <trkpt lat="45.92525" lon="3.02667">
        <ele>668.70101</ele>
        <time>2021-03-25T13:27:13.000Z</time>
      </trkpt>
      <trkpt lat="45.92525" lon="3.0266">
        <ele>668.701</ele>
        <time>2021-03-25T13:27:17.000Z</time>
      </trkpt>
      <trkpt lat="45.92524" lon="3.02652">
        <ele>669.70097</ele>
        <time>2021-03-25T13:27:22.000Z</time>
      </trkpt>
      <trkpt lat="45.92525" lon="3.02643">
        <ele>668.70098</ele>
        <time>2021-03-25T13:27:27.000Z</time>
      </trkpt>
      <trkpt lat="45.92525" lon="3.02636">
        <ele>667.70101</ele>
        <time>2021-03-25T13:27:31.000Z</time>
      </trkpt>
      <trkpt lat="45.92526" lon="3.02627">
        <ele>668.70106</ele>
        <time>2021-03-25T13:27:35.000Z</time>
      </trkpt>
      <trkpt lat="45.92528" lon="3.02617">
        <ele>667.70112</ele>
        <time>2021-03-25T13:27:40.000Z</time>
      </trkpt>
      <trkpt lat="45.9253" lon="3.02608">
        <ele>667.70119</ele>
        <time>2021-03-25T13:27:45.000Z</time>
      </trkpt>
      <trkpt lat="45.92531" lon="3.02601">
        <ele>668.70124</ele>
        <time>2021-03-25T13:27:49.000Z</time>
      </trkpt>
      <trkpt lat="45.92533" lon="3.02591">
        <ele>668.70132</ele>
        <time>2021-03-25T13:27:54.000Z</time>
      </trkpt>
      <trkpt lat="45.92535" lon="3.02582">
        <ele>668.70138</ele>
        <time>2021-03-25T13:27:59.000Z</time>
      </trkpt>
      <trkpt lat="45.92536" lon="3.02575">
        <ele>668.70142</ele>
        <time>2021-03-25T13:28:03.000Z</time>
      </trkpt>
      <trkpt lat="45.92537" lon="3.0257">
        <ele>668.70146</ele>
        <time>2021-03-25T13:28:07.000Z</time>
      </trkpt>
      <trkpt lat="45.92537" lon="3.02563">
        <ele>668.70148</ele>
        <time>2021-03-25T13:28:11.000Z</time>
      </trkpt>
      <trkpt lat="45.92537" lon="3.02556">
        <ele>669.70149</ele>
        <time>2021-03-25T13:28:15.000Z</time>
      </trkpt>
      <trkpt lat="45.92538" lon="3.02549">
        <ele>671.70151</ele>
        <time>2021-03-25T13:28:20.000Z</time>
      </trkpt>
      <trkpt lat="45.9254" lon="3.02543">
        <ele>671.70161</ele>
        <time>2021-03-25T13:28:24.000Z</time>
      </trkpt>
      <trkpt lat="45.92541" lon="3.02537">
        <ele>672.70162</ele>
        <time>2021-03-25T13:28:28.000Z</time>
      </trkpt>
      <trkpt lat="45.92543" lon="3.02529">
        <ele>672.70172</ele>
        <time>2021-03-25T13:28:32.000Z</time>
      </trkpt>
      <trkpt lat="45.92544" lon="3.02522">
        <ele>672.70175</ele>
        <time>2021-03-25T13:28:36.000Z</time>
      </trkpt>
      <trkpt lat="45.92546" lon="3.02515">
        <ele>673.70182</ele>
        <time>2021-03-25T13:28:41.000Z</time>
      </trkpt>
      <trkpt lat="45.92547" lon="3.02505">
        <ele>674.70189</ele>
        <time>2021-03-25T13:28:46.000Z</time>
      </trkpt>
      <trkpt lat="45.92549" lon="3.02498">
        <ele>674.70196</ele>
        <time>2021-03-25T13:28:50.000Z</time>
      </trkpt>
      <trkpt lat="45.92551" lon="3.02489">
        <ele>674.70202</ele>
        <time>2021-03-25T13:28:54.000Z</time>
      </trkpt>
      <trkpt lat="45.92548" lon="3.02482">
        <ele>675.70193</ele>
        <time>2021-03-25T13:28:59.000Z</time>
      </trkpt>
      <trkpt lat="45.92547" lon="3.02475">
        <ele>675.70186</ele>
        <time>2021-03-25T13:29:03.000Z</time>
      </trkpt>
      <trkpt lat="45.92547" lon="3.02465">
        <ele>674.70187</ele>
        <time>2021-03-25T13:29:08.000Z</time>
      </trkpt>
      <trkpt lat="45.92544" lon="3.02458">
        <ele>675.70177</ele>
        <time>2021-03-25T13:29:12.000Z</time>
      </trkpt>
      <trkpt lat="45.92542" lon="3.02451">
        <ele>675.7017</ele>
        <time>2021-03-25T13:29:17.000Z</time>
      </trkpt>
      <trkpt lat="45.92542" lon="3.02445">
        <ele>676.70168</ele>
        <time>2021-03-25T13:29:23.000Z</time>
      </trkpt>
      <trkpt lat="45.92542" lon="3.02436">
        <ele>677.70169</ele>
        <time>2021-03-25T13:29:28.000Z</time>
      </trkpt>
      <trkpt lat="45.9254" lon="3.02428">
        <ele>676.70159</ele>
        <time>2021-03-25T13:29:33.000Z</time>
      </trkpt>
      <trkpt lat="45.92539" lon="3.02425">
        <ele>680.70154</ele>
        <time>2021-03-25T13:29:37.000Z</time>
      </trkpt>
      <trkpt lat="45.92536" lon="3.02415">
        <ele>682.70144</ele>
        <time>2021-03-25T13:29:41.000Z</time>
      </trkpt>
      <trkpt lat="45.92536" lon="3.02408">
        <ele>682.70146</ele>
        <time>2021-03-25T13:29:45.000Z</time>
      </trkpt>
      <trkpt lat="45.92536" lon="3.024">
        <ele>680.70145</ele>
        <time>2021-03-25T13:29:50.000Z</time>
      </trkpt>
      <trkpt lat="45.92537" lon="3.02394">
        <ele>680.70147</ele>
        <time>2021-03-25T13:29:56.000Z</time>
      </trkpt>
      <trkpt lat="45.92538" lon="3.02388">
        <ele>680.70153</ele>
        <time>2021-03-25T13:30:02.000Z</time>
      </trkpt>
      <trkpt lat="45.92537" lon="3.02383">
        <ele>680.70146</ele>
        <time>2021-03-25T13:30:06.000Z</time>
      </trkpt>
      <trkpt lat="45.92534" lon="3.02374">
        <ele>681.70136</ele>
        <time>2021-03-25T13:30:11.000Z</time>
      </trkpt>
      <trkpt lat="45.92533" lon="3.02369">
        <ele>681.70131</ele>
        <time>2021-03-25T13:30:15.000Z</time>
      </trkpt>
      <trkpt lat="45.9253" lon="3.02364">
        <ele>681.70121</ele>
        <time>2021-03-25T13:30:19.000Z</time>
      </trkpt>
      <trkpt lat="45.92527" lon="3.02357">
        <ele>681.7011</ele>
        <time>2021-03-25T13:30:23.000Z</time>
      </trkpt>
      <trkpt lat="45.92522" lon="3.02351">
        <ele>683.70086</ele>
        <time>2021-03-25T13:30:28.000Z</time>
      </trkpt>
      <trkpt lat="45.92516" lon="3.02344">
        <ele>683.70063</ele>
        <time>2021-03-25T13:30:33.000Z</time>
      </trkpt>
      <trkpt lat="45.92511" lon="3.02337">
        <ele>683.70044</ele>
        <time>2021-03-25T13:30:38.000Z</time>
      </trkpt>
      <trkpt lat="45.92508" lon="3.02331">
        <ele>684.70034</ele>
        <time>2021-03-25T13:30:42.000Z</time>
      </trkpt>
      <trkpt lat="45.92506" lon="3.02325">
        <ele>683.70023</ele>
        <time>2021-03-25T13:30:46.000Z</time>
      </trkpt>
      <trkpt lat="45.92503" lon="3.02318">
        <ele>684.7001</ele>
        <time>2021-03-25T13:30:51.000Z</time>
      </trkpt>
      <trkpt lat="45.92498" lon="3.02314">
        <ele>685.69992</ele>
        <time>2021-03-25T13:30:56.000Z</time>
      </trkpt>
      <trkpt lat="45.92495" lon="3.02309">
        <ele>686.69981</ele>
        <time>2021-03-25T13:31:00.000Z</time>
      </trkpt>
      <trkpt lat="45.92494" lon="3.02303">
        <ele>687.69976</ele>
        <time>2021-03-25T13:31:04.000Z</time>
      </trkpt>
      <trkpt lat="45.92494" lon="3.02295">
        <ele>687.69974</ele>
        <time>2021-03-25T13:31:08.000Z</time>
      </trkpt>
      <trkpt lat="45.92493" lon="3.0229">
        <ele>687.69974</ele>
        <time>2021-03-25T13:31:12.000Z</time>
      </trkpt>
      <trkpt lat="45.92494" lon="3.02283">
        <ele>688.69974</ele>
        <time>2021-03-25T13:31:17.000Z</time>
      </trkpt>
      <trkpt lat="45.92493" lon="3.02276">
        <ele>689.69973</ele>
        <time>2021-03-25T13:31:21.000Z</time>
      </trkpt>
      <trkpt lat="45.92494" lon="3.02267">
        <ele>690.69977</ele>
        <time>2021-03-25T13:31:26.000Z</time>
      </trkpt>
      <trkpt lat="45.92496" lon="3.02259">
        <ele>691.69984</ele>
        <time>2021-03-25T13:31:31.000Z</time>
      </trkpt>
      <trkpt lat="45.92498" lon="3.02249">
        <ele>690.69991</ele>
        <time>2021-03-25T13:31:36.000Z</time>
      </trkpt>
      <trkpt lat="45.92499" lon="3.02242">
        <ele>689.69996</ele>
        <time>2021-03-25T13:31:41.000Z</time>
      </trkpt>
      <trkpt lat="45.925" lon="3.02237">
        <ele>691.69999</ele>
        <time>2021-03-25T13:31:45.000Z</time>
      </trkpt>
      <trkpt lat="45.925" lon="3.02229">
        <ele>691.70001</ele>
        <time>2021-03-25T13:31:50.000Z</time>
      </trkpt>
      <trkpt lat="45.92502" lon="3.02222">
        <ele>690.70007</ele>
        <time>2021-03-25T13:31:54.000Z</time>
      </trkpt>
      <trkpt lat="45.92502" lon="3.02213">
        <ele>690.70008</ele>
        <time>2021-03-25T13:31:59.000Z</time>
      </trkpt>
      <trkpt lat="45.92503" lon="3.02205">
        <ele>690.70011</ele>
        <time>2021-03-25T13:32:03.000Z</time>
      </trkpt>
      <trkpt lat="45.92501" lon="3.022">
        <ele>691.70004</ele>
        <time>2021-03-25T13:32:07.000Z</time>
      </trkpt>
      <trkpt lat="45.92501" lon="3.02191">
        <ele>692.70002</ele>
        <time>2021-03-25T13:32:11.000Z</time>
      </trkpt>
      <trkpt lat="45.92501" lon="3.02181">
        <ele>693.70004</ele>
        <time>2021-03-25T13:32:16.000Z</time>
      </trkpt>
      <trkpt lat="45.92501" lon="3.02174">
        <ele>694.70003</ele>
        <time>2021-03-25T13:32:21.000Z</time>
      </trkpt>
      <trkpt lat="45.925" lon="3.0217">
        <ele>697.70001</ele>
        <time>2021-03-25T13:32:24.000Z</time>
      </trkpt>
      <trkpt lat="45.92496" lon="3.02163">
        <ele>700.69984</ele>
        <time>2021-03-25T13:32:29.000Z</time>
      </trkpt>
      <trkpt lat="45.92497" lon="3.02156">
        <ele>697.69986</ele>
        <time>2021-03-25T13:32:33.000Z</time>
      </trkpt>
      <trkpt lat="45.92497" lon="3.02149">
        <ele>696.69987</ele>
        <time>2021-03-25T13:32:37.000Z</time>
      </trkpt>
      <trkpt lat="45.92498" lon="3.02143">
        <ele>702.69992</ele>
        <time>2021-03-25T13:32:42.000Z</time>
      </trkpt>
      <trkpt lat="45.92495" lon="3.02134">
        <ele>707.6998</ele>
        <time>2021-03-25T13:32:46.000Z</time>
      </trkpt>
      <trkpt lat="45.92491" lon="3.02128">
        <ele>712.69964</ele>
        <time>2021-03-25T13:32:51.000Z</time>
      </trkpt>
      <trkpt lat="45.92493" lon="3.0212">
        <ele>708.69971</ele>
        <time>2021-03-25T13:32:55.000Z</time>
      </trkpt>
      <trkpt lat="45.92492" lon="3.02111">
        <ele>706.69969</ele>
        <time>2021-03-25T13:32:59.000Z</time>
      </trkpt>
      <trkpt lat="45.92492" lon="3.02104">
        <ele>705.69967</ele>
        <time>2021-03-25T13:33:03.000Z</time>
      </trkpt>
      <trkpt lat="45.92489" lon="3.021">
        <ele>710.69956</ele>
        <time>2021-03-25T13:33:08.000Z</time>
      </trkpt>
      <trkpt lat="45.92487" lon="3.02093">
        <ele>709.69946</ele>
        <time>2021-03-25T13:33:13.000Z</time>
      </trkpt>
      <trkpt lat="45.92489" lon="3.02085">
        <ele>706.69954</ele>
        <time>2021-03-25T13:33:18.000Z</time>
      </trkpt>
      <trkpt lat="45.92487" lon="3.02076">
        <ele>703.6995</ele>
        <time>2021-03-25T13:33:22.000Z</time>
      </trkpt>
      <trkpt lat="45.92486" lon="3.02064">
        <ele>701.69943</ele>
        <time>2021-03-25T13:33:27.000Z</time>
      </trkpt>
      <trkpt lat="45.92485" lon="3.02056">
        <ele>698.69939</ele>
        <time>2021-03-25T13:33:31.000Z</time>
      </trkpt>
      <trkpt lat="45.92483" lon="3.02047">
        <ele>697.69933</ele>
        <time>2021-03-25T13:33:36.000Z</time>
      </trkpt>
      <trkpt lat="45.92483" lon="3.02047">
        <ele>697.69933</ele>
        <time>2021-03-25T13:33:36.000Z</time>
      </trkpt>
      <trkpt lat="45.92481" lon="3.02039">
        <ele>697.69925</ele>
        <time>2021-03-25T13:33:41.000Z</time>
      </trkpt>
      <trkpt lat="45.92478" lon="3.02033">
        <ele>696.69911</ele>
        <time>2021-03-25T13:33:46.000Z</time>
      </trkpt>
      <trkpt lat="45.92475" lon="3.02026">
        <ele>696.69901</ele>
        <time>2021-03-25T13:33:50.000Z</time>
      </trkpt>
      <trkpt lat="45.92471" lon="3.0202">
        <ele>695.69882</ele>
        <time>2021-03-25T13:33:55.000Z</time>
      </trkpt>
      <trkpt lat="45.92469" lon="3.02015">
        <ele>695.69876</ele>
        <time>2021-03-25T13:33:59.000Z</time>
      </trkpt>
      <trkpt lat="45.92466" lon="3.02011">
        <ele>695.69863</ele>
        <time>2021-03-25T13:34:03.000Z</time>
      </trkpt>
      <trkpt lat="45.92463" lon="3.02002">
        <ele>695.69851</ele>
        <time>2021-03-25T13:34:08.000Z</time>
      </trkpt>
      <trkpt lat="45.9246" lon="3.01995">
        <ele>694.69841</ele>
        <time>2021-03-25T13:34:12.000Z</time>
      </trkpt>
      <trkpt lat="45.92457" lon="3.01989">
        <ele>694.69827</ele>
        <time>2021-03-25T13:34:16.000Z</time>
      </trkpt>
      <trkpt lat="45.92453" lon="3.0198">
        <ele>694.69811</ele>
        <time>2021-03-25T13:34:21.000Z</time>
      </trkpt>
      <trkpt lat="45.92449" lon="3.0197">
        <ele>695.69797</ele>
        <time>2021-03-25T13:34:26.000Z</time>
      </trkpt>
      <trkpt lat="45.92447" lon="3.01962">
        <ele>694.69787</ele>
        <time>2021-03-25T13:34:31.000Z</time>
      </trkpt>
      <trkpt lat="45.92443" lon="3.01956">
        <ele>693.69773</ele>
        <time>2021-03-25T13:34:35.000Z</time>
      </trkpt>
      <trkpt lat="45.9244" lon="3.01951">
        <ele>694.69759</ele>
        <time>2021-03-25T13:34:39.000Z</time>
      </trkpt>
      <trkpt lat="45.92437" lon="3.01942">
        <ele>693.69748</ele>
        <time>2021-03-25T13:34:44.000Z</time>
      </trkpt>
      <trkpt lat="45.92435" lon="3.01939">
        <ele>693.6974</ele>
        <time>2021-03-25T13:34:48.000Z</time>
      </trkpt>
      <trkpt lat="45.92432" lon="3.01932">
        <ele>692.69727</ele>
        <time>2021-03-25T13:34:53.000Z</time>
      </trkpt>
      <trkpt lat="45.92429" lon="3.01926">
        <ele>691.69717</ele>
        <time>2021-03-25T13:34:57.000Z</time>
      </trkpt>
      <trkpt lat="45.92427" lon="3.01922">
        <ele>689.69708</ele>
        <time>2021-03-25T13:35:01.000Z</time>
      </trkpt>
      <trkpt lat="45.92424" lon="3.01915">
        <ele>689.69697</ele>
        <time>2021-03-25T13:35:05.000Z</time>
      </trkpt>
      <trkpt lat="45.92421" lon="3.0191">
        <ele>689.69683</ele>
        <time>2021-03-25T13:35:09.000Z</time>
      </trkpt>
      <trkpt lat="45.92417" lon="3.01903">
        <ele>689.69669</ele>
        <time>2021-03-25T13:35:13.000Z</time>
      </trkpt>
      <trkpt lat="45.92413" lon="3.01895">
        <ele>689.6965</ele>
        <time>2021-03-25T13:35:18.000Z</time>
      </trkpt>
      <trkpt lat="45.9241" lon="3.01887">
        <ele>690.69638</ele>
        <time>2021-03-25T13:35:23.000Z</time>
      </trkpt>
      <trkpt lat="45.92405" lon="3.01879">
        <ele>690.69621</ele>
        <time>2021-03-25T13:35:28.000Z</time>
      </trkpt>
      <trkpt lat="45.92402" lon="3.01873">
        <ele>690.69606</ele>
        <time>2021-03-25T13:35:32.000Z</time>
      </trkpt>
      <trkpt lat="45.924" lon="3.01865">
        <ele>690.69601</ele>
        <time>2021-03-25T13:35:37.000Z</time>
      </trkpt>
      <trkpt lat="45.92398" lon="3.01855">
        <ele>690.69594</ele>
        <time>2021-03-25T13:35:42.000Z</time>
      </trkpt>
      <trkpt lat="45.92396" lon="3.01847">
        <ele>690.69585</ele>
        <time>2021-03-25T13:35:47.000Z</time>
      </trkpt>
      <trkpt lat="45.92394" lon="3.01841">
        <ele>690.69577</ele>
        <time>2021-03-25T13:35:51.000Z</time>
      </trkpt>
      <trkpt lat="45.92392" lon="3.01833">
        <ele>690.69569</ele>
        <time>2021-03-25T13:35:56.000Z</time>
      </trkpt>
      <trkpt lat="45.92391" lon="3.01824">
        <ele>690.69566</ele>
        <time>2021-03-25T13:36:01.000Z</time>
      </trkpt>
      <trkpt lat="45.92389" lon="3.01817">
        <ele>690.69555</ele>
        <time>2021-03-25T13:36:06.000Z</time>
      </trkpt>
      <trkpt lat="45.92389" lon="3.0181">
        <ele>690.69555</ele>
        <time>2021-03-25T13:36:10.000Z</time>
      </trkpt>
      <trkpt lat="45.92388" lon="3.01802">
        <ele>690.6955</ele>
        <time>2021-03-25T13:36:14.000Z</time>
      </trkpt>
      <trkpt lat="45.92385" lon="3.01791">
        <ele>692.6954</ele>
        <time>2021-03-25T13:36:19.000Z</time>
      </trkpt>
      <trkpt lat="45.92383" lon="3.01785">
        <ele>691.69534</ele>
        <time>2021-03-25T13:36:23.000Z</time>
      </trkpt>
      <trkpt lat="45.92383" lon="3.01777">
        <ele>691.6953</ele>
        <time>2021-03-25T13:36:27.000Z</time>
      </trkpt>
      <trkpt lat="45.92381" lon="3.0177">
        <ele>690.69524</ele>
        <time>2021-03-25T13:36:32.000Z</time>
      </trkpt>
      <trkpt lat="45.9238" lon="3.01762">
        <ele>690.6952</ele>
        <time>2021-03-25T13:36:36.000Z</time>
      </trkpt>
      <trkpt lat="45.9238" lon="3.01754">
        <ele>691.69521</ele>
        <time>2021-03-25T13:36:40.000Z</time>
      </trkpt>
      <trkpt lat="45.92379" lon="3.01749">
        <ele>691.69516</ele>
        <time>2021-03-25T13:36:44.000Z</time>
      </trkpt>
      <trkpt lat="45.92377" lon="3.0174">
        <ele>691.69507</ele>
        <time>2021-03-25T13:36:49.000Z</time>
      </trkpt>
      <trkpt lat="45.92373" lon="3.01731">
        <ele>691.69491</ele>
        <time>2021-03-25T13:36:54.000Z</time>
      </trkpt>
      <trkpt lat="45.9237" lon="3.01727">
        <ele>691.69481</ele>
        <time>2021-03-25T13:36:58.000Z</time>
      </trkpt>
      <trkpt lat="45.92368" lon="3.01722">
        <ele>692.6947</ele>
        <time>2021-03-25T13:37:02.000Z</time>
      </trkpt>
      <trkpt lat="45.92366" lon="3.01717">
        <ele>692.69464</ele>
        <time>2021-03-25T13:37:06.000Z</time>
      </trkpt>
      <trkpt lat="45.92365" lon="3.01709">
        <ele>691.6946</ele>
        <time>2021-03-25T13:37:10.000Z</time>
      </trkpt>
      <trkpt lat="45.92365" lon="3.017">
        <ele>691.69459</ele>
        <time>2021-03-25T13:37:15.000Z</time>
      </trkpt>
      <trkpt lat="45.92363" lon="3.0169">
        <ele>690.69454</ele>
        <time>2021-03-25T13:37:20.000Z</time>
      </trkpt>
      <trkpt lat="45.92362" lon="3.01683">
        <ele>689.6945</ele>
        <time>2021-03-25T13:37:24.000Z</time>
      </trkpt>
      <trkpt lat="45.92362" lon="3.01675">
        <ele>689.69448</ele>
        <time>2021-03-25T13:37:28.000Z</time>
      </trkpt>
      <trkpt lat="45.92362" lon="3.01666">
        <ele>688.69446</ele>
        <time>2021-03-25T13:37:33.000Z</time>
      </trkpt>
      <trkpt lat="45.92361" lon="3.0166">
        <ele>688.69443</ele>
        <time>2021-03-25T13:37:37.000Z</time>
      </trkpt>
      <trkpt lat="45.92361" lon="3.01653">
        <ele>689.69442</ele>
        <time>2021-03-25T13:37:42.000Z</time>
      </trkpt>
      <trkpt lat="45.92363" lon="3.01643">
        <ele>689.69451</ele>
        <time>2021-03-25T13:37:47.000Z</time>
      </trkpt>
      <trkpt lat="45.92366" lon="3.01634">
        <ele>689.69463</ele>
        <time>2021-03-25T13:37:52.000Z</time>
      </trkpt>
      <trkpt lat="45.92367" lon="3.01626">
        <ele>690.69469</ele>
        <time>2021-03-25T13:37:56.000Z</time>
      </trkpt>
      <trkpt lat="45.92368" lon="3.0162">
        <ele>691.69473</ele>
        <time>2021-03-25T13:38:00.000Z</time>
      </trkpt>
      <trkpt lat="45.92369" lon="3.01611">
        <ele>690.69476</ele>
        <time>2021-03-25T13:38:05.000Z</time>
      </trkpt>
      <trkpt lat="45.92369" lon="3.01606">
        <ele>690.69476</ele>
        <time>2021-03-25T13:38:10.000Z</time>
      </trkpt>
      <trkpt lat="45.92368" lon="3.016">
        <ele>688.69472</ele>
        <time>2021-03-25T13:38:15.000Z</time>
      </trkpt>
      <trkpt lat="45.92366" lon="3.01593">
        <ele>687.69464</ele>
        <time>2021-03-25T13:38:19.000Z</time>
      </trkpt>
      <trkpt lat="45.92363" lon="3.01583">
        <ele>684.69452</ele>
        <time>2021-03-25T13:38:24.000Z</time>
      </trkpt>
      <trkpt lat="45.92361" lon="3.01576">
        <ele>683.69445</ele>
        <time>2021-03-25T13:38:29.000Z</time>
      </trkpt>
      <trkpt lat="45.9236" lon="3.0157">
        <ele>684.69438</ele>
        <time>2021-03-25T13:38:33.000Z</time>
      </trkpt>
      <trkpt lat="45.92356" lon="3.01568">
        <ele>683.69425</ele>
        <time>2021-03-25T13:38:37.000Z</time>
      </trkpt>
      <trkpt lat="45.92356" lon="3.01568">
        <ele>683.69425</ele>
        <time>2021-03-25T13:38:37.000Z</time>
      </trkpt>
      <trkpt lat="45.92351" lon="3.01565">
        <ele>684.69405</ele>
        <time>2021-03-25T13:38:42.000Z</time>
      </trkpt>
      <trkpt lat="45.9235" lon="3.0156">
        <ele>684.69398</ele>
        <time>2021-03-25T13:38:46.000Z</time>
      </trkpt>
      <trkpt lat="45.92346" lon="3.01554">
        <ele>684.69384</ele>
        <time>2021-03-25T13:38:51.000Z</time>
      </trkpt>
      <trkpt lat="45.92343" lon="3.01549">
        <ele>683.69371</ele>
        <time>2021-03-25T13:38:55.000Z</time>
      </trkpt>
      <trkpt lat="45.92339" lon="3.01546">
        <ele>683.69357</ele>
        <time>2021-03-25T13:39:00.000Z</time>
      </trkpt>
      <trkpt lat="45.92334" lon="3.01543">
        <ele>684.69336</ele>
        <time>2021-03-25T13:39:05.000Z</time>
      </trkpt>
      <trkpt lat="45.92328" lon="3.01542">
        <ele>684.69313</ele>
        <time>2021-03-25T13:39:09.000Z</time>
      </trkpt>
      <trkpt lat="45.92321" lon="3.01541">
        <ele>683.69285</ele>
        <time>2021-03-25T13:39:14.000Z</time>
      </trkpt>
      <trkpt lat="45.92317" lon="3.01539">
        <ele>682.69269</ele>
        <time>2021-03-25T13:39:18.000Z</time>
      </trkpt>
      <trkpt lat="45.92314" lon="3.01538">
        <ele>682.69254</ele>
        <time>2021-03-25T13:39:22.000Z</time>
      </trkpt>
      <trkpt lat="45.92309" lon="3.01537">
        <ele>682.69238</ele>
        <time>2021-03-25T13:39:26.000Z</time>
      </trkpt>
      <trkpt lat="45.92304" lon="3.01533">
        <ele>682.69217</ele>
        <time>2021-03-25T13:39:31.000Z</time>
      </trkpt>
      <trkpt lat="45.92298" lon="3.01533">
        <ele>682.69192</ele>
        <time>2021-03-25T13:39:36.000Z</time>
      </trkpt>
      <trkpt lat="45.92291" lon="3.01531">
        <ele>683.69164</ele>
        <time>2021-03-25T13:39:41.000Z</time>
      </trkpt>
      <trkpt lat="45.92285" lon="3.01526">
        <ele>683.69141</ele>
        <time>2021-03-25T13:39:46.000Z</time>
      </trkpt>
      <trkpt lat="45.92281" lon="3.01522">
        <ele>684.69124</ele>
        <time>2021-03-25T13:39:50.000Z</time>
      </trkpt>
      <trkpt lat="45.92277" lon="3.01517">
        <ele>684.69106</ele>
        <time>2021-03-25T13:39:55.000Z</time>
      </trkpt>
      <trkpt lat="45.92271" lon="3.01514">
        <ele>685.69085</ele>
        <time>2021-03-25T13:39:59.000Z</time>
      </trkpt>
      <trkpt lat="45.92265" lon="3.01511">
        <ele>685.6906</ele>
        <time>2021-03-25T13:40:03.000Z</time>
      </trkpt>
      <trkpt lat="45.9226" lon="3.01508">
        <ele>685.6904</ele>
        <time>2021-03-25T13:40:08.000Z</time>
      </trkpt>
      <trkpt lat="45.92255" lon="3.01507">
        <ele>686.6902</ele>
        <time>2021-03-25T13:40:12.000Z</time>
      </trkpt>
      <trkpt lat="45.92251" lon="3.0151">
        <ele>687.69005</ele>
        <time>2021-03-25T13:40:19.000Z</time>
      </trkpt>
      <trkpt lat="45.92248" lon="3.01509">
        <ele>691.6899</ele>
        <time>2021-03-25T13:40:24.000Z</time>
      </trkpt>
      <trkpt lat="45.92243" lon="3.01505">
        <ele>688.68971</ele>
        <time>2021-03-25T13:40:28.000Z</time>
      </trkpt>
      <trkpt lat="45.92236" lon="3.01504">
        <ele>686.68944</ele>
        <time>2021-03-25T13:40:32.000Z</time>
      </trkpt>
      <trkpt lat="45.92233" lon="3.01505">
        <ele>681.68931</ele>
        <time>2021-03-25T13:41:43.000Z</time>
      </trkpt>
      <trkpt lat="45.9223" lon="3.01512">
        <ele>682.68919</ele>
        <time>2021-03-25T13:41:48.000Z</time>
      </trkpt>
      <trkpt lat="45.92228" lon="3.01517">
        <ele>683.68914</ele>
        <time>2021-03-25T13:41:52.000Z</time>
      </trkpt>
      <trkpt lat="45.92227" lon="3.01523">
        <ele>683.68909</ele>
        <time>2021-03-25T13:41:56.000Z</time>
      </trkpt>
      <trkpt lat="45.92227" lon="3.01528">
        <ele>684.68907</ele>
        <time>2021-03-25T13:42:00.000Z</time>
      </trkpt>
      <trkpt lat="45.92226" lon="3.01534">
        <ele>682.68904</ele>
        <time>2021-03-25T13:42:04.000Z</time>
      </trkpt>
      <trkpt lat="45.92226" lon="3.01534">
        <ele>682.68904</ele>
        <time>2021-03-25T13:42:04.000Z</time>
      </trkpt>
      <trkpt lat="45.92223" lon="3.01537">
        <ele>684.68892</ele>
        <time>2021-03-25T13:42:14.000Z</time>
      </trkpt>
      <trkpt lat="45.92222" lon="3.01543">
        <ele>681.68889</ele>
        <time>2021-03-25T13:42:22.000Z</time>
      </trkpt>
      <trkpt lat="45.92221" lon="3.01549">
        <ele>681.68885</ele>
        <time>2021-03-25T13:42:35.000Z</time>
      </trkpt>
      <trkpt lat="45.92222" lon="3.01554">
        <ele>682.68887</ele>
        <time>2021-03-25T13:42:47.000Z</time>
      </trkpt>
      <trkpt lat="45.92221" lon="3.01562">
        <ele>682.68885</ele>
        <time>2021-03-25T13:42:52.000Z</time>
      </trkpt>
      <trkpt lat="45.9222" lon="3.0157">
        <ele>683.68879</ele>
        <time>2021-03-25T13:42:57.000Z</time>
      </trkpt>
      <trkpt lat="45.92218" lon="3.01576">
        <ele>683.68873</ele>
        <time>2021-03-25T13:43:01.000Z</time>
      </trkpt>
      <trkpt lat="45.92216" lon="3.01582">
        <ele>683.68863</ele>
        <time>2021-03-25T13:43:06.000Z</time>
      </trkpt>
      <trkpt lat="45.92213" lon="3.0159">
        <ele>685.6885</ele>
        <time>2021-03-25T13:43:11.000Z</time>
      </trkpt>
      <trkpt lat="45.92211" lon="3.01597">
        <ele>686.68843</ele>
        <time>2021-03-25T13:43:16.000Z</time>
      </trkpt>
      <trkpt lat="45.92209" lon="3.01602">
        <ele>686.68834</ele>
        <time>2021-03-25T13:43:20.000Z</time>
      </trkpt>
      <trkpt lat="45.92206" lon="3.01606">
        <ele>687.68823</ele>
        <time>2021-03-25T13:43:23.000Z</time>
      </trkpt>
      <trkpt lat="45.92204" lon="3.01612">
        <ele>688.68814</ele>
        <time>2021-03-25T13:43:28.000Z</time>
      </trkpt>
      <trkpt lat="45.922" lon="3.01617">
        <ele>688.68801</ele>
        <time>2021-03-25T13:43:32.000Z</time>
      </trkpt>
      <trkpt lat="45.92195" lon="3.01624">
        <ele>686.6878</ele>
        <time>2021-03-25T13:43:37.000Z</time>
      </trkpt>
      <trkpt lat="45.92191" lon="3.01632">
        <ele>685.68762</ele>
        <time>2021-03-25T13:43:42.000Z</time>
      </trkpt>
      <trkpt lat="45.92187" lon="3.01636">
        <ele>684.68747</ele>
        <time>2021-03-25T13:43:46.000Z</time>
      </trkpt>
      <trkpt lat="45.92183" lon="3.01643">
        <ele>684.6873</ele>
        <time>2021-03-25T13:43:51.000Z</time>
      </trkpt>
      <trkpt lat="45.92179" lon="3.01649">
        <ele>684.68714</ele>
        <time>2021-03-25T13:43:55.000Z</time>
      </trkpt>
      <trkpt lat="45.92175" lon="3.01653">
        <ele>684.68699</ele>
        <time>2021-03-25T13:43:59.000Z</time>
      </trkpt>
      <trkpt lat="45.92172" lon="3.01658">
        <ele>682.68687</ele>
        <time>2021-03-25T13:44:03.000Z</time>
      </trkpt>
      <trkpt lat="45.92168" lon="3.01663">
        <ele>683.68673</ele>
        <time>2021-03-25T13:44:07.000Z</time>
      </trkpt>
      <trkpt lat="45.92166" lon="3.01671">
        <ele>682.68663</ele>
        <time>2021-03-25T13:44:12.000Z</time>
      </trkpt>
      <trkpt lat="45.92163" lon="3.01677">
        <ele>682.68652</ele>
        <time>2021-03-25T13:44:16.000Z</time>
      </trkpt>
      <trkpt lat="45.92161" lon="3.01682">
        <ele>682.68645</ele>
        <time>2021-03-25T13:44:20.000Z</time>
      </trkpt>
      <trkpt lat="45.92158" lon="3.0169">
        <ele>684.68631</ele>
        <time>2021-03-25T13:44:25.000Z</time>
      </trkpt>
      <trkpt lat="45.92156" lon="3.01696">
        <ele>684.68624</ele>
        <time>2021-03-25T13:44:29.000Z</time>
      </trkpt>
      <trkpt lat="45.92151" lon="3.01703">
        <ele>683.68605</ele>
        <time>2021-03-25T13:44:33.000Z</time>
      </trkpt>
      <trkpt lat="45.92149" lon="3.0171">
        <ele>683.68596</ele>
        <time>2021-03-25T13:44:38.000Z</time>
      </trkpt>
      <trkpt lat="45.92146" lon="3.01715">
        <ele>684.68584</ele>
        <time>2021-03-25T13:44:42.000Z</time>
      </trkpt>
      <trkpt lat="45.92142" lon="3.01721">
        <ele>684.6857</ele>
        <time>2021-03-25T13:44:46.000Z</time>
      </trkpt>
      <trkpt lat="45.92139" lon="3.01728">
        <ele>684.68555</ele>
        <time>2021-03-25T13:44:50.000Z</time>
      </trkpt>
      <trkpt lat="45.92136" lon="3.01736">
        <ele>683.68545</ele>
        <time>2021-03-25T13:44:54.000Z</time>
      </trkpt>
      <trkpt lat="45.92132" lon="3.01742">
        <ele>684.6853</ele>
        <time>2021-03-25T13:44:58.000Z</time>
      </trkpt>
      <trkpt lat="45.9213" lon="3.01749">
        <ele>683.68518</ele>
        <time>2021-03-25T13:45:02.000Z</time>
      </trkpt>
      <trkpt lat="45.92127" lon="3.01754">
        <ele>684.6851</ele>
        <time>2021-03-25T13:45:07.000Z</time>
      </trkpt>
      <trkpt lat="45.92125" lon="3.01762">
        <ele>683.68499</ele>
        <time>2021-03-25T13:45:12.000Z</time>
      </trkpt>
      <trkpt lat="45.92123" lon="3.01768">
        <ele>684.68492</ele>
        <time>2021-03-25T13:45:16.000Z</time>
      </trkpt>
      <trkpt lat="45.92121" lon="3.01776">
        <ele>683.68483</ele>
        <time>2021-03-25T13:45:21.000Z</time>
      </trkpt>
      <trkpt lat="45.9212" lon="3.01782">
        <ele>683.68478</ele>
        <time>2021-03-25T13:45:25.000Z</time>
      </trkpt>
      <trkpt lat="45.92119" lon="3.01788">
        <ele>683.68475</ele>
        <time>2021-03-25T13:45:29.000Z</time>
      </trkpt>
      <trkpt lat="45.92117" lon="3.01796">
        <ele>682.68469</ele>
        <time>2021-03-25T13:45:33.000Z</time>
      </trkpt>
      <trkpt lat="45.92116" lon="3.01803">
        <ele>682.68464</ele>
        <time>2021-03-25T13:45:37.000Z</time>
      </trkpt>
      <trkpt lat="45.92116" lon="3.01811">
        <ele>686.68462</ele>
        <time>2021-03-25T13:45:42.000Z</time>
      </trkpt>
      <trkpt lat="45.92113" lon="3.01816">
        <ele>684.68451</ele>
        <time>2021-03-25T13:45:46.000Z</time>
      </trkpt>
      <trkpt lat="45.92111" lon="3.01824">
        <ele>683.68445</ele>
        <time>2021-03-25T13:45:51.000Z</time>
      </trkpt>
      <trkpt lat="45.92108" lon="3.01833">
        <ele>683.68434</ele>
        <time>2021-03-25T13:45:56.000Z</time>
      </trkpt>
      <trkpt lat="45.92107" lon="3.01841">
        <ele>683.68427</ele>
        <time>2021-03-25T13:46:01.000Z</time>
      </trkpt>
      <trkpt lat="45.92105" lon="3.01847">
        <ele>682.68421</ele>
        <time>2021-03-25T13:46:05.000Z</time>
      </trkpt>
      <trkpt lat="45.92102" lon="3.01854">
        <ele>682.68407</ele>
        <time>2021-03-25T13:46:10.000Z</time>
      </trkpt>
      <trkpt lat="45.92099" lon="3.01859">
        <ele>682.68397</ele>
        <time>2021-03-25T13:46:14.000Z</time>
      </trkpt>
      <trkpt lat="45.92097" lon="3.01864">
        <ele>683.68387</ele>
        <time>2021-03-25T13:46:18.000Z</time>
      </trkpt>
      <trkpt lat="45.92095" lon="3.0187">
        <ele>683.68379</ele>
        <time>2021-03-25T13:46:23.000Z</time>
      </trkpt>
      <trkpt lat="45.92092" lon="3.01875">
        <ele>681.68366</ele>
        <time>2021-03-25T13:46:27.000Z</time>
      </trkpt>
      <trkpt lat="45.92088" lon="3.01881">
        <ele>681.68351</ele>
        <time>2021-03-25T13:46:31.000Z</time>
      </trkpt>
      <trkpt lat="45.92085" lon="3.01886">
        <ele>681.6834</ele>
        <time>2021-03-25T13:46:35.000Z</time>
      </trkpt>
      <trkpt lat="45.92082" lon="3.01892">
        <ele>680.68327</ele>
        <time>2021-03-25T13:46:40.000Z</time>
      </trkpt>
      <trkpt lat="45.92079" lon="3.01898">
        <ele>681.68316</ele>
        <time>2021-03-25T13:46:44.000Z</time>
      </trkpt>
      <trkpt lat="45.92076" lon="3.01904">
        <ele>680.68305</ele>
        <time>2021-03-25T13:46:48.000Z</time>
      </trkpt>
      <trkpt lat="45.92074" lon="3.01911">
        <ele>680.68298</ele>
        <time>2021-03-25T13:46:52.000Z</time>
      </trkpt>
      <trkpt lat="45.92072" lon="3.01919">
        <ele>680.68288</ele>
        <time>2021-03-25T13:46:57.000Z</time>
      </trkpt>
      <trkpt lat="45.92071" lon="3.01927">
        <ele>680.68282</ele>
        <time>2021-03-25T13:47:01.000Z</time>
      </trkpt>
      <trkpt lat="45.9207" lon="3.01936">
        <ele>681.68281</ele>
        <time>2021-03-25T13:47:06.000Z</time>
      </trkpt>
      <trkpt lat="45.9207" lon="3.01944">
        <ele>681.68278</ele>
        <time>2021-03-25T13:47:11.000Z</time>
      </trkpt>
      <trkpt lat="45.92069" lon="3.0195">
        <ele>681.68277</ele>
        <time>2021-03-25T13:47:15.000Z</time>
      </trkpt>
      <trkpt lat="45.92068" lon="3.01957">
        <ele>681.68271</ele>
        <time>2021-03-25T13:47:19.000Z</time>
      </trkpt>
      <trkpt lat="45.92067" lon="3.01967">
        <ele>680.68268</ele>
        <time>2021-03-25T13:47:24.000Z</time>
      </trkpt>
      <trkpt lat="45.92066" lon="3.01975">
        <ele>680.68265</ele>
        <time>2021-03-25T13:47:29.000Z</time>
      </trkpt>
      <trkpt lat="45.92064" lon="3.01982">
        <ele>680.68256</ele>
        <time>2021-03-25T13:47:34.000Z</time>
      </trkpt>
      <trkpt lat="45.92063" lon="3.0199">
        <ele>679.68253</ele>
        <time>2021-03-25T13:47:38.000Z</time>
      </trkpt>
      <trkpt lat="45.92062" lon="3.01996">
        <ele>679.68247</ele>
        <time>2021-03-25T13:47:42.000Z</time>
      </trkpt>
      <trkpt lat="45.9206" lon="3.02002">
        <ele>678.68241</ele>
        <time>2021-03-25T13:47:46.000Z</time>
      </trkpt>
      <trkpt lat="45.92058" lon="3.0201">
        <ele>678.68231</ele>
        <time>2021-03-25T13:47:50.000Z</time>
      </trkpt>
      <trkpt lat="45.92056" lon="3.02015">
        <ele>678.68224</ele>
        <time>2021-03-25T13:47:55.000Z</time>
      </trkpt>
      <trkpt lat="45.92054" lon="3.02023">
        <ele>678.68216</ele>
        <time>2021-03-25T13:48:00.000Z</time>
      </trkpt>
      <trkpt lat="45.92053" lon="3.0203">
        <ele>678.68211</ele>
        <time>2021-03-25T13:48:04.000Z</time>
      </trkpt>
      <trkpt lat="45.92051" lon="3.02037">
        <ele>678.68205</ele>
        <time>2021-03-25T13:48:09.000Z</time>
      </trkpt>
      <trkpt lat="45.92051" lon="3.02045">
        <ele>679.68204</ele>
        <time>2021-03-25T13:48:13.000Z</time>
      </trkpt>
      <trkpt lat="45.92051" lon="3.02055">
        <ele>680.68203</ele>
        <time>2021-03-25T13:48:18.000Z</time>
      </trkpt>
      <trkpt lat="45.92051" lon="3.02063">
        <ele>680.68202</ele>
        <time>2021-03-25T13:48:22.000Z</time>
      </trkpt>
      <trkpt lat="45.92053" lon="3.0207">
        <ele>679.68212</ele>
        <time>2021-03-25T13:48:27.000Z</time>
      </trkpt>
      <trkpt lat="45.92055" lon="3.02076">
        <ele>680.6822</ele>
        <time>2021-03-25T13:48:31.000Z</time>
      </trkpt>
      <trkpt lat="45.92057" lon="3.02081">
        <ele>680.68228</ele>
        <time>2021-03-25T13:48:35.000Z</time>
      </trkpt>
      <trkpt lat="45.9206" lon="3.0209">
        <ele>680.68239</ele>
        <time>2021-03-25T13:48:40.000Z</time>
      </trkpt>
      <trkpt lat="45.92061" lon="3.02095">
        <ele>680.68244</ele>
        <time>2021-03-25T13:48:44.000Z</time>
      </trkpt>
      <trkpt lat="45.92061" lon="3.021">
        <ele>679.68245</ele>
        <time>2021-03-25T13:48:47.000Z</time>
      </trkpt>
      <trkpt lat="45.92065" lon="3.02109">
        <ele>679.6826</ele>
        <time>2021-03-25T13:48:52.000Z</time>
      </trkpt>
      <trkpt lat="45.92067" lon="3.02116">
        <ele>679.68267</ele>
        <time>2021-03-25T13:48:56.000Z</time>
      </trkpt>
      <trkpt lat="45.9207" lon="3.02124">
        <ele>677.68279</ele>
        <time>2021-03-25T13:49:01.000Z</time>
      </trkpt>
      <trkpt lat="45.9207" lon="3.02128">
        <ele>677.68279</ele>
        <time>2021-03-25T13:49:05.000Z</time>
      </trkpt>
      <trkpt lat="45.92071" lon="3.02138">
        <ele>676.68286</ele>
        <time>2021-03-25T13:49:10.000Z</time>
      </trkpt>
      <trkpt lat="45.92072" lon="3.02145">
        <ele>675.68287</ele>
        <time>2021-03-25T13:49:14.000Z</time>
      </trkpt>
      <trkpt lat="45.92072" lon="3.02155">
        <ele>675.68287</ele>
        <time>2021-03-25T13:49:19.000Z</time>
      </trkpt>
      <trkpt lat="45.92069" lon="3.02162">
        <ele>675.68277</ele>
        <time>2021-03-25T13:49:23.000Z</time>
      </trkpt>
      <trkpt lat="45.92067" lon="3.02166">
        <ele>675.68266</ele>
        <time>2021-03-25T13:49:27.000Z</time>
      </trkpt>
      <trkpt lat="45.92063" lon="3.02172">
        <ele>675.6825</ele>
        <time>2021-03-25T13:49:32.000Z</time>
      </trkpt>
      <trkpt lat="45.9206" lon="3.02178">
        <ele>676.6824</ele>
        <time>2021-03-25T13:49:36.000Z</time>
      </trkpt>
      <trkpt lat="45.92055" lon="3.02184">
        <ele>675.6822</ele>
        <time>2021-03-25T13:49:41.000Z</time>
      </trkpt>
      <trkpt lat="45.92052" lon="3.02191">
        <ele>674.68209</ele>
        <time>2021-03-25T13:49:45.000Z</time>
      </trkpt>
      <trkpt lat="45.92051" lon="3.02199">
        <ele>672.68203</ele>
        <time>2021-03-25T13:49:50.000Z</time>
      </trkpt>
      <trkpt lat="45.92049" lon="3.02204">
        <ele>671.68197</ele>
        <time>2021-03-25T13:49:55.000Z</time>
      </trkpt>
      <trkpt lat="45.92048" lon="3.02213">
        <ele>672.68192</ele>
        <time>2021-03-25T13:50:00.000Z</time>
      </trkpt>
      <trkpt lat="45.92046" lon="3.0222">
        <ele>673.68185</ele>
        <time>2021-03-25T13:50:05.000Z</time>
      </trkpt>
      <trkpt lat="45.92045" lon="3.02225">
        <ele>671.68179</ele>
        <time>2021-03-25T13:50:08.000Z</time>
      </trkpt>
      <trkpt lat="45.92042" lon="3.02233">
        <ele>672.68169</ele>
        <time>2021-03-25T13:50:13.000Z</time>
      </trkpt>
      <trkpt lat="45.92039" lon="3.02239">
        <ele>671.68156</ele>
        <time>2021-03-25T13:50:17.000Z</time>
      </trkpt>
      <trkpt lat="45.92038" lon="3.02245">
        <ele>671.6815</ele>
        <time>2021-03-25T13:50:25.000Z</time>
      </trkpt>
      <trkpt lat="45.92039" lon="3.02251">
        <ele>671.68157</ele>
        <time>2021-03-25T13:50:30.000Z</time>
      </trkpt>
      <trkpt lat="45.92039" lon="3.02259">
        <ele>673.68155</ele>
        <time>2021-03-25T13:50:35.000Z</time>
      </trkpt>
      <trkpt lat="45.92038" lon="3.02268">
        <ele>672.68154</ele>
        <time>2021-03-25T13:50:39.000Z</time>
      </trkpt>
      <trkpt lat="45.92037" lon="3.02277">
        <ele>671.68147</ele>
        <time>2021-03-25T13:50:44.000Z</time>
      </trkpt>
      <trkpt lat="45.92037" lon="3.02282">
        <ele>670.68147</ele>
        <time>2021-03-25T13:50:49.000Z</time>
      </trkpt>
      <trkpt lat="45.92035" lon="3.0229">
        <ele>668.68138</ele>
        <time>2021-03-25T13:50:53.000Z</time>
      </trkpt>
      <trkpt lat="45.92034" lon="3.02295">
        <ele>668.68134</ele>
        <time>2021-03-25T13:50:57.000Z</time>
      </trkpt>
      <trkpt lat="45.92033" lon="3.02299">
        <ele>669.68133</ele>
        <time>2021-03-25T13:51:00.000Z</time>
      </trkpt>
      <trkpt lat="45.92032" lon="3.02307">
        <ele>669.68128</ele>
        <time>2021-03-25T13:51:04.000Z</time>
      </trkpt>
      <trkpt lat="45.92034" lon="3.02314">
        <ele>669.68137</ele>
        <time>2021-03-25T13:51:08.000Z</time>
      </trkpt>
      <trkpt lat="45.92027" lon="3.02321">
        <ele>669.68106</ele>
        <time>2021-03-25T13:51:13.000Z</time>
      </trkpt>
      <trkpt lat="45.92027" lon="3.02328">
        <ele>672.68107</ele>
        <time>2021-03-25T13:51:18.000Z</time>
      </trkpt>
      <trkpt lat="45.92026" lon="3.02334">
        <ele>670.68105</ele>
        <time>2021-03-25T13:51:23.000Z</time>
      </trkpt>
      <trkpt lat="45.92026" lon="3.02342">
        <ele>671.68106</ele>
        <time>2021-03-25T13:51:27.000Z</time>
      </trkpt>
      <trkpt lat="45.92027" lon="3.0235">
        <ele>671.68108</ele>
        <time>2021-03-25T13:51:31.000Z</time>
      </trkpt>
      <trkpt lat="45.92025" lon="3.02357">
        <ele>672.68098</ele>
        <time>2021-03-25T13:51:35.000Z</time>
      </trkpt>
      <trkpt lat="45.92022" lon="3.02366">
        <ele>670.68088</ele>
        <time>2021-03-25T13:51:40.000Z</time>
      </trkpt>
      <trkpt lat="45.9202" lon="3.02371">
        <ele>669.6808</ele>
        <time>2021-03-25T13:51:44.000Z</time>
      </trkpt>
      <trkpt lat="45.92018" lon="3.02376">
        <ele>668.68072</ele>
        <time>2021-03-25T13:51:49.000Z</time>
      </trkpt>
      <trkpt lat="45.92016" lon="3.02382">
        <ele>667.68065</ele>
        <time>2021-03-25T13:51:53.000Z</time>
      </trkpt>
      <trkpt lat="45.92016" lon="3.02388">
        <ele>666.68062</ele>
        <time>2021-03-25T13:51:57.000Z</time>
      </trkpt>
      <trkpt lat="45.92013" lon="3.02397">
        <ele>664.68051</ele>
        <time>2021-03-25T13:52:02.000Z</time>
      </trkpt>
      <trkpt lat="45.92011" lon="3.02405">
        <ele>664.68045</ele>
        <time>2021-03-25T13:52:07.000Z</time>
      </trkpt>
      <trkpt lat="45.92011" lon="3.02411">
        <ele>663.68044</ele>
        <time>2021-03-25T13:52:12.000Z</time>
      </trkpt>
      <trkpt lat="45.92011" lon="3.02421">
        <ele>664.68043</ele>
        <time>2021-03-25T13:52:17.000Z</time>
      </trkpt>
      <trkpt lat="45.92012" lon="3.02429">
        <ele>663.68049</ele>
        <time>2021-03-25T13:52:22.000Z</time>
      </trkpt>
      <trkpt lat="45.92013" lon="3.02437">
        <ele>662.68053</ele>
        <time>2021-03-25T13:52:27.000Z</time>
      </trkpt>
      <trkpt lat="45.92013" lon="3.02442">
        <ele>661.68053</ele>
        <time>2021-03-25T13:52:31.000Z</time>
      </trkpt>
      <trkpt lat="45.92013" lon="3.02449">
        <ele>661.6805</ele>
        <time>2021-03-25T13:52:36.000Z</time>
      </trkpt>
      <trkpt lat="45.92012" lon="3.02455">
        <ele>660.68049</ele>
        <time>2021-03-25T13:52:40.000Z</time>
      </trkpt>
      <trkpt lat="45.92011" lon="3.02461">
        <ele>660.68045</ele>
        <time>2021-03-25T13:52:44.000Z</time>
      </trkpt>
      <trkpt lat="45.9201" lon="3.02469">
        <ele>659.68038</ele>
        <time>2021-03-25T13:52:49.000Z</time>
      </trkpt>
      <trkpt lat="45.9201" lon="3.0248">
        <ele>658.68039</ele>
        <time>2021-03-25T13:52:54.000Z</time>
      </trkpt>
      <trkpt lat="45.92009" lon="3.02487">
        <ele>658.68034</ele>
        <time>2021-03-25T13:52:58.000Z</time>
      </trkpt>
      <trkpt lat="45.92009" lon="3.02494">
        <ele>658.68035</ele>
        <time>2021-03-25T13:53:02.000Z</time>
      </trkpt>
      <trkpt lat="45.9201" lon="3.025">
        <ele>656.6804</ele>
        <time>2021-03-25T13:53:07.000Z</time>
      </trkpt>
      <trkpt lat="45.92009" lon="3.02506">
        <ele>657.68035</ele>
        <time>2021-03-25T13:53:12.000Z</time>
      </trkpt>
      <trkpt lat="45.92007" lon="3.02516">
        <ele>655.68028</ele>
        <time>2021-03-25T13:53:17.000Z</time>
      </trkpt>
      <trkpt lat="45.92005" lon="3.02523">
        <ele>652.68018</ele>
        <time>2021-03-25T13:53:21.000Z</time>
      </trkpt>
      <trkpt lat="45.92005" lon="3.02529">
        <ele>652.68019</ele>
        <time>2021-03-25T13:53:25.000Z</time>
      </trkpt>
      <trkpt lat="45.91999" lon="3.02536">
        <ele>651.67996</ele>
        <time>2021-03-25T13:53:30.000Z</time>
      </trkpt>
      <trkpt lat="45.91993" lon="3.02543">
        <ele>649.6797</ele>
        <time>2021-03-25T13:53:34.000Z</time>
      </trkpt>
      <trkpt lat="45.91989" lon="3.02549">
        <ele>647.67957</ele>
        <time>2021-03-25T13:53:38.000Z</time>
      </trkpt>
      <trkpt lat="45.91985" lon="3.02556">
        <ele>647.67941</ele>
        <time>2021-03-25T13:53:42.000Z</time>
      </trkpt>
      <trkpt lat="45.91981" lon="3.02559">
        <ele>646.67923</ele>
        <time>2021-03-25T13:53:46.000Z</time>
      </trkpt>
      <trkpt lat="45.91976" lon="3.02563">
        <ele>644.67904</ele>
        <time>2021-03-25T13:53:50.000Z</time>
      </trkpt>
      <trkpt lat="45.91971" lon="3.0257">
        <ele>642.67884</ele>
        <time>2021-03-25T13:53:54.000Z</time>
      </trkpt>
      <trkpt lat="45.9197" lon="3.02576">
        <ele>640.6788</ele>
        <time>2021-03-25T13:54:04.000Z</time>
      </trkpt>
      <trkpt lat="45.91973" lon="3.0258">
        <ele>639.67893</ele>
        <time>2021-03-25T13:54:08.000Z</time>
      </trkpt>
      <trkpt lat="45.91975" lon="3.02588">
        <ele>640.67899</ele>
        <time>2021-03-25T13:54:13.000Z</time>
      </trkpt>
      <trkpt lat="45.91978" lon="3.02595">
        <ele>640.67912</ele>
        <time>2021-03-25T13:54:18.000Z</time>
      </trkpt>
      <trkpt lat="45.91979" lon="3.02603">
        <ele>640.67917</ele>
        <time>2021-03-25T13:54:23.000Z</time>
      </trkpt>
      <trkpt lat="45.91981" lon="3.02608">
        <ele>638.67925</ele>
        <time>2021-03-25T13:54:27.000Z</time>
      </trkpt>
      <trkpt lat="45.91977" lon="3.02616">
        <ele>635.67909</ele>
        <time>2021-03-25T13:54:32.000Z</time>
      </trkpt>
      <trkpt lat="45.91972" lon="3.02622">
        <ele>633.67888</ele>
        <time>2021-03-25T13:54:37.000Z</time>
      </trkpt>
      <trkpt lat="45.91968" lon="3.02625">
        <ele>632.67873</ele>
        <time>2021-03-25T13:54:41.000Z</time>
      </trkpt>
      <trkpt lat="45.91962" lon="3.02632">
        <ele>631.67849</ele>
        <time>2021-03-25T13:54:46.000Z</time>
      </trkpt>
      <trkpt lat="45.91954" lon="3.02635">
        <ele>628.67816</ele>
        <time>2021-03-25T13:54:51.000Z</time>
      </trkpt>
      <trkpt lat="45.9195" lon="3.0264">
        <ele>626.67801</ele>
        <time>2021-03-25T13:54:56.000Z</time>
      </trkpt>
      <trkpt lat="45.91948" lon="3.02644">
        <ele>624.6779</ele>
        <time>2021-03-25T13:55:00.000Z</time>
      </trkpt>
      <trkpt lat="45.91944" lon="3.02648">
        <ele>624.67777</ele>
        <time>2021-03-25T13:55:05.000Z</time>
      </trkpt>
      <trkpt lat="45.91939" lon="3.02653">
        <ele>623.67757</ele>
        <time>2021-03-25T13:55:09.000Z</time>
      </trkpt>
      <trkpt lat="45.91939" lon="3.02653">
        <ele>623.67757</ele>
        <time>2021-03-25T13:55:09.000Z</time>
      </trkpt>
      <trkpt lat="45.91936" lon="3.02653">
        <ele>622.67743</ele>
        <time>2021-03-25T13:55:13.000Z</time>
      </trkpt>
      <trkpt lat="45.91932" lon="3.02654">
        <ele>621.67729</ele>
        <time>2021-03-25T13:55:17.000Z</time>
      </trkpt>
      <trkpt lat="45.91926" lon="3.0265">
        <ele>621.67705</ele>
        <time>2021-03-25T13:55:21.000Z</time>
      </trkpt>
      <trkpt lat="45.91919" lon="3.02644">
        <ele>620.67676</ele>
        <time>2021-03-25T13:55:26.000Z</time>
      </trkpt>
      <trkpt lat="45.91913" lon="3.0264">
        <ele>618.67653</ele>
        <time>2021-03-25T13:55:30.000Z</time>
      </trkpt>
      <trkpt lat="45.91909" lon="3.02634">
        <ele>619.67635</ele>
        <time>2021-03-25T13:55:34.000Z</time>
      </trkpt>
      <trkpt lat="45.91904" lon="3.02628">
        <ele>617.67617</ele>
        <time>2021-03-25T13:55:39.000Z</time>
      </trkpt>
      <trkpt lat="45.919" lon="3.02624">
        <ele>617.67601</ele>
        <time>2021-03-25T13:55:43.000Z</time>
      </trkpt>
      <trkpt lat="45.91897" lon="3.02618">
        <ele>616.67588</ele>
        <time>2021-03-25T13:55:47.000Z</time>
      </trkpt>
      <trkpt lat="45.91894" lon="3.02612">
        <ele>616.67577</ele>
        <time>2021-03-25T13:55:52.000Z</time>
      </trkpt>
      <trkpt lat="45.91891" lon="3.02606">
        <ele>616.67564</ele>
        <time>2021-03-25T13:55:57.000Z</time>
      </trkpt>
      <trkpt lat="45.91886" lon="3.02599">
        <ele>615.67543</ele>
        <time>2021-03-25T13:56:02.000Z</time>
      </trkpt>
      <trkpt lat="45.91883" lon="3.02592">
        <ele>614.67531</ele>
        <time>2021-03-25T13:56:06.000Z</time>
      </trkpt>
      <trkpt lat="45.9188" lon="3.02587">
        <ele>614.67518</ele>
        <time>2021-03-25T13:56:10.000Z</time>
      </trkpt>
      <trkpt lat="45.91876" lon="3.0258">
        <ele>613.67505</ele>
        <time>2021-03-25T13:56:14.000Z</time>
      </trkpt>
      <trkpt lat="45.91871" lon="3.02573">
        <ele>613.67486</ele>
        <time>2021-03-25T13:56:19.000Z</time>
      </trkpt>
      <trkpt lat="45.91869" lon="3.02568">
        <ele>612.67477</ele>
        <time>2021-03-25T13:56:24.000Z</time>
      </trkpt>
      <trkpt lat="45.91866" lon="3.02562">
        <ele>612.67465</ele>
        <time>2021-03-25T13:56:28.000Z</time>
      </trkpt>
      <trkpt lat="45.91863" lon="3.02554">
        <ele>610.67451</ele>
        <time>2021-03-25T13:56:33.000Z</time>
      </trkpt>
      <trkpt lat="45.91859" lon="3.02546">
        <ele>609.67436</ele>
        <time>2021-03-25T13:56:37.000Z</time>
      </trkpt>
      <trkpt lat="45.91854" lon="3.02536">
        <ele>609.67415</ele>
        <time>2021-03-25T13:56:42.000Z</time>
      </trkpt>
      <trkpt lat="45.91849" lon="3.02531">
        <ele>608.67396</ele>
        <time>2021-03-25T13:56:46.000Z</time>
      </trkpt>
      <trkpt lat="45.91847" lon="3.02525">
        <ele>607.67388</ele>
        <time>2021-03-25T13:56:50.000Z</time>
      </trkpt>
      <trkpt lat="45.91845" lon="3.02517">
        <ele>607.6738</ele>
        <time>2021-03-25T13:56:55.000Z</time>
      </trkpt>
      <trkpt lat="45.91842" lon="3.02511">
        <ele>605.67366</ele>
        <time>2021-03-25T13:56:59.000Z</time>
      </trkpt>
      <trkpt lat="45.9184" lon="3.02503">
        <ele>605.67359</ele>
        <time>2021-03-25T13:57:03.000Z</time>
      </trkpt>
      <trkpt lat="45.91838" lon="3.02496">
        <ele>604.67354</ele>
        <time>2021-03-25T13:57:07.000Z</time>
      </trkpt>
      <trkpt lat="45.91838" lon="3.02489">
        <ele>604.67353</ele>
        <time>2021-03-25T13:57:11.000Z</time>
      </trkpt>
      <trkpt lat="45.91837" lon="3.02485">
        <ele>602.67346</ele>
        <time>2021-03-25T13:57:15.000Z</time>
      </trkpt>
      <trkpt lat="45.91835" lon="3.02478">
        <ele>602.67338</ele>
        <time>2021-03-25T13:57:19.000Z</time>
      </trkpt>
      <trkpt lat="45.91834" lon="3.0247">
        <ele>601.67334</ele>
        <time>2021-03-25T13:57:23.000Z</time>
      </trkpt>
      <trkpt lat="45.91831" lon="3.02461">
        <ele>600.67322</ele>
        <time>2021-03-25T13:57:28.000Z</time>
      </trkpt>
      <trkpt lat="45.91828" lon="3.02454">
        <ele>599.67313</ele>
        <time>2021-03-25T13:57:32.000Z</time>
      </trkpt>
      <trkpt lat="45.91825" lon="3.02447">
        <ele>599.67301</ele>
        <time>2021-03-25T13:57:36.000Z</time>
      </trkpt>
      <trkpt lat="45.91823" lon="3.02438">
        <ele>599.67292</ele>
        <time>2021-03-25T13:57:41.000Z</time>
      </trkpt>
      <trkpt lat="45.91822" lon="3.02431">
        <ele>600.67287</ele>
        <time>2021-03-25T13:57:46.000Z</time>
      </trkpt>
      <trkpt lat="45.91824" lon="3.02422">
        <ele>601.67294</ele>
        <time>2021-03-25T13:57:50.000Z</time>
      </trkpt>
      <trkpt lat="45.91823" lon="3.02418">
        <ele>600.67291</ele>
        <time>2021-03-25T13:58:24.000Z</time>
      </trkpt>
      <trkpt lat="45.91823" lon="3.02412">
        <ele>603.67291</ele>
        <time>2021-03-25T13:58:32.000Z</time>
      </trkpt>
      <trkpt lat="45.91823" lon="3.02412">
        <ele>603.67291</ele>
        <time>2021-03-25T13:58:32.000Z</time>
      </trkpt>
      <trkpt lat="45.91824" lon="3.0241">
        <ele>603.67298</ele>
        <time>2021-03-25T13:58:40.000Z</time>
      </trkpt>
      <trkpt lat="45.91824" lon="3.02416">
        <ele>601.67296</ele>
        <time>2021-03-25T13:58:50.000Z</time>
      </trkpt>
      <trkpt lat="45.91822" lon="3.02419">
        <ele>601.67287</ele>
        <time>2021-03-25T13:59:06.000Z</time>
      </trkpt>
      <trkpt lat="45.91818" lon="3.02427">
        <ele>596.67273</ele>
        <time>2021-03-25T13:59:10.000Z</time>
      </trkpt>
      <trkpt lat="45.91815" lon="3.02434">
        <ele>597.67261</ele>
        <time>2021-03-25T13:59:15.000Z</time>
      </trkpt>
      <trkpt lat="45.91815" lon="3.02441">
        <ele>599.67262</ele>
        <time>2021-03-25T13:59:20.000Z</time>
      </trkpt>
      <trkpt lat="45.91814" lon="3.02445">
        <ele>599.67255</ele>
        <time>2021-03-25T13:59:24.000Z</time>
      </trkpt>
      <trkpt lat="45.91806" lon="3.02466">
        <ele>611.67224</ele>
        <time>2021-03-25T13:59:29.000Z</time>
      </trkpt>
      <trkpt lat="45.91797" lon="3.02463">
        <ele>606.67189</ele>
        <time>2021-03-25T13:59:33.000Z</time>
      </trkpt>
      <trkpt lat="45.91802" lon="3.02462">
        <ele>604.67209</ele>
        <time>2021-03-25T13:59:37.000Z</time>
      </trkpt>
      <trkpt lat="45.91806" lon="3.02468">
        <ele>602.67224</ele>
        <time>2021-03-25T13:59:41.000Z</time>
      </trkpt>
      <trkpt lat="45.9181" lon="3.02471">
        <ele>601.6724</ele>
        <time>2021-03-25T13:59:45.000Z</time>
      </trkpt>
      <trkpt lat="45.9181" lon="3.02478">
        <ele>599.6724</ele>
        <time>2021-03-25T13:59:50.000Z</time>
      </trkpt>
      <trkpt lat="45.91809" lon="3.02483">
        <ele>594.67235</ele>
        <time>2021-03-25T13:59:59.000Z</time>
      </trkpt>
      <trkpt lat="45.91812" lon="3.02485">
        <ele>592.67249</ele>
        <time>2021-03-25T14:00:05.000Z</time>
      </trkpt>
      <trkpt lat="45.91815" lon="3.0249">
        <ele>591.67259</ele>
        <time>2021-03-25T14:00:20.000Z</time>
      </trkpt>
      <trkpt lat="45.91817" lon="3.02494">
        <ele>590.67268</ele>
        <time>2021-03-25T14:00:32.000Z</time>
      </trkpt>
      <trkpt lat="45.91818" lon="3.02501">
        <ele>589.67271</ele>
        <time>2021-03-25T14:00:36.000Z</time>
      </trkpt>
      <trkpt lat="45.91821" lon="3.02513">
        <ele>589.67283</ele>
        <time>2021-03-25T14:00:41.000Z</time>
      </trkpt>
      <trkpt lat="45.91823" lon="3.02518">
        <ele>590.67294</ele>
        <time>2021-03-25T14:00:45.000Z</time>
      </trkpt>
      <trkpt lat="45.91824" lon="3.02521">
        <ele>591.67294</ele>
        <time>2021-03-25T14:00:52.000Z</time>
      </trkpt>
      <trkpt lat="45.91823" lon="3.02529">
        <ele>592.67291</ele>
        <time>2021-03-25T14:00:56.000Z</time>
      </trkpt>
      <trkpt lat="45.91819" lon="3.02533">
        <ele>592.67276</ele>
        <time>2021-03-25T14:01:00.000Z</time>
      </trkpt>
      <trkpt lat="45.91818" lon="3.0254">
        <ele>594.67271</ele>
        <time>2021-03-25T14:01:05.000Z</time>
      </trkpt>
      <trkpt lat="45.91817" lon="3.02545">
        <ele>594.67269</ele>
        <time>2021-03-25T14:01:09.000Z</time>
      </trkpt>
      <trkpt lat="45.91816" lon="3.02552">
        <ele>596.67265</ele>
        <time>2021-03-25T14:01:14.000Z</time>
      </trkpt>
      <trkpt lat="45.91815" lon="3.02556">
        <ele>596.67258</ele>
        <time>2021-03-25T14:01:19.000Z</time>
      </trkpt>
      <trkpt lat="45.91814" lon="3.02563">
        <ele>598.67257</ele>
        <time>2021-03-25T14:01:23.000Z</time>
      </trkpt>
      <trkpt lat="45.91815" lon="3.0257">
        <ele>600.6726</ele>
        <time>2021-03-25T14:01:28.000Z</time>
      </trkpt>
      <trkpt lat="45.91814" lon="3.02575">
        <ele>602.67254</ele>
        <time>2021-03-25T14:01:35.000Z</time>
      </trkpt>
      <trkpt lat="45.91816" lon="3.02581">
        <ele>602.67263</ele>
        <time>2021-03-25T14:01:42.000Z</time>
      </trkpt>
      <trkpt lat="45.91815" lon="3.02586">
        <ele>604.67261</ele>
        <time>2021-03-25T14:01:48.000Z</time>
      </trkpt>
      <trkpt lat="45.91816" lon="3.02592">
        <ele>602.67265</ele>
        <time>2021-03-25T14:01:53.000Z</time>
      </trkpt>
      <trkpt lat="45.91818" lon="3.02599">
        <ele>603.67274</ele>
        <time>2021-03-25T14:01:57.000Z</time>
      </trkpt>
      <trkpt lat="45.91818" lon="3.02607">
        <ele>603.67271</ele>
        <time>2021-03-25T14:02:01.000Z</time>
      </trkpt>
      <trkpt lat="45.91816" lon="3.02616">
        <ele>602.67265</ele>
        <time>2021-03-25T14:02:05.000Z</time>
      </trkpt>
      <trkpt lat="45.91816" lon="3.02621">
        <ele>604.67263</ele>
        <time>2021-03-25T14:02:09.000Z</time>
      </trkpt>
      <trkpt lat="45.91815" lon="3.02625">
        <ele>605.67258</ele>
        <time>2021-03-25T14:02:15.000Z</time>
      </trkpt>
      <trkpt lat="45.91815" lon="3.02634">
        <ele>605.6726</ele>
        <time>2021-03-25T14:02:20.000Z</time>
      </trkpt>
      <trkpt lat="45.91832" lon="3.02633">
        <ele>613.67326</ele>
        <time>2021-03-25T14:02:24.000Z</time>
      </trkpt>
      <trkpt lat="45.9183" lon="3.02639">
        <ele>614.67321</ele>
        <time>2021-03-25T14:02:28.000Z</time>
      </trkpt>
      <trkpt lat="45.91823" lon="3.02648">
        <ele>615.67293</ele>
        <time>2021-03-25T14:02:33.000Z</time>
      </trkpt>
      <trkpt lat="45.91819" lon="3.02654">
        <ele>614.67277</ele>
        <time>2021-03-25T14:02:37.000Z</time>
      </trkpt>
      <trkpt lat="45.91816" lon="3.02659">
        <ele>612.67263</ele>
        <time>2021-03-25T14:02:41.000Z</time>
      </trkpt>
      <trkpt lat="45.91811" lon="3.02665">
        <ele>611.67244</ele>
        <time>2021-03-25T14:02:45.000Z</time>
      </trkpt>
      <trkpt lat="45.91813" lon="3.02671">
        <ele>610.67251</ele>
        <time>2021-03-25T14:02:51.000Z</time>
      </trkpt>
      <trkpt lat="45.91811" lon="3.02678">
        <ele>611.67245</ele>
        <time>2021-03-25T14:02:56.000Z</time>
      </trkpt>
      <trkpt lat="45.91808" lon="3.02684">
        <ele>609.67232</ele>
        <time>2021-03-25T14:03:00.000Z</time>
      </trkpt>
      <trkpt lat="45.91805" lon="3.02692">
        <ele>607.67222</ele>
        <time>2021-03-25T14:03:04.000Z</time>
      </trkpt>
      <trkpt lat="45.91802" lon="3.02699">
        <ele>606.67208</ele>
        <time>2021-03-25T14:03:08.000Z</time>
      </trkpt>
      <trkpt lat="45.91802" lon="3.02705">
        <ele>606.67206</ele>
        <time>2021-03-25T14:03:13.000Z</time>
      </trkpt>
      <trkpt lat="45.918" lon="3.02713">
        <ele>604.67199</ele>
        <time>2021-03-25T14:03:17.000Z</time>
      </trkpt>
      <trkpt lat="45.91798" lon="3.02717">
        <ele>603.67193</ele>
        <time>2021-03-25T14:03:21.000Z</time>
      </trkpt>
      <trkpt lat="45.91802" lon="3.02719">
        <ele>601.67207</ele>
        <time>2021-03-25T14:03:31.000Z</time>
      </trkpt>
      <trkpt lat="45.91805" lon="3.02725">
        <ele>602.6722</ele>
        <time>2021-03-25T14:03:36.000Z</time>
      </trkpt>
      <trkpt lat="45.91805" lon="3.02729">
        <ele>601.67218</ele>
        <time>2021-03-25T14:03:41.000Z</time>
      </trkpt>
      <trkpt lat="45.91807" lon="3.02737">
        <ele>600.67226</ele>
        <time>2021-03-25T14:03:46.000Z</time>
      </trkpt>
      <trkpt lat="45.9181" lon="3.02744">
        <ele>601.67239</ele>
        <time>2021-03-25T14:03:50.000Z</time>
      </trkpt>
      <trkpt lat="45.91811" lon="3.02748">
        <ele>600.67244</ele>
        <time>2021-03-25T14:03:54.000Z</time>
      </trkpt>
      <trkpt lat="45.91815" lon="3.02759">
        <ele>599.6726</ele>
        <time>2021-03-25T14:03:58.000Z</time>
      </trkpt>
      <trkpt lat="45.91813" lon="3.02769">
        <ele>595.67252</ele>
        <time>2021-03-25T14:04:03.000Z</time>
      </trkpt>
      <trkpt lat="45.91811" lon="3.02778">
        <ele>593.67243</ele>
        <time>2021-03-25T14:04:08.000Z</time>
      </trkpt>
      <trkpt lat="45.9181" lon="3.02782">
        <ele>593.67241</ele>
        <time>2021-03-25T14:04:13.000Z</time>
      </trkpt>
      <trkpt lat="45.91807" lon="3.0279">
        <ele>590.67229</ele>
        <time>2021-03-25T14:04:17.000Z</time>
      </trkpt>
      <trkpt lat="45.91807" lon="3.02796">
        <ele>590.67228</ele>
        <time>2021-03-25T14:04:26.000Z</time>
      </trkpt>
      <trkpt lat="45.91805" lon="3.02798">
        <ele>589.67218</ele>
        <time>2021-03-25T14:04:32.000Z</time>
      </trkpt>
      <trkpt lat="45.918" lon="3.02801">
        <ele>589.67201</ele>
        <time>2021-03-25T14:04:36.000Z</time>
      </trkpt>
      <trkpt lat="45.91797" lon="3.02805">
        <ele>588.67189</ele>
        <time>2021-03-25T14:04:41.000Z</time>
      </trkpt>
      <trkpt lat="45.91795" lon="3.02813">
        <ele>588.6718</ele>
        <time>2021-03-25T14:04:46.000Z</time>
      </trkpt>
      <trkpt lat="45.91794" lon="3.0282">
        <ele>588.67176</ele>
        <time>2021-03-25T14:04:50.000Z</time>
      </trkpt>
      <trkpt lat="45.91794" lon="3.0282">
        <ele>588.67176</ele>
        <time>2021-03-25T14:04:50.000Z</time>
      </trkpt>
      <trkpt lat="45.91791" lon="3.02823">
        <ele>589.67163</ele>
        <time>2021-03-25T14:04:56.000Z</time>
      </trkpt>
      <trkpt lat="45.91787" lon="3.02831">
        <ele>590.67149</ele>
        <time>2021-03-25T14:05:01.000Z</time>
      </trkpt>
      <trkpt lat="45.91784" lon="3.02834">
        <ele>589.67136</ele>
        <time>2021-03-25T14:05:05.000Z</time>
      </trkpt>
      <trkpt lat="45.91784" lon="3.02841">
        <ele>591.67137</ele>
        <time>2021-03-25T14:05:10.000Z</time>
      </trkpt>
      <trkpt lat="45.91783" lon="3.02847">
        <ele>592.67133</ele>
        <time>2021-03-25T14:05:15.000Z</time>
      </trkpt>
      <trkpt lat="45.91782" lon="3.02856">
        <ele>591.67127</ele>
        <time>2021-03-25T14:05:20.000Z</time>
      </trkpt>
      <trkpt lat="45.9178" lon="3.0286">
        <ele>589.6712</ele>
        <time>2021-03-25T14:05:25.000Z</time>
      </trkpt>
      <trkpt lat="45.91776" lon="3.02868">
        <ele>588.67103</ele>
        <time>2021-03-25T14:05:29.000Z</time>
      </trkpt>
      <trkpt lat="45.91771" lon="3.02873">
        <ele>588.67085</ele>
        <time>2021-03-25T14:05:33.000Z</time>
      </trkpt>
      <trkpt lat="45.91767" lon="3.02874">
        <ele>591.67069</ele>
        <time>2021-03-25T14:05:43.000Z</time>
      </trkpt>
      <trkpt lat="45.91761" lon="3.0288">
        <ele>591.67043</ele>
        <time>2021-03-25T14:05:47.000Z</time>
      </trkpt>
      <trkpt lat="45.91756" lon="3.02884">
        <ele>591.67023</ele>
        <time>2021-03-25T14:05:52.000Z</time>
      </trkpt>
      <trkpt lat="45.9175" lon="3.02888">
        <ele>592.67001</ele>
        <time>2021-03-25T14:05:56.000Z</time>
      </trkpt>
      <trkpt lat="45.91746" lon="3.0289">
        <ele>591.66984</ele>
        <time>2021-03-25T14:06:05.000Z</time>
      </trkpt>
      <trkpt lat="45.91742" lon="3.02894">
        <ele>592.6697</ele>
        <time>2021-03-25T14:06:10.000Z</time>
      </trkpt>
      <trkpt lat="45.9174" lon="3.02898">
        <ele>590.66959</ele>
        <time>2021-03-25T14:06:16.000Z</time>
      </trkpt>
      <trkpt lat="45.91735" lon="3.02903">
        <ele>590.66941</ele>
        <time>2021-03-25T14:06:21.000Z</time>
      </trkpt>
      <trkpt lat="45.91732" lon="3.02906">
        <ele>590.66928</ele>
        <time>2021-03-25T14:06:26.000Z</time>
      </trkpt>
      <trkpt lat="45.91727" lon="3.02912">
        <ele>589.66908</ele>
        <time>2021-03-25T14:06:31.000Z</time>
      </trkpt>
      <trkpt lat="45.91722" lon="3.02917">
        <ele>588.66887</ele>
        <time>2021-03-25T14:06:36.000Z</time>
      </trkpt>
      <trkpt lat="45.91717" lon="3.02923">
        <ele>585.66867</ele>
        <time>2021-03-25T14:06:40.000Z</time>
      </trkpt>
      <trkpt lat="45.91713" lon="3.02928">
        <ele>586.6685</ele>
        <time>2021-03-25T14:06:44.000Z</time>
      </trkpt>
      <trkpt lat="45.91707" lon="3.02935">
        <ele>584.66827</ele>
        <time>2021-03-25T14:06:49.000Z</time>
      </trkpt>
      <trkpt lat="45.91705" lon="3.02939">
        <ele>584.66819</ele>
        <time>2021-03-25T14:06:55.000Z</time>
      </trkpt>
      <trkpt lat="45.917" lon="3.02944">
        <ele>585.668</ele>
        <time>2021-03-25T14:07:00.000Z</time>
      </trkpt>
      <trkpt lat="45.91698" lon="3.02946">
        <ele>585.66793</ele>
        <time>2021-03-25T14:07:03.000Z</time>
      </trkpt>
      <trkpt lat="45.91692" lon="3.02951">
        <ele>584.66769</ele>
        <time>2021-03-25T14:07:08.000Z</time>
      </trkpt>
      <trkpt lat="45.91688" lon="3.02952">
        <ele>585.66754</ele>
        <time>2021-03-25T14:07:13.000Z</time>
      </trkpt>
      <trkpt lat="45.91684" lon="3.02953">
        <ele>586.66737</ele>
        <time>2021-03-25T14:07:17.000Z</time>
      </trkpt>
      <trkpt lat="45.91683" lon="3.02957">
        <ele>586.6673</ele>
        <time>2021-03-25T14:07:21.000Z</time>
      </trkpt>
      <trkpt lat="45.91678" lon="3.02959">
        <ele>586.66713</ele>
        <time>2021-03-25T14:07:27.000Z</time>
      </trkpt>
      <trkpt lat="45.91673" lon="3.02961">
        <ele>587.6669</ele>
        <time>2021-03-25T14:07:32.000Z</time>
      </trkpt>
      <trkpt lat="45.91671" lon="3.02967">
        <ele>587.66684</ele>
        <time>2021-03-25T14:07:39.000Z</time>
      </trkpt>
      <trkpt lat="45.91668" lon="3.02971">
        <ele>588.66672</ele>
        <time>2021-03-25T14:07:43.000Z</time>
      </trkpt>
      <trkpt lat="45.91667" lon="3.02976">
        <ele>588.66668</ele>
        <time>2021-03-25T14:07:51.000Z</time>
      </trkpt>
      <trkpt lat="45.91669" lon="3.02982">
        <ele>588.66677</ele>
        <time>2021-03-25T14:07:55.000Z</time>
      </trkpt>
      <trkpt lat="45.91668" lon="3.02988">
        <ele>587.66674</ele>
        <time>2021-03-25T14:08:00.000Z</time>
      </trkpt>
      <trkpt lat="45.91669" lon="3.02994">
        <ele>588.66678</ele>
        <time>2021-03-25T14:08:05.000Z</time>
      </trkpt>
      <trkpt lat="45.91669" lon="3.03001">
        <ele>587.66674</ele>
        <time>2021-03-25T14:08:09.000Z</time>
      </trkpt>
      <trkpt lat="45.91669" lon="3.03011">
        <ele>586.66675</ele>
        <time>2021-03-25T14:08:14.000Z</time>
      </trkpt>
      <trkpt lat="45.91667" lon="3.03016">
        <ele>584.6667</ele>
        <time>2021-03-25T14:08:20.000Z</time>
      </trkpt>
      <trkpt lat="45.91666" lon="3.03022">
        <ele>584.66664</ele>
        <time>2021-03-25T14:08:24.000Z</time>
      </trkpt>
      <trkpt lat="45.91665" lon="3.03028">
        <ele>583.66658</ele>
        <time>2021-03-25T14:08:29.000Z</time>
      </trkpt>
      <trkpt lat="45.91661" lon="3.03029">
        <ele>581.66644</ele>
        <time>2021-03-25T14:08:43.000Z</time>
      </trkpt>
      <trkpt lat="45.91657" lon="3.03035">
        <ele>581.6663</ele>
        <time>2021-03-25T14:08:47.000Z</time>
      </trkpt>
      <trkpt lat="45.91655" lon="3.03042">
        <ele>580.6662</ele>
        <time>2021-03-25T14:08:52.000Z</time>
      </trkpt>
      <trkpt lat="45.91652" lon="3.03046">
        <ele>580.66606</ele>
        <time>2021-03-25T14:08:56.000Z</time>
      </trkpt>
      <trkpt lat="45.91649" lon="3.0305">
        <ele>580.66594</ele>
        <time>2021-03-25T14:09:07.000Z</time>
      </trkpt>
      <trkpt lat="45.91644" lon="3.03053">
        <ele>578.66578</ele>
        <time>2021-03-25T14:09:11.000Z</time>
      </trkpt>
      <trkpt lat="45.91641" lon="3.0306">
        <ele>577.66562</ele>
        <time>2021-03-25T14:09:15.000Z</time>
      </trkpt>
      <trkpt lat="45.91633" lon="3.03067">
        <ele>577.66531</ele>
        <time>2021-03-25T14:09:20.000Z</time>
      </trkpt>
      <trkpt lat="45.91626" lon="3.03069">
        <ele>577.66505</ele>
        <time>2021-03-25T14:09:25.000Z</time>
      </trkpt>
      <trkpt lat="45.9162" lon="3.03069">
        <ele>576.66479</ele>
        <time>2021-03-25T14:09:30.000Z</time>
      </trkpt>
      <trkpt lat="45.91616" lon="3.03069">
        <ele>576.66462</ele>
        <time>2021-03-25T14:09:34.000Z</time>
      </trkpt>
      <trkpt lat="45.91611" lon="3.03068">
        <ele>575.66445</ele>
        <time>2021-03-25T14:09:38.000Z</time>
      </trkpt>
      <trkpt lat="45.91605" lon="3.03066">
        <ele>575.66421</ele>
        <time>2021-03-25T14:09:43.000Z</time>
      </trkpt>
      <trkpt lat="45.91602" lon="3.03068">
        <ele>575.66409</ele>
        <time>2021-03-25T14:09:55.000Z</time>
      </trkpt>
      <trkpt lat="45.91596" lon="3.03064">
        <ele>576.66384</ele>
        <time>2021-03-25T14:10:00.000Z</time>
      </trkpt>
      <trkpt lat="45.91596" lon="3.03064">
        <ele>576.66384</ele>
        <time>2021-03-25T14:10:00.000Z</time>
      </trkpt>
      <trkpt lat="45.91595" lon="3.03058">
        <ele>578.6638</ele>
        <time>2021-03-25T14:10:06.000Z</time>
      </trkpt>
      <trkpt lat="45.91591" lon="3.03059">
        <ele>575.66364</ele>
        <time>2021-03-25T14:10:21.000Z</time>
      </trkpt>
      <trkpt lat="45.91587" lon="3.0306">
        <ele>575.66348</ele>
        <time>2021-03-25T14:10:26.000Z</time>
      </trkpt>
      <trkpt lat="45.91583" lon="3.03061">
        <ele>574.66331</ele>
        <time>2021-03-25T14:10:30.000Z</time>
      </trkpt>
      <trkpt lat="45.91577" lon="3.03059">
        <ele>573.66307</ele>
        <time>2021-03-25T14:10:35.000Z</time>
      </trkpt>
      <trkpt lat="45.91573" lon="3.03057">
        <ele>573.66291</ele>
        <time>2021-03-25T14:10:39.000Z</time>
      </trkpt>
      <trkpt lat="45.9157" lon="3.03055">
        <ele>574.66278</ele>
        <time>2021-03-25T14:10:45.000Z</time>
      </trkpt>
      <trkpt lat="45.91565" lon="3.03053">
        <ele>575.6626</ele>
        <time>2021-03-25T14:10:49.000Z</time>
      </trkpt>
      <trkpt lat="45.9156" lon="3.0305">
        <ele>575.6624</ele>
        <time>2021-03-25T14:10:54.000Z</time>
      </trkpt>
      <trkpt lat="45.91556" lon="3.03049">
        <ele>575.66223</ele>
        <time>2021-03-25T14:10:58.000Z</time>
      </trkpt>
      <trkpt lat="45.91551" lon="3.03046">
        <ele>575.66204</ele>
        <time>2021-03-25T14:11:02.000Z</time>
      </trkpt>
      <trkpt lat="45.91547" lon="3.03041">
        <ele>575.66188</ele>
        <time>2021-03-25T14:11:07.000Z</time>
      </trkpt>
      <trkpt lat="45.91543" lon="3.03038">
        <ele>577.66172</ele>
        <time>2021-03-25T14:11:15.000Z</time>
      </trkpt>
      <trkpt lat="45.91538" lon="3.03038">
        <ele>578.66153</ele>
        <time>2021-03-25T14:11:19.000Z</time>
      </trkpt>
      <trkpt lat="45.91532" lon="3.03033">
        <ele>579.66126</ele>
        <time>2021-03-25T14:11:24.000Z</time>
      </trkpt>
      <trkpt lat="45.91527" lon="3.0303">
        <ele>577.6611</ele>
        <time>2021-03-25T14:11:28.000Z</time>
      </trkpt>
      <trkpt lat="45.91523" lon="3.0303">
        <ele>577.66091</ele>
        <time>2021-03-25T14:11:32.000Z</time>
      </trkpt>
      <trkpt lat="45.9152" lon="3.03026">
        <ele>578.66078</ele>
        <time>2021-03-25T14:11:37.000Z</time>
      </trkpt>
      <trkpt lat="45.91517" lon="3.03023">
        <ele>579.66066</ele>
        <time>2021-03-25T14:11:42.000Z</time>
      </trkpt>
      <trkpt lat="45.91511" lon="3.03013">
        <ele>579.66043</ele>
        <time>2021-03-25T14:11:46.000Z</time>
      </trkpt>
      <trkpt lat="45.91505" lon="3.03012">
        <ele>578.6602</ele>
        <time>2021-03-25T14:11:51.000Z</time>
      </trkpt>
      <trkpt lat="45.91499" lon="3.03008">
        <ele>576.65995</ele>
        <time>2021-03-25T14:11:55.000Z</time>
      </trkpt>
      <trkpt lat="45.91494" lon="3.03005">
        <ele>576.65978</ele>
        <time>2021-03-25T14:11:59.000Z</time>
      </trkpt>
      <trkpt lat="45.9149" lon="3.03005">
        <ele>576.65961</ele>
        <time>2021-03-25T14:12:07.000Z</time>
      </trkpt>
      <trkpt lat="45.91487" lon="3.03004">
        <ele>577.65947</ele>
        <time>2021-03-25T14:12:11.000Z</time>
      </trkpt>
      <trkpt lat="45.91481" lon="3.03003">
        <ele>578.65923</ele>
        <time>2021-03-25T14:12:15.000Z</time>
      </trkpt>
      <trkpt lat="45.91476" lon="3.03001">
        <ele>579.65904</ele>
        <time>2021-03-25T14:12:19.000Z</time>
      </trkpt>
      <trkpt lat="45.91473" lon="3.02999">
        <ele>579.65891</ele>
        <time>2021-03-25T14:12:23.000Z</time>
      </trkpt>
      <trkpt lat="45.91469" lon="3.03">
        <ele>578.65878</ele>
        <time>2021-03-25T14:12:27.000Z</time>
      </trkpt>
      <trkpt lat="45.9146" lon="3.02995">
        <ele>578.6584</ele>
        <time>2021-03-25T14:12:32.000Z</time>
      </trkpt>
      <trkpt lat="45.91459" lon="3.02989">
        <ele>580.65836</ele>
        <time>2021-03-25T14:12:43.000Z</time>
      </trkpt>
      <trkpt lat="45.91463" lon="3.02992">
        <ele>579.65851</ele>
        <time>2021-03-25T14:12:55.000Z</time>
      </trkpt>
      <trkpt lat="45.91464" lon="3.02998">
        <ele>578.65858</ele>
        <time>2021-03-25T14:13:02.000Z</time>
      </trkpt>
      <trkpt lat="45.91464" lon="3.02998">
        <ele>578.65858</ele>
        <time>2021-03-25T14:13:02.000Z</time>
      </trkpt>
      <trkpt lat="45.91464" lon="3.03005">
        <ele>578.65856</ele>
        <time>2021-03-25T14:13:06.000Z</time>
      </trkpt>
      <trkpt lat="45.91465" lon="3.03011">
        <ele>579.65859</ele>
        <time>2021-03-25T14:13:11.000Z</time>
      </trkpt>
      <trkpt lat="45.91468" lon="3.03013">
        <ele>578.65873</ele>
        <time>2021-03-25T14:13:15.000Z</time>
      </trkpt>
      <trkpt lat="45.91473" lon="3.03015">
        <ele>580.65892</ele>
        <time>2021-03-25T14:13:20.000Z</time>
      </trkpt>
      <trkpt lat="45.91476" lon="3.0302">
        <ele>580.65906</ele>
        <time>2021-03-25T14:13:24.000Z</time>
      </trkpt>
      <trkpt lat="45.91481" lon="3.03021">
        <ele>578.65926</ele>
        <time>2021-03-25T14:13:29.000Z</time>
      </trkpt>
      <trkpt lat="45.91488" lon="3.03022">
        <ele>580.65951</ele>
        <time>2021-03-25T14:13:34.000Z</time>
      </trkpt>
      <trkpt lat="45.91491" lon="3.03024">
        <ele>580.65966</ele>
        <time>2021-03-25T14:13:43.000Z</time>
      </trkpt>
      <trkpt lat="45.91495" lon="3.03031">
        <ele>579.6598</ele>
        <time>2021-03-25T14:13:48.000Z</time>
      </trkpt>
      <trkpt lat="45.91496" lon="3.03037">
        <ele>577.65985</ele>
        <time>2021-03-25T14:14:01.000Z</time>
      </trkpt>
      <trkpt lat="45.915" lon="3.03033">
        <ele>574.65999</ele>
        <time>2021-03-25T14:14:42.000Z</time>
      </trkpt>
      <trkpt lat="45.91503" lon="3.03036">
        <ele>575.66012</ele>
        <time>2021-03-25T14:14:48.000Z</time>
      </trkpt>
      <trkpt lat="45.91504" lon="3.03041">
        <ele>576.66015</ele>
        <time>2021-03-25T14:14:57.000Z</time>
      </trkpt>
      <trkpt lat="45.915" lon="3.03044">
        <ele>575.66</ele>
        <time>2021-03-25T14:15:03.000Z</time>
      </trkpt>
      <trkpt lat="45.91497" lon="3.03048">
        <ele>578.65987</ele>
        <time>2021-03-25T14:15:30.000Z</time>
      </trkpt>
      <trkpt lat="45.915" lon="3.03053">
        <ele>573.65998</ele>
        <time>2021-03-25T14:15:36.000Z</time>
      </trkpt>
      <trkpt lat="45.91502" lon="3.03058">
        <ele>573.66006</ele>
        <time>2021-03-25T14:15:40.000Z</time>
      </trkpt>
      <trkpt lat="45.91506" lon="3.03063">
        <ele>571.66025</ele>
        <time>2021-03-25T14:15:45.000Z</time>
      </trkpt>
      <trkpt lat="45.9151" lon="3.03068">
        <ele>570.66038</ele>
        <time>2021-03-25T14:15:49.000Z</time>
      </trkpt>
      <trkpt lat="45.91513" lon="3.03073">
        <ele>568.66051</ele>
        <time>2021-03-25T14:15:54.000Z</time>
      </trkpt>
      <trkpt lat="45.91515" lon="3.03078">
        <ele>569.6606</ele>
        <time>2021-03-25T14:15:59.000Z</time>
      </trkpt>
      <trkpt lat="45.91516" lon="3.03084">
        <ele>570.66066</ele>
        <time>2021-03-25T14:16:04.000Z</time>
      </trkpt>
      <trkpt lat="45.91519" lon="3.0309">
        <ele>570.66076</ele>
        <time>2021-03-25T14:16:09.000Z</time>
      </trkpt>
      <trkpt lat="45.91522" lon="3.03097">
        <ele>570.66087</ele>
        <time>2021-03-25T14:16:14.000Z</time>
      </trkpt>
      <trkpt lat="45.91524" lon="3.03104">
        <ele>569.66095</ele>
        <time>2021-03-25T14:16:18.000Z</time>
      </trkpt>
      <trkpt lat="45.91528" lon="3.03111">
        <ele>568.6611</ele>
        <time>2021-03-25T14:16:23.000Z</time>
      </trkpt>
      <trkpt lat="45.91527" lon="3.03116">
        <ele>569.66109</ele>
        <time>2021-03-25T14:16:28.000Z</time>
      </trkpt>
      <trkpt lat="45.91534" lon="3.03121">
        <ele>569.66137</ele>
        <time>2021-03-25T14:16:32.000Z</time>
      </trkpt>
      <trkpt lat="45.91539" lon="3.03125">
        <ele>568.66157</ele>
        <time>2021-03-25T14:16:37.000Z</time>
      </trkpt>
      <trkpt lat="45.91543" lon="3.03131">
        <ele>568.66173</ele>
        <time>2021-03-25T14:16:41.000Z</time>
      </trkpt>
      <trkpt lat="45.91547" lon="3.03135">
        <ele>568.66188</ele>
        <time>2021-03-25T14:16:45.000Z</time>
      </trkpt>
      <trkpt lat="45.91551" lon="3.03142">
        <ele>569.66203</ele>
        <time>2021-03-25T14:16:49.000Z</time>
      </trkpt>
      <trkpt lat="45.91553" lon="3.0315">
        <ele>568.66211</ele>
        <time>2021-03-25T14:16:53.000Z</time>
      </trkpt>
      <trkpt lat="45.91556" lon="3.03158">
        <ele>566.66223</ele>
        <time>2021-03-25T14:16:58.000Z</time>
      </trkpt>
      <trkpt lat="45.91561" lon="3.03169">
        <ele>566.66244</ele>
        <time>2021-03-25T14:17:03.000Z</time>
      </trkpt>
      <trkpt lat="45.91566" lon="3.03176">
        <ele>566.66264</ele>
        <time>2021-03-25T14:17:07.000Z</time>
      </trkpt>
      <trkpt lat="45.91568" lon="3.03181">
        <ele>566.66271</ele>
        <time>2021-03-25T14:17:12.000Z</time>
      </trkpt>
      <trkpt lat="45.91569" lon="3.03187">
        <ele>566.66277</ele>
        <time>2021-03-25T14:17:16.000Z</time>
      </trkpt>
      <trkpt lat="45.9157" lon="3.03194">
        <ele>566.66279</ele>
        <time>2021-03-25T14:17:20.000Z</time>
      </trkpt>
      <trkpt lat="45.91574" lon="3.03202">
        <ele>564.66296</ele>
        <time>2021-03-25T14:17:25.000Z</time>
      </trkpt>
      <trkpt lat="45.91579" lon="3.03208">
        <ele>563.66316</ele>
        <time>2021-03-25T14:17:30.000Z</time>
      </trkpt>
      <trkpt lat="45.91582" lon="3.03213">
        <ele>562.66327</ele>
        <time>2021-03-25T14:17:34.000Z</time>
      </trkpt>
      <trkpt lat="45.91582" lon="3.03218">
        <ele>561.66328</ele>
        <time>2021-03-25T14:17:38.000Z</time>
      </trkpt>
      <trkpt lat="45.91585" lon="3.03229">
        <ele>561.66342</ele>
        <time>2021-03-25T14:17:42.000Z</time>
      </trkpt>
      <trkpt lat="45.91587" lon="3.03239">
        <ele>561.66349</ele>
        <time>2021-03-25T14:17:47.000Z</time>
      </trkpt>
      <trkpt lat="45.9159" lon="3.03245">
        <ele>561.66361</ele>
        <time>2021-03-25T14:17:51.000Z</time>
      </trkpt>
      <trkpt lat="45.91593" lon="3.03253">
        <ele>561.66372</ele>
        <time>2021-03-25T14:17:55.000Z</time>
      </trkpt>
      <trkpt lat="45.91597" lon="3.03261">
        <ele>563.66387</ele>
        <time>2021-03-25T14:17:59.000Z</time>
      </trkpt>
      <trkpt lat="45.91597" lon="3.03267">
        <ele>562.66387</ele>
        <time>2021-03-25T14:18:05.000Z</time>
      </trkpt>
      <trkpt lat="45.91596" lon="3.03276">
        <ele>562.66384</ele>
        <time>2021-03-25T14:18:10.000Z</time>
      </trkpt>
      <trkpt lat="45.91598" lon="3.03282">
        <ele>560.66393</ele>
        <time>2021-03-25T14:18:13.000Z</time>
      </trkpt>
      <trkpt lat="45.91601" lon="3.03285">
        <ele>559.66405</ele>
        <time>2021-03-25T14:18:20.000Z</time>
      </trkpt>
      <trkpt lat="45.91605" lon="3.03294">
        <ele>560.66419</ele>
        <time>2021-03-25T14:18:25.000Z</time>
      </trkpt>
      <trkpt lat="45.91607" lon="3.03304">
        <ele>559.66428</ele>
        <time>2021-03-25T14:18:29.000Z</time>
      </trkpt>
      <trkpt lat="45.91608" lon="3.03313">
        <ele>558.66431</ele>
        <time>2021-03-25T14:18:34.000Z</time>
      </trkpt>
      <trkpt lat="45.91608" lon="3.03313">
        <ele>558.66431</ele>
        <time>2021-03-25T14:18:34.000Z</time>
      </trkpt>
      <trkpt lat="45.91606" lon="3.03324">
        <ele>555.66425</ele>
        <time>2021-03-25T14:18:39.000Z</time>
      </trkpt>
      <trkpt lat="45.91608" lon="3.03328">
        <ele>555.66432</ele>
        <time>2021-03-25T14:18:43.000Z</time>
      </trkpt>
      <trkpt lat="45.9161" lon="3.03335">
        <ele>556.66439</ele>
        <time>2021-03-25T14:18:48.000Z</time>
      </trkpt>
      <trkpt lat="45.91606" lon="3.03346">
        <ele>554.66424</ele>
        <time>2021-03-25T14:18:53.000Z</time>
      </trkpt>
      <trkpt lat="45.91602" lon="3.03354">
        <ele>552.6641</ele>
        <time>2021-03-25T14:18:58.000Z</time>
      </trkpt>
      <trkpt lat="45.91601" lon="3.03358">
        <ele>552.66405</ele>
        <time>2021-03-25T14:19:02.000Z</time>
      </trkpt>
      <trkpt lat="45.91604" lon="3.03368">
        <ele>553.66415</ele>
        <time>2021-03-25T14:19:07.000Z</time>
      </trkpt>
      <trkpt lat="45.91603" lon="3.03375">
        <ele>551.66411</ele>
        <time>2021-03-25T14:19:12.000Z</time>
      </trkpt>
      <trkpt lat="45.91602" lon="3.03381">
        <ele>551.66407</ele>
        <time>2021-03-25T14:19:16.000Z</time>
      </trkpt>
      <trkpt lat="45.916" lon="3.03388">
        <ele>550.664</ele>
        <time>2021-03-25T14:19:20.000Z</time>
      </trkpt>
      <trkpt lat="45.91599" lon="3.03395">
        <ele>548.66394</ele>
        <time>2021-03-25T14:19:24.000Z</time>
      </trkpt>
      <trkpt lat="45.91596" lon="3.03399">
        <ele>547.66384</ele>
        <time>2021-03-25T14:19:28.000Z</time>
      </trkpt>
      <trkpt lat="45.91594" lon="3.03407">
        <ele>548.66375</ele>
        <time>2021-03-25T14:19:32.000Z</time>
      </trkpt>
      <trkpt lat="45.91593" lon="3.03416">
        <ele>545.66373</ele>
        <time>2021-03-25T14:19:36.000Z</time>
      </trkpt>
      <trkpt lat="45.91592" lon="3.03422">
        <ele>543.66367</ele>
        <time>2021-03-25T14:19:40.000Z</time>
      </trkpt>
      <trkpt lat="45.91585" lon="3.03427">
        <ele>541.66342</ele>
        <time>2021-03-25T14:19:44.000Z</time>
      </trkpt>
      <trkpt lat="45.91578" lon="3.03432">
        <ele>540.66314</ele>
        <time>2021-03-25T14:19:49.000Z</time>
      </trkpt>
      <trkpt lat="45.91575" lon="3.03438">
        <ele>539.66298</ele>
        <time>2021-03-25T14:19:53.000Z</time>
      </trkpt>
      <trkpt lat="45.91572" lon="3.03448">
        <ele>537.66286</ele>
        <time>2021-03-25T14:19:58.000Z</time>
      </trkpt>
      <trkpt lat="45.91567" lon="3.03454">
        <ele>535.66268</ele>
        <time>2021-03-25T14:20:02.000Z</time>
      </trkpt>
      <trkpt lat="45.91563" lon="3.03459">
        <ele>535.66252</ele>
        <time>2021-03-25T14:20:06.000Z</time>
      </trkpt>
      <trkpt lat="45.91559" lon="3.03462">
        <ele>535.66235</ele>
        <time>2021-03-25T14:20:15.000Z</time>
      </trkpt>
      <trkpt lat="45.91555" lon="3.03464">
        <ele>537.66221</ele>
        <time>2021-03-25T14:20:20.000Z</time>
      </trkpt>
      <trkpt lat="45.91551" lon="3.03466">
        <ele>540.66205</ele>
        <time>2021-03-25T14:20:26.000Z</time>
      </trkpt>
      <trkpt lat="45.91547" lon="3.03468">
        <ele>540.66187</ele>
        <time>2021-03-25T14:20:29.000Z</time>
      </trkpt>
      <trkpt lat="45.9154" lon="3.03474">
        <ele>539.6616</ele>
        <time>2021-03-25T14:20:33.000Z</time>
      </trkpt>
      <trkpt lat="45.91534" lon="3.03481">
        <ele>538.66136</ele>
        <time>2021-03-25T14:20:38.000Z</time>
      </trkpt>
      <trkpt lat="45.91528" lon="3.03486">
        <ele>538.66113</ele>
        <time>2021-03-25T14:20:43.000Z</time>
      </trkpt>
      <trkpt lat="45.91523" lon="3.03488">
        <ele>538.66093</ele>
        <time>2021-03-25T14:20:47.000Z</time>
      </trkpt>
      <trkpt lat="45.91519" lon="3.03494">
        <ele>538.66074</ele>
        <time>2021-03-25T14:20:51.000Z</time>
      </trkpt>
      <trkpt lat="45.91514" lon="3.03499">
        <ele>537.66056</ele>
        <time>2021-03-25T14:20:55.000Z</time>
      </trkpt>
      <trkpt lat="45.91511" lon="3.03503">
        <ele>537.66043</ele>
        <time>2021-03-25T14:21:00.000Z</time>
      </trkpt>
      <trkpt lat="45.91506" lon="3.03509">
        <ele>535.66024</ele>
        <time>2021-03-25T14:21:04.000Z</time>
      </trkpt>
      <trkpt lat="45.91499" lon="3.03514">
        <ele>535.65996</ele>
        <time>2021-03-25T14:21:08.000Z</time>
      </trkpt>
      <trkpt lat="45.91493" lon="3.03518">
        <ele>532.6597</ele>
        <time>2021-03-25T14:21:13.000Z</time>
      </trkpt>
      <trkpt lat="45.91488" lon="3.0352">
        <ele>530.6595</ele>
        <time>2021-03-25T14:21:17.000Z</time>
      </trkpt>
      <trkpt lat="45.91483" lon="3.03523">
        <ele>528.65933</ele>
        <time>2021-03-25T14:21:21.000Z</time>
      </trkpt>
      <trkpt lat="45.91479" lon="3.03524">
        <ele>530.65917</ele>
        <time>2021-03-25T14:21:25.000Z</time>
      </trkpt>
      <trkpt lat="45.91474" lon="3.03525">
        <ele>530.65895</ele>
        <time>2021-03-25T14:21:30.000Z</time>
      </trkpt>
      <trkpt lat="45.91471" lon="3.03528">
        <ele>532.65883</ele>
        <time>2021-03-25T14:21:34.000Z</time>
      </trkpt>
      <trkpt lat="45.91467" lon="3.03529">
        <ele>532.65868</ele>
        <time>2021-03-25T14:21:38.000Z</time>
      </trkpt>
      <trkpt lat="45.91467" lon="3.03529">
        <ele>532.65868</ele>
        <time>2021-03-25T14:21:38.000Z</time>
      </trkpt>
      <trkpt lat="45.91463" lon="3.03529">
        <ele>531.65853</ele>
        <time>2021-03-25T14:21:43.000Z</time>
      </trkpt>
      <trkpt lat="45.9146" lon="3.03532">
        <ele>534.65839</ele>
        <time>2021-03-25T14:21:54.000Z</time>
      </trkpt>
      <trkpt lat="45.9146" lon="3.03539">
        <ele>535.65839</ele>
        <time>2021-03-25T14:22:03.000Z</time>
      </trkpt>
      <trkpt lat="45.91464" lon="3.03541">
        <ele>537.65855</ele>
        <time>2021-03-25T14:22:11.000Z</time>
      </trkpt>
      <trkpt lat="45.91467" lon="3.03544">
        <ele>535.65868</ele>
        <time>2021-03-25T14:22:18.000Z</time>
      </trkpt>
      <trkpt lat="45.91471" lon="3.0355">
        <ele>535.65883</ele>
        <time>2021-03-25T14:22:23.000Z</time>
      </trkpt>
      <trkpt lat="45.91473" lon="3.03556">
        <ele>535.65892</ele>
        <time>2021-03-25T14:22:29.000Z</time>
      </trkpt>
      <trkpt lat="45.91477" lon="3.03557">
        <ele>535.65908</ele>
        <time>2021-03-25T14:22:36.000Z</time>
      </trkpt>
      <trkpt lat="45.91481" lon="3.03562">
        <ele>536.65924</ele>
        <time>2021-03-25T14:22:40.000Z</time>
      </trkpt>
      <trkpt lat="45.91485" lon="3.03566">
        <ele>536.6594</ele>
        <time>2021-03-25T14:22:44.000Z</time>
      </trkpt>
      <trkpt lat="45.9149" lon="3.03572">
        <ele>536.65959</ele>
        <time>2021-03-25T14:22:48.000Z</time>
      </trkpt>
      <trkpt lat="45.91493" lon="3.03578">
        <ele>535.65972</ele>
        <time>2021-03-25T14:22:52.000Z</time>
      </trkpt>
      <trkpt lat="45.91498" lon="3.03584">
        <ele>534.6599</ele>
        <time>2021-03-25T14:22:57.000Z</time>
      </trkpt>
      <trkpt lat="45.91501" lon="3.03591">
        <ele>534.66005</ele>
        <time>2021-03-25T14:23:01.000Z</time>
      </trkpt>
      <trkpt lat="45.91502" lon="3.03599">
        <ele>534.6601</ele>
        <time>2021-03-25T14:23:06.000Z</time>
      </trkpt>
      <trkpt lat="45.91504" lon="3.03605">
        <ele>534.66018</ele>
        <time>2021-03-25T14:23:10.000Z</time>
      </trkpt>
      <trkpt lat="45.91511" lon="3.03613">
        <ele>541.66044</ele>
        <time>2021-03-25T14:23:14.000Z</time>
      </trkpt>
      <trkpt lat="45.91519" lon="3.03624">
        <ele>540.66076</ele>
        <time>2021-03-25T14:23:19.000Z</time>
      </trkpt>
      <trkpt lat="45.91518" lon="3.03626">
        <ele>536.66072</ele>
        <time>2021-03-25T14:23:30.000Z</time>
      </trkpt>
      <trkpt lat="45.91513" lon="3.03624">
        <ele>533.66051</ele>
        <time>2021-03-25T14:23:35.000Z</time>
      </trkpt>
      <trkpt lat="45.91512" lon="3.03629">
        <ele>532.66047</ele>
        <time>2021-03-25T14:23:40.000Z</time>
      </trkpt>
      <trkpt lat="45.91515" lon="3.03635">
        <ele>532.6606</ele>
        <time>2021-03-25T14:23:45.000Z</time>
      </trkpt>
      <trkpt lat="45.91514" lon="3.03641">
        <ele>530.66056</ele>
        <time>2021-03-25T14:23:50.000Z</time>
      </trkpt>
      <trkpt lat="45.91514" lon="3.03647">
        <ele>529.66056</ele>
        <time>2021-03-25T14:23:58.000Z</time>
      </trkpt>
      <trkpt lat="45.91515" lon="3.03652">
        <ele>528.66062</ele>
        <time>2021-03-25T14:24:02.000Z</time>
      </trkpt>
      <trkpt lat="45.91521" lon="3.03661">
        <ele>527.66082</ele>
        <time>2021-03-25T14:24:07.000Z</time>
      </trkpt>
      <trkpt lat="45.91523" lon="3.03665">
        <ele>526.66091</ele>
        <time>2021-03-25T14:24:11.000Z</time>
      </trkpt>
      <trkpt lat="45.91524" lon="3.03669">
        <ele>525.66094</ele>
        <time>2021-03-25T14:24:16.000Z</time>
      </trkpt>
      <trkpt lat="45.91527" lon="3.03675">
        <ele>526.66107</ele>
        <time>2021-03-25T14:24:20.000Z</time>
      </trkpt>
      <trkpt lat="45.9153" lon="3.03679">
        <ele>526.66121</ele>
        <time>2021-03-25T14:24:24.000Z</time>
      </trkpt>
      <trkpt lat="45.91531" lon="3.03685">
        <ele>525.66122</ele>
        <time>2021-03-25T14:24:30.000Z</time>
      </trkpt>
      <trkpt lat="45.91535" lon="3.03695">
        <ele>525.66141</ele>
        <time>2021-03-25T14:24:35.000Z</time>
      </trkpt>
      <trkpt lat="45.91537" lon="3.03703">
        <ele>523.66146</ele>
        <time>2021-03-25T14:24:39.000Z</time>
      </trkpt>
      <trkpt lat="45.91537" lon="3.03713">
        <ele>522.66148</ele>
        <time>2021-03-25T14:24:43.000Z</time>
      </trkpt>
      <trkpt lat="45.91535" lon="3.03719">
        <ele>520.66139</ele>
        <time>2021-03-25T14:24:47.000Z</time>
      </trkpt>
      <trkpt lat="45.91536" lon="3.03728">
        <ele>520.66142</ele>
        <time>2021-03-25T14:24:51.000Z</time>
      </trkpt>
      <trkpt lat="45.91535" lon="3.03738">
        <ele>519.66139</ele>
        <time>2021-03-25T14:24:55.000Z</time>
      </trkpt>
      <trkpt lat="45.91534" lon="3.03749">
        <ele>518.66134</ele>
        <time>2021-03-25T14:25:00.000Z</time>
      </trkpt>
      <trkpt lat="45.91533" lon="3.03757">
        <ele>516.66131</ele>
        <time>2021-03-25T14:25:04.000Z</time>
      </trkpt>
      <trkpt lat="45.9153" lon="3.03766">
        <ele>517.6612</ele>
        <time>2021-03-25T14:25:09.000Z</time>
      </trkpt>
      <trkpt lat="45.91527" lon="3.03773">
        <ele>516.66108</ele>
        <time>2021-03-25T14:25:14.000Z</time>
      </trkpt>
      <trkpt lat="45.91525" lon="3.03783">
        <ele>515.66102</ele>
        <time>2021-03-25T14:25:18.000Z</time>
      </trkpt>
      <trkpt lat="45.91523" lon="3.03792">
        <ele>514.6609</ele>
        <time>2021-03-25T14:25:23.000Z</time>
      </trkpt>
      <trkpt lat="45.91523" lon="3.03802">
        <ele>511.66093</ele>
        <time>2021-03-25T14:25:27.000Z</time>
      </trkpt>
      <trkpt lat="45.91522" lon="3.03812">
        <ele>510.66089</ele>
        <time>2021-03-25T14:25:32.000Z</time>
      </trkpt>
      <trkpt lat="45.91521" lon="3.03818">
        <ele>510.66084</ele>
        <time>2021-03-25T14:25:36.000Z</time>
      </trkpt>
      <trkpt lat="45.9152" lon="3.03825">
        <ele>509.6608</ele>
        <time>2021-03-25T14:25:40.000Z</time>
      </trkpt>
      <trkpt lat="45.91517" lon="3.03832">
        <ele>509.66069</ele>
        <time>2021-03-25T14:25:45.000Z</time>
      </trkpt>
      <trkpt lat="45.91513" lon="3.03839">
        <ele>509.66053</ele>
        <time>2021-03-25T14:25:50.000Z</time>
      </trkpt>
      <trkpt lat="45.91511" lon="3.03845">
        <ele>507.66042</ele>
        <time>2021-03-25T14:25:54.000Z</time>
      </trkpt>
      <trkpt lat="45.91506" lon="3.0385">
        <ele>507.66026</ele>
        <time>2021-03-25T14:25:58.000Z</time>
      </trkpt>
      <trkpt lat="45.91506" lon="3.03856">
        <ele>507.66023</ele>
        <time>2021-03-25T14:26:03.000Z</time>
      </trkpt>
      <trkpt lat="45.91503" lon="3.03867">
        <ele>508.66011</ele>
        <time>2021-03-25T14:26:08.000Z</time>
      </trkpt>
      <trkpt lat="45.91505" lon="3.03872">
        <ele>509.66019</ele>
        <time>2021-03-25T14:26:12.000Z</time>
      </trkpt>
      <trkpt lat="45.91505" lon="3.03878">
        <ele>507.66021</ele>
        <time>2021-03-25T14:26:15.000Z</time>
      </trkpt>
      <trkpt lat="45.91506" lon="3.03885">
        <ele>507.66022</ele>
        <time>2021-03-25T14:26:20.000Z</time>
      </trkpt>
      <trkpt lat="45.91505" lon="3.03891">
        <ele>510.6602</ele>
        <time>2021-03-25T14:26:24.000Z</time>
      </trkpt>
      <trkpt lat="45.91506" lon="3.03897">
        <ele>511.66025</ele>
        <time>2021-03-25T14:26:28.000Z</time>
      </trkpt>
      <trkpt lat="45.91505" lon="3.03905">
        <ele>512.6602</ele>
        <time>2021-03-25T14:26:33.000Z</time>
      </trkpt>
      <trkpt lat="45.91504" lon="3.03911">
        <ele>512.66016</ele>
        <time>2021-03-25T14:26:38.000Z</time>
      </trkpt>
      <trkpt lat="45.91508" lon="3.03914">
        <ele>511.66031</ele>
        <time>2021-03-25T14:26:42.000Z</time>
      </trkpt>
      <trkpt lat="45.91511" lon="3.03919">
        <ele>512.66044</ele>
        <time>2021-03-25T14:26:46.000Z</time>
      </trkpt>
      <trkpt lat="45.91516" lon="3.03927">
        <ele>513.66062</ele>
        <time>2021-03-25T14:26:51.000Z</time>
      </trkpt>
      <trkpt lat="45.91519" lon="3.03931">
        <ele>511.66075</ele>
        <time>2021-03-25T14:26:55.000Z</time>
      </trkpt>
      <trkpt lat="45.9152" lon="3.03939">
        <ele>511.66082</ele>
        <time>2021-03-25T14:27:00.000Z</time>
      </trkpt>
      <trkpt lat="45.91521" lon="3.03948">
        <ele>509.66082</ele>
        <time>2021-03-25T14:27:04.000Z</time>
      </trkpt>
      <trkpt lat="45.91522" lon="3.03954">
        <ele>509.66088</ele>
        <time>2021-03-25T14:27:09.000Z</time>
      </trkpt>
      <trkpt lat="45.91525" lon="3.03963">
        <ele>507.66101</ele>
        <time>2021-03-25T14:27:14.000Z</time>
      </trkpt>
      <trkpt lat="45.91527" lon="3.0397">
        <ele>508.6611</ele>
        <time>2021-03-25T14:27:18.000Z</time>
      </trkpt>
      <trkpt lat="45.91527" lon="3.03977">
        <ele>506.66109</ele>
        <time>2021-03-25T14:27:22.000Z</time>
      </trkpt>
      <trkpt lat="45.91529" lon="3.03985">
        <ele>504.66115</ele>
        <time>2021-03-25T14:27:26.000Z</time>
      </trkpt>
      <trkpt lat="45.9153" lon="3.0399">
        <ele>503.66121</ele>
        <time>2021-03-25T14:27:31.000Z</time>
      </trkpt>
      <trkpt lat="45.91534" lon="3.03996">
        <ele>505.66134</ele>
        <time>2021-03-25T14:27:35.000Z</time>
      </trkpt>
      <trkpt lat="45.91538" lon="3.04004">
        <ele>503.66151</ele>
        <time>2021-03-25T14:27:40.000Z</time>
      </trkpt>
      <trkpt lat="45.9154" lon="3.0401">
        <ele>501.66161</ele>
        <time>2021-03-25T14:27:45.000Z</time>
      </trkpt>
      <trkpt lat="45.91543" lon="3.04018">
        <ele>501.6617</ele>
        <time>2021-03-25T14:27:49.000Z</time>
      </trkpt>
      <trkpt lat="45.91545" lon="3.04026">
        <ele>500.66178</ele>
        <time>2021-03-25T14:27:54.000Z</time>
      </trkpt>
      <trkpt lat="45.91547" lon="3.04033">
        <ele>501.6619</ele>
        <time>2021-03-25T14:27:59.000Z</time>
      </trkpt>
      <trkpt lat="45.9155" lon="3.04038">
        <ele>500.662</ele>
        <time>2021-03-25T14:28:04.000Z</time>
      </trkpt>
      <trkpt lat="45.91553" lon="3.04042">
        <ele>501.6621</ele>
        <time>2021-03-25T14:28:08.000Z</time>
      </trkpt>
      <trkpt lat="45.91555" lon="3.04046">
        <ele>502.6622</ele>
        <time>2021-03-25T14:28:12.000Z</time>
      </trkpt>
      <trkpt lat="45.91557" lon="3.04054">
        <ele>500.66227</ele>
        <time>2021-03-25T14:28:17.000Z</time>
      </trkpt>
      <trkpt lat="45.91556" lon="3.0406">
        <ele>498.66222</ele>
        <time>2021-03-25T14:28:26.000Z</time>
      </trkpt>
      <trkpt lat="45.91556" lon="3.04054">
        <ele>494.66224</ele>
        <time>2021-03-25T14:28:39.000Z</time>
      </trkpt>
      <trkpt lat="45.91558" lon="3.04049">
        <ele>490.6623</ele>
        <time>2021-03-25T14:28:44.000Z</time>
      </trkpt>
      <trkpt lat="45.91557" lon="3.04043">
        <ele>488.6623</ele>
        <time>2021-03-25T14:28:49.000Z</time>
      </trkpt>
      <trkpt lat="45.91557" lon="3.04043">
        <ele>488.6623</ele>
        <time>2021-03-25T14:28:49.000Z</time>
      </trkpt>
      <trkpt lat="45.91561" lon="3.04038">
        <ele>487.66242</ele>
        <time>2021-03-25T14:28:54.000Z</time>
      </trkpt>
      <trkpt lat="45.91564" lon="3.04036">
        <ele>490.66256</ele>
        <time>2021-03-25T14:29:00.000Z</time>
      </trkpt>
      <trkpt lat="45.91566" lon="3.04041">
        <ele>489.66262</ele>
        <time>2021-03-25T14:29:05.000Z</time>
      </trkpt>
      <trkpt lat="45.9157" lon="3.04043">
        <ele>487.66281</ele>
        <time>2021-03-25T14:29:10.000Z</time>
      </trkpt>
      <trkpt lat="45.91573" lon="3.0404">
        <ele>485.66292</ele>
        <time>2021-03-25T14:29:13.000Z</time>
      </trkpt>
      <trkpt lat="45.91574" lon="3.04046">
        <ele>482.66297</ele>
        <time>2021-03-25T14:29:59.000Z</time>
      </trkpt>
      <trkpt lat="45.91577" lon="3.0405">
        <ele>483.66308</ele>
        <time>2021-03-25T14:30:06.000Z</time>
      </trkpt>
      <trkpt lat="45.9158" lon="3.04047">
        <ele>480.6632</ele>
        <time>2021-03-25T14:30:25.000Z</time>
      </trkpt>
      <trkpt lat="45.91581" lon="3.04041">
        <ele>481.66325</ele>
        <time>2021-03-25T14:30:36.000Z</time>
      </trkpt>
      <trkpt lat="45.91581" lon="3.04036">
        <ele>482.66325</ele>
        <time>2021-03-25T14:30:41.000Z</time>
      </trkpt>
      <trkpt lat="45.91579" lon="3.0403">
        <ele>482.66316</ele>
        <time>2021-03-25T14:30:45.000Z</time>
      </trkpt>
      <trkpt lat="45.91581" lon="3.04033">
        <ele>483.66324</ele>
        <time>2021-03-25T14:30:49.000Z</time>
      </trkpt>
      <trkpt lat="45.91583" lon="3.04038">
        <ele>486.66331</ele>
        <time>2021-03-25T14:31:01.000Z</time>
      </trkpt>
      <trkpt lat="45.9159" lon="3.04041">
        <ele>485.66359</ele>
        <time>2021-03-25T14:31:05.000Z</time>
      </trkpt>
      <trkpt lat="45.91587" lon="3.04045">
        <ele>485.66346</ele>
        <time>2021-03-25T14:31:16.000Z</time>
      </trkpt>
      <trkpt lat="45.91583" lon="3.04043">
        <ele>484.66331</ele>
        <time>2021-03-25T14:33:08.000Z</time>
      </trkpt>
      <trkpt lat="45.91579" lon="3.04045">
        <ele>485.66314</ele>
        <time>2021-03-25T14:33:13.000Z</time>
      </trkpt>
      <trkpt lat="45.91575" lon="3.04044">
        <ele>487.66299</ele>
        <time>2021-03-25T14:33:37.000Z</time>
      </trkpt>
      <trkpt lat="45.91572" lon="3.04044">
        <ele>490.66289</ele>
        <time>2021-03-25T14:34:06.000Z</time>
      </trkpt>
      <trkpt lat="45.91569" lon="3.0404">
        <ele>487.66277</ele>
        <time>2021-03-25T14:34:51.000Z</time>
      </trkpt>
      <trkpt lat="45.91567" lon="3.04042">
        <ele>485.66267</ele>
        <time>2021-03-25T14:35:46.000Z</time>
      </trkpt>
      <trkpt lat="45.91564" lon="3.04039">
        <ele>485.66256</ele>
        <time>2021-03-25T14:35:57.000Z</time>
      </trkpt>
      <trkpt lat="45.91563" lon="3.04031">
        <ele>484.66252</ele>
        <time>2021-03-25T14:36:02.000Z</time>
      </trkpt>
      <trkpt lat="45.91563" lon="3.04024">
        <ele>483.66253</ele>
        <time>2021-03-25T14:36:06.000Z</time>
      </trkpt>
      <trkpt lat="45.91564" lon="3.04018">
        <ele>484.66254</ele>
        <time>2021-03-25T14:36:10.000Z</time>
      </trkpt>
      <trkpt lat="45.91562" lon="3.04012">
        <ele>485.6625</ele>
        <time>2021-03-25T14:36:15.000Z</time>
      </trkpt>
      <trkpt lat="45.91562" lon="3.04005">
        <ele>485.66249</ele>
        <time>2021-03-25T14:36:20.000Z</time>
      </trkpt>
      <trkpt lat="45.91562" lon="3.03999">
        <ele>486.66249</ele>
        <time>2021-03-25T14:36:25.000Z</time>
      </trkpt>
      <trkpt lat="45.91561" lon="3.03992">
        <ele>486.66245</ele>
        <time>2021-03-25T14:36:29.000Z</time>
      </trkpt>
      <trkpt lat="45.9156" lon="3.03986">
        <ele>486.66239</ele>
        <time>2021-03-25T14:36:33.000Z</time>
      </trkpt>
      <trkpt lat="45.91561" lon="3.0398">
        <ele>484.66242</ele>
        <time>2021-03-25T14:36:37.000Z</time>
      </trkpt>
      <trkpt lat="45.9156" lon="3.03975">
        <ele>484.66238</ele>
        <time>2021-03-25T14:36:40.000Z</time>
      </trkpt>
      <trkpt lat="45.91558" lon="3.03964">
        <ele>485.66234</ele>
        <time>2021-03-25T14:36:45.000Z</time>
      </trkpt>
      <trkpt lat="45.91559" lon="3.03956">
        <ele>485.66237</ele>
        <time>2021-03-25T14:36:50.000Z</time>
      </trkpt>
      <trkpt lat="45.91559" lon="3.03948">
        <ele>486.66236</ele>
        <time>2021-03-25T14:36:54.000Z</time>
      </trkpt>
      <trkpt lat="45.91561" lon="3.03942">
        <ele>486.66245</ele>
        <time>2021-03-25T14:36:59.000Z</time>
      </trkpt>
      <trkpt lat="45.91564" lon="3.03933">
        <ele>485.66256</ele>
        <time>2021-03-25T14:37:03.000Z</time>
      </trkpt>
      <trkpt lat="45.91564" lon="3.03927">
        <ele>483.66256</ele>
        <time>2021-03-25T14:37:08.000Z</time>
      </trkpt>
      <trkpt lat="45.91566" lon="3.03916">
        <ele>486.66262</ele>
        <time>2021-03-25T14:37:13.000Z</time>
      </trkpt>
      <trkpt lat="45.91566" lon="3.03908">
        <ele>484.66263</ele>
        <time>2021-03-25T14:37:18.000Z</time>
      </trkpt>
      <trkpt lat="45.91565" lon="3.039">
        <ele>486.66262</ele>
        <time>2021-03-25T14:37:23.000Z</time>
      </trkpt>
      <trkpt lat="45.91566" lon="3.03895">
        <ele>488.66264</ele>
        <time>2021-03-25T14:37:28.000Z</time>
      </trkpt>
      <trkpt lat="45.91565" lon="3.03889">
        <ele>489.66258</ele>
        <time>2021-03-25T14:37:34.000Z</time>
      </trkpt>
      <trkpt lat="45.91565" lon="3.03878">
        <ele>489.66262</ele>
        <time>2021-03-25T14:37:38.000Z</time>
      </trkpt>
      <trkpt lat="45.91565" lon="3.0387">
        <ele>489.66261</ele>
        <time>2021-03-25T14:37:43.000Z</time>
      </trkpt>
      <trkpt lat="45.91566" lon="3.03865">
        <ele>488.66263</ele>
        <time>2021-03-25T14:37:46.000Z</time>
      </trkpt>
      <trkpt lat="45.91565" lon="3.0386">
        <ele>488.66259</ele>
        <time>2021-03-25T14:37:51.000Z</time>
      </trkpt>
      <trkpt lat="45.91563" lon="3.03855">
        <ele>488.66252</ele>
        <time>2021-03-25T14:37:56.000Z</time>
      </trkpt>
      <trkpt lat="45.91562" lon="3.03847">
        <ele>489.66249</ele>
        <time>2021-03-25T14:38:00.000Z</time>
      </trkpt>
      <trkpt lat="45.91563" lon="3.03842">
        <ele>487.66251</ele>
        <time>2021-03-25T14:38:07.000Z</time>
      </trkpt>
      <trkpt lat="45.91565" lon="3.03836">
        <ele>487.66261</ele>
        <time>2021-03-25T14:38:11.000Z</time>
      </trkpt>
      <trkpt lat="45.91569" lon="3.03823">
        <ele>488.66276</ele>
        <time>2021-03-25T14:38:16.000Z</time>
      </trkpt>
      <trkpt lat="45.9157" lon="3.03815">
        <ele>487.66279</ele>
        <time>2021-03-25T14:38:20.000Z</time>
      </trkpt>
      <trkpt lat="45.91573" lon="3.03811">
        <ele>488.66291</ele>
        <time>2021-03-25T14:38:24.000Z</time>
      </trkpt>
      <trkpt lat="45.91576" lon="3.03804">
        <ele>489.66304</ele>
        <time>2021-03-25T14:38:28.000Z</time>
      </trkpt>
      <trkpt lat="45.91579" lon="3.038">
        <ele>492.66316</ele>
        <time>2021-03-25T14:38:34.000Z</time>
      </trkpt>
      <trkpt lat="45.91581" lon="3.03795">
        <ele>492.66323</ele>
        <time>2021-03-25T14:38:38.000Z</time>
      </trkpt>
      <trkpt lat="45.91583" lon="3.03788">
        <ele>491.6633</ele>
        <time>2021-03-25T14:38:43.000Z</time>
      </trkpt>
      <trkpt lat="45.91588" lon="3.03787">
        <ele>493.66354</ele>
        <time>2021-03-25T14:38:48.000Z</time>
      </trkpt>
      <trkpt lat="45.91589" lon="3.0378">
        <ele>494.66355</ele>
        <time>2021-03-25T14:38:53.000Z</time>
      </trkpt>
      <trkpt lat="45.91593" lon="3.03774">
        <ele>496.66371</ele>
        <time>2021-03-25T14:38:58.000Z</time>
      </trkpt>
      <trkpt lat="45.91596" lon="3.03772">
        <ele>496.66382</ele>
        <time>2021-03-25T14:39:04.000Z</time>
      </trkpt>
      <trkpt lat="45.91599" lon="3.03766">
        <ele>498.66396</ele>
        <time>2021-03-25T14:39:09.000Z</time>
      </trkpt>
      <trkpt lat="45.91604" lon="3.03771">
        <ele>499.66417</ele>
        <time>2021-03-25T14:39:14.000Z</time>
      </trkpt>
      <trkpt lat="45.91608" lon="3.0378">
        <ele>500.6643</ele>
        <time>2021-03-25T14:39:19.000Z</time>
      </trkpt>
      <trkpt lat="45.9161" lon="3.03787">
        <ele>501.66439</ele>
        <time>2021-03-25T14:39:23.000Z</time>
      </trkpt>
      <trkpt lat="45.91612" lon="3.03795">
        <ele>502.66447</ele>
        <time>2021-03-25T14:39:28.000Z</time>
      </trkpt>
      <trkpt lat="45.91613" lon="3.03802">
        <ele>500.66452</ele>
        <time>2021-03-25T14:39:33.000Z</time>
      </trkpt>
      <trkpt lat="45.91614" lon="3.03809">
        <ele>501.66457</ele>
        <time>2021-03-25T14:39:38.000Z</time>
      </trkpt>
      <trkpt lat="45.91614" lon="3.03809">
        <ele>501.66457</ele>
        <time>2021-03-25T14:39:38.000Z</time>
      </trkpt>
      <trkpt lat="45.91613" lon="3.03815">
        <ele>502.66452</ele>
        <time>2021-03-25T14:39:42.000Z</time>
      </trkpt>
      <trkpt lat="45.91611" lon="3.03823">
        <ele>501.66442</ele>
        <time>2021-03-25T14:39:46.000Z</time>
      </trkpt>
      <trkpt lat="45.9161" lon="3.03832">
        <ele>501.6644</ele>
        <time>2021-03-25T14:39:50.000Z</time>
      </trkpt>
      <trkpt lat="45.9161" lon="3.03841">
        <ele>501.66439</ele>
        <time>2021-03-25T14:39:55.000Z</time>
      </trkpt>
      <trkpt lat="45.9161" lon="3.03848">
        <ele>502.66442</ele>
        <time>2021-03-25T14:40:00.000Z</time>
      </trkpt>
      <trkpt lat="45.91608" lon="3.03853">
        <ele>503.66432</ele>
        <time>2021-03-25T14:40:04.000Z</time>
      </trkpt>
      <trkpt lat="45.91609" lon="3.03862">
        <ele>504.66436</ele>
        <time>2021-03-25T14:40:08.000Z</time>
      </trkpt>
      <trkpt lat="45.91608" lon="3.0387">
        <ele>504.66432</ele>
        <time>2021-03-25T14:40:12.000Z</time>
      </trkpt>
      <trkpt lat="45.91607" lon="3.03877">
        <ele>502.66429</ele>
        <time>2021-03-25T14:40:16.000Z</time>
      </trkpt>
      <trkpt lat="45.91607" lon="3.03884">
        <ele>502.66428</ele>
        <time>2021-03-25T14:40:21.000Z</time>
      </trkpt>
      <trkpt lat="45.91607" lon="3.03893">
        <ele>503.66427</ele>
        <time>2021-03-25T14:40:26.000Z</time>
      </trkpt>
      <trkpt lat="45.91608" lon="3.039">
        <ele>502.66432</ele>
        <time>2021-03-25T14:40:30.000Z</time>
      </trkpt>
      <trkpt lat="45.91609" lon="3.03905">
        <ele>504.66437</ele>
        <time>2021-03-25T14:40:36.000Z</time>
      </trkpt>
      <trkpt lat="45.9161" lon="3.03914">
        <ele>504.66439</ele>
        <time>2021-03-25T14:40:40.000Z</time>
      </trkpt>
      <trkpt lat="45.9161" lon="3.03921">
        <ele>502.66438</ele>
        <time>2021-03-25T14:40:45.000Z</time>
      </trkpt>
      <trkpt lat="45.91609" lon="3.03927">
        <ele>502.66435</ele>
        <time>2021-03-25T14:40:50.000Z</time>
      </trkpt>
      <trkpt lat="45.91609" lon="3.03935">
        <ele>502.66436</ele>
        <time>2021-03-25T14:40:55.000Z</time>
      </trkpt>
      <trkpt lat="45.91609" lon="3.03945">
        <ele>503.66438</ele>
        <time>2021-03-25T14:41:00.000Z</time>
      </trkpt>
      <trkpt lat="45.91611" lon="3.0395">
        <ele>503.66444</ele>
        <time>2021-03-25T14:41:04.000Z</time>
      </trkpt>
      <trkpt lat="45.91612" lon="3.03957">
        <ele>503.66448</ele>
        <time>2021-03-25T14:41:08.000Z</time>
      </trkpt>
      <trkpt lat="45.91615" lon="3.03965">
        <ele>503.66461</ele>
        <time>2021-03-25T14:41:13.000Z</time>
      </trkpt>
      <trkpt lat="45.91616" lon="3.0397">
        <ele>503.66466</ele>
        <time>2021-03-25T14:41:17.000Z</time>
      </trkpt>
      <trkpt lat="45.91618" lon="3.03978">
        <ele>503.6647</ele>
        <time>2021-03-25T14:41:21.000Z</time>
      </trkpt>
      <trkpt lat="45.91619" lon="3.03984">
        <ele>502.66474</ele>
        <time>2021-03-25T14:41:26.000Z</time>
      </trkpt>
      <trkpt lat="45.91621" lon="3.03992">
        <ele>502.66483</ele>
        <time>2021-03-25T14:41:31.000Z</time>
      </trkpt>
      <trkpt lat="45.91623" lon="3.03999">
        <ele>505.66493</ele>
        <time>2021-03-25T14:41:36.000Z</time>
      </trkpt>
      <trkpt lat="45.91624" lon="3.04005">
        <ele>506.66497</ele>
        <time>2021-03-25T14:41:40.000Z</time>
      </trkpt>
      <trkpt lat="45.91626" lon="3.04009">
        <ele>506.66505</ele>
        <time>2021-03-25T14:41:44.000Z</time>
      </trkpt>
      <trkpt lat="45.91627" lon="3.04015">
        <ele>506.66509</ele>
        <time>2021-03-25T14:41:48.000Z</time>
      </trkpt>
      <trkpt lat="45.91631" lon="3.04024">
        <ele>506.66523</ele>
        <time>2021-03-25T14:41:53.000Z</time>
      </trkpt>
      <trkpt lat="45.91632" lon="3.04033">
        <ele>505.66526</ele>
        <time>2021-03-25T14:41:58.000Z</time>
      </trkpt>
      <trkpt lat="45.91633" lon="3.0404">
        <ele>507.66533</ele>
        <time>2021-03-25T14:42:03.000Z</time>
      </trkpt>
      <trkpt lat="45.91633" lon="3.04045">
        <ele>507.66531</ele>
        <time>2021-03-25T14:42:07.000Z</time>
      </trkpt>
      <trkpt lat="45.91635" lon="3.04052">
        <ele>507.66541</ele>
        <time>2021-03-25T14:42:11.000Z</time>
      </trkpt>
      <trkpt lat="45.91636" lon="3.0406">
        <ele>507.66545</ele>
        <time>2021-03-25T14:42:15.000Z</time>
      </trkpt>
      <trkpt lat="45.91638" lon="3.04066">
        <ele>506.66553</ele>
        <time>2021-03-25T14:42:20.000Z</time>
      </trkpt>
      <trkpt lat="45.91641" lon="3.0407">
        <ele>506.66563</ele>
        <time>2021-03-25T14:42:24.000Z</time>
      </trkpt>
      <trkpt lat="45.91644" lon="3.04075">
        <ele>506.66574</ele>
        <time>2021-03-25T14:42:29.000Z</time>
      </trkpt>
      <trkpt lat="45.91645" lon="3.04082">
        <ele>507.66581</ele>
        <time>2021-03-25T14:42:33.000Z</time>
      </trkpt>
      <trkpt lat="45.91647" lon="3.04091">
        <ele>507.66588</ele>
        <time>2021-03-25T14:42:37.000Z</time>
      </trkpt>
      <trkpt lat="45.91649" lon="3.04098">
        <ele>507.66596</ele>
        <time>2021-03-25T14:42:41.000Z</time>
      </trkpt>
      <trkpt lat="45.91649" lon="3.04106">
        <ele>505.66596</ele>
        <time>2021-03-25T14:42:45.000Z</time>
      </trkpt>
      <trkpt lat="45.91648" lon="3.04114">
        <ele>505.66592</ele>
        <time>2021-03-25T14:42:50.000Z</time>
      </trkpt>
      <trkpt lat="45.91651" lon="3.04121">
        <ele>506.66605</ele>
        <time>2021-03-25T14:42:54.000Z</time>
      </trkpt>
      <trkpt lat="45.91652" lon="3.04129">
        <ele>506.66607</ele>
        <time>2021-03-25T14:42:59.000Z</time>
      </trkpt>
      <trkpt lat="45.91655" lon="3.04134">
        <ele>507.66621</ele>
        <time>2021-03-25T14:43:03.000Z</time>
      </trkpt>
      <trkpt lat="45.91655" lon="3.04142">
        <ele>506.66621</ele>
        <time>2021-03-25T14:43:06.000Z</time>
      </trkpt>
      <trkpt lat="45.91656" lon="3.0415">
        <ele>505.66622</ele>
        <time>2021-03-25T14:43:11.000Z</time>
      </trkpt>
      <trkpt lat="45.91656" lon="3.04158">
        <ele>505.66624</ele>
        <time>2021-03-25T14:43:15.000Z</time>
      </trkpt>
      <trkpt lat="45.91656" lon="3.04166">
        <ele>503.66626</ele>
        <time>2021-03-25T14:43:20.000Z</time>
      </trkpt>
      <trkpt lat="45.91656" lon="3.04172">
        <ele>501.66625</ele>
        <time>2021-03-25T14:43:25.000Z</time>
      </trkpt>
      <trkpt lat="45.91657" lon="3.04179">
        <ele>502.66626</ele>
        <time>2021-03-25T14:43:29.000Z</time>
      </trkpt>
      <trkpt lat="45.91659" lon="3.04189">
        <ele>504.66635</ele>
        <time>2021-03-25T14:43:34.000Z</time>
      </trkpt>
      <trkpt lat="45.91658" lon="3.04198">
        <ele>504.66633</ele>
        <time>2021-03-25T14:43:39.000Z</time>
      </trkpt>
      <trkpt lat="45.91658" lon="3.04205">
        <ele>504.6663</ele>
        <time>2021-03-25T14:43:43.000Z</time>
      </trkpt>
      <trkpt lat="45.91658" lon="3.04211">
        <ele>503.66632</ele>
        <time>2021-03-25T14:43:47.000Z</time>
      </trkpt>
      <trkpt lat="45.91658" lon="3.04217">
        <ele>504.66632</ele>
        <time>2021-03-25T14:43:51.000Z</time>
      </trkpt>
      <trkpt lat="45.9166" lon="3.04227">
        <ele>503.66638</ele>
        <time>2021-03-25T14:43:56.000Z</time>
      </trkpt>
      <trkpt lat="45.91661" lon="3.04236">
        <ele>503.66643</ele>
        <time>2021-03-25T14:44:01.000Z</time>
      </trkpt>
      <trkpt lat="45.91662" lon="3.04243">
        <ele>503.66646</ele>
        <time>2021-03-25T14:44:06.000Z</time>
      </trkpt>
      <trkpt lat="45.91661" lon="3.04251">
        <ele>502.66644</ele>
        <time>2021-03-25T14:44:10.000Z</time>
      </trkpt>
      <trkpt lat="45.91661" lon="3.04258">
        <ele>502.66644</ele>
        <time>2021-03-25T14:44:14.000Z</time>
      </trkpt>
      <trkpt lat="45.91661" lon="3.04262">
        <ele>502.66642</ele>
        <time>2021-03-25T14:44:18.000Z</time>
      </trkpt>
      <trkpt lat="45.91661" lon="3.04274">
        <ele>501.66643</ele>
        <time>2021-03-25T14:44:23.000Z</time>
      </trkpt>
      <trkpt lat="45.91662" lon="3.04281">
        <ele>501.6665</ele>
        <time>2021-03-25T14:44:28.000Z</time>
      </trkpt>
      <trkpt lat="45.91663" lon="3.04291">
        <ele>501.6665</ele>
        <time>2021-03-25T14:44:32.000Z</time>
      </trkpt>
      <trkpt lat="45.91664" lon="3.04297">
        <ele>500.66657</ele>
        <time>2021-03-25T14:44:36.000Z</time>
      </trkpt>
      <trkpt lat="45.91666" lon="3.04305">
        <ele>502.66663</ele>
        <time>2021-03-25T14:44:41.000Z</time>
      </trkpt>
      <trkpt lat="45.91664" lon="3.04313">
        <ele>501.66657</ele>
        <time>2021-03-25T14:44:46.000Z</time>
      </trkpt>
      <trkpt lat="45.91665" lon="3.04318">
        <ele>500.66659</ele>
        <time>2021-03-25T14:44:49.000Z</time>
      </trkpt>
      <trkpt lat="45.91668" lon="3.0433">
        <ele>499.66671</ele>
        <time>2021-03-25T14:44:54.000Z</time>
      </trkpt>
      <trkpt lat="45.9167" lon="3.04338">
        <ele>498.66681</ele>
        <time>2021-03-25T14:44:59.000Z</time>
      </trkpt>
      <trkpt lat="45.91675" lon="3.04347">
        <ele>497.66701</ele>
        <time>2021-03-25T14:45:04.000Z</time>
      </trkpt>
      <trkpt lat="45.91678" lon="3.04356">
        <ele>498.66712</ele>
        <time>2021-03-25T14:45:09.000Z</time>
      </trkpt>
      <trkpt lat="45.91681" lon="3.04363">
        <ele>497.66722</ele>
        <time>2021-03-25T14:45:13.000Z</time>
      </trkpt>
      <trkpt lat="45.91682" lon="3.04369">
        <ele>497.66726</ele>
        <time>2021-03-25T14:45:17.000Z</time>
      </trkpt>
      <trkpt lat="45.91682" lon="3.04377">
        <ele>497.66728</ele>
        <time>2021-03-25T14:45:21.000Z</time>
      </trkpt>
      <trkpt lat="45.91683" lon="3.04385">
        <ele>497.6673</ele>
        <time>2021-03-25T14:45:25.000Z</time>
      </trkpt>
      <trkpt lat="45.91682" lon="3.0439">
        <ele>498.6673</ele>
        <time>2021-03-25T14:45:29.000Z</time>
      </trkpt>
      <trkpt lat="45.91684" lon="3.04401">
        <ele>499.66737</ele>
        <time>2021-03-25T14:45:34.000Z</time>
      </trkpt>
      <trkpt lat="45.91684" lon="3.04406">
        <ele>499.66736</ele>
        <time>2021-03-25T14:45:39.000Z</time>
      </trkpt>
      <trkpt lat="45.91686" lon="3.04413">
        <ele>499.66744</ele>
        <time>2021-03-25T14:45:43.000Z</time>
      </trkpt>
      <trkpt lat="45.91688" lon="3.04419">
        <ele>499.66751</ele>
        <time>2021-03-25T14:45:47.000Z</time>
      </trkpt>
      <trkpt lat="45.91689" lon="3.04428">
        <ele>499.66755</ele>
        <time>2021-03-25T14:45:51.000Z</time>
      </trkpt>
      <trkpt lat="45.9169" lon="3.04437">
        <ele>499.66761</ele>
        <time>2021-03-25T14:45:55.000Z</time>
      </trkpt>
      <trkpt lat="45.91689" lon="3.04442">
        <ele>498.66757</ele>
        <time>2021-03-25T14:45:59.000Z</time>
      </trkpt>
      <trkpt lat="45.91691" lon="3.04447">
        <ele>500.66765</ele>
        <time>2021-03-25T14:46:06.000Z</time>
      </trkpt>
      <trkpt lat="45.91694" lon="3.04451">
        <ele>500.66777</ele>
        <time>2021-03-25T14:46:11.000Z</time>
      </trkpt>
      <trkpt lat="45.91697" lon="3.04458">
        <ele>500.66789</ele>
        <time>2021-03-25T14:46:15.000Z</time>
      </trkpt>
      <trkpt lat="45.91698" lon="3.04468">
        <ele>498.6679</ele>
        <time>2021-03-25T14:46:20.000Z</time>
      </trkpt>
      <trkpt lat="45.91696" lon="3.04476">
        <ele>495.66786</ele>
        <time>2021-03-25T14:46:25.000Z</time>
      </trkpt>
      <trkpt lat="45.91695" lon="3.04483">
        <ele>494.6678</ele>
        <time>2021-03-25T14:46:29.000Z</time>
      </trkpt>
      <trkpt lat="45.91692" lon="3.04491">
        <ele>491.66766</ele>
        <time>2021-03-25T14:46:33.000Z</time>
      </trkpt>
      <trkpt lat="45.9169" lon="3.045">
        <ele>489.66758</ele>
        <time>2021-03-25T14:46:38.000Z</time>
      </trkpt>
      <trkpt lat="45.91689" lon="3.04506">
        <ele>489.66755</ele>
        <time>2021-03-25T14:46:43.000Z</time>
      </trkpt>
      <trkpt lat="45.91689" lon="3.04511">
        <ele>490.66756</ele>
        <time>2021-03-25T14:46:46.000Z</time>
      </trkpt>
      <trkpt lat="45.91687" lon="3.04516">
        <ele>492.66748</ele>
        <time>2021-03-25T14:46:51.000Z</time>
      </trkpt>
      <trkpt lat="45.91687" lon="3.04523">
        <ele>492.66748</ele>
        <time>2021-03-25T14:46:55.000Z</time>
      </trkpt>
      <trkpt lat="45.91688" lon="3.04529">
        <ele>492.66752</ele>
        <time>2021-03-25T14:46:59.000Z</time>
      </trkpt>
      <trkpt lat="45.91687" lon="3.04538">
        <ele>492.66749</ele>
        <time>2021-03-25T14:47:03.000Z</time>
      </trkpt>
      <trkpt lat="45.91687" lon="3.04549">
        <ele>492.66747</ele>
        <time>2021-03-25T14:47:08.000Z</time>
      </trkpt>
      <trkpt lat="45.91688" lon="3.04558">
        <ele>492.66752</ele>
        <time>2021-03-25T14:47:13.000Z</time>
      </trkpt>
      <trkpt lat="45.91688" lon="3.04567">
        <ele>492.66753</ele>
        <time>2021-03-25T14:47:18.000Z</time>
      </trkpt>
      <trkpt lat="45.91689" lon="3.04574">
        <ele>491.66756</ele>
        <time>2021-03-25T14:47:22.000Z</time>
      </trkpt>
      <trkpt lat="45.91689" lon="3.04581">
        <ele>491.66757</ele>
        <time>2021-03-25T14:47:26.000Z</time>
      </trkpt>
      <trkpt lat="45.91692" lon="3.04589">
        <ele>491.66766</ele>
        <time>2021-03-25T14:47:30.000Z</time>
      </trkpt>
      <trkpt lat="45.91692" lon="3.046">
        <ele>491.66769</ele>
        <time>2021-03-25T14:47:35.000Z</time>
      </trkpt>
      <trkpt lat="45.91692" lon="3.04608">
        <ele>489.66768</ele>
        <time>2021-03-25T14:47:40.000Z</time>
      </trkpt>
      <trkpt lat="45.91692" lon="3.04616">
        <ele>487.66769</ele>
        <time>2021-03-25T14:47:45.000Z</time>
      </trkpt>
      <trkpt lat="45.91696" lon="3.04622">
        <ele>489.66785</ele>
        <time>2021-03-25T14:47:50.000Z</time>
      </trkpt>
      <trkpt lat="45.91697" lon="3.0463">
        <ele>489.6679</ele>
        <time>2021-03-25T14:47:54.000Z</time>
      </trkpt>
      <trkpt lat="45.91695" lon="3.04636">
        <ele>489.66781</ele>
        <time>2021-03-25T14:47:58.000Z</time>
      </trkpt>
      <trkpt lat="45.91693" lon="3.04647">
        <ele>489.66771</ele>
        <time>2021-03-25T14:48:03.000Z</time>
      </trkpt>
      <trkpt lat="45.91693" lon="3.04656">
        <ele>488.66771</ele>
        <time>2021-03-25T14:48:07.000Z</time>
      </trkpt>
      <trkpt lat="45.91693" lon="3.04662">
        <ele>486.66772</ele>
        <time>2021-03-25T14:48:11.000Z</time>
      </trkpt>
      <trkpt lat="45.91695" lon="3.04668">
        <ele>485.66781</ele>
        <time>2021-03-25T14:48:15.000Z</time>
      </trkpt>
      <trkpt lat="45.91695" lon="3.04673">
        <ele>484.6678</ele>
        <time>2021-03-25T14:48:19.000Z</time>
      </trkpt>
      <trkpt lat="45.91695" lon="3.04673">
        <ele>484.6678</ele>
        <time>2021-03-25T14:48:19.000Z</time>
      </trkpt>
      <trkpt lat="45.91696" lon="3.0468">
        <ele>485.66786</ele>
        <time>2021-03-25T14:48:24.000Z</time>
      </trkpt>
      <trkpt lat="45.91699" lon="3.0469">
        <ele>487.66796</ele>
        <time>2021-03-25T14:48:29.000Z</time>
      </trkpt>
      <trkpt lat="45.91701" lon="3.04697">
        <ele>488.66805</ele>
        <time>2021-03-25T14:48:33.000Z</time>
      </trkpt>
      <trkpt lat="45.91704" lon="3.04702">
        <ele>489.66816</ele>
        <time>2021-03-25T14:48:39.000Z</time>
      </trkpt>
      <trkpt lat="45.91707" lon="3.04707">
        <ele>490.66828</ele>
        <time>2021-03-25T14:48:43.000Z</time>
      </trkpt>
      <trkpt lat="45.91708" lon="3.04714">
        <ele>489.66831</ele>
        <time>2021-03-25T14:48:48.000Z</time>
      </trkpt>
      <trkpt lat="45.91705" lon="3.04722">
        <ele>488.66821</ele>
        <time>2021-03-25T14:48:52.000Z</time>
      </trkpt>
      <trkpt lat="45.91703" lon="3.04729">
        <ele>486.66813</ele>
        <time>2021-03-25T14:48:56.000Z</time>
      </trkpt>
      <trkpt lat="45.91702" lon="3.04738">
        <ele>485.6681</ele>
        <time>2021-03-25T14:49:01.000Z</time>
      </trkpt>
      <trkpt lat="45.91701" lon="3.04742">
        <ele>485.66804</ele>
        <time>2021-03-25T14:49:05.000Z</time>
      </trkpt>
      <trkpt lat="45.917" lon="3.04752">
        <ele>485.66802</ele>
        <time>2021-03-25T14:49:09.000Z</time>
      </trkpt>
      <trkpt lat="45.91699" lon="3.04758">
        <ele>482.66794</ele>
        <time>2021-03-25T14:49:13.000Z</time>
      </trkpt>
      <trkpt lat="45.91695" lon="3.04766">
        <ele>481.66778</ele>
        <time>2021-03-25T14:49:17.000Z</time>
      </trkpt>
      <trkpt lat="45.91695" lon="3.04772">
        <ele>482.66781</ele>
        <time>2021-03-25T14:49:30.000Z</time>
      </trkpt>
      <trkpt lat="45.91697" lon="3.0478">
        <ele>484.66786</ele>
        <time>2021-03-25T14:49:35.000Z</time>
      </trkpt>
      <trkpt lat="45.91695" lon="3.04785">
        <ele>484.66781</ele>
        <time>2021-03-25T14:49:40.000Z</time>
      </trkpt>
      <trkpt lat="45.9169" lon="3.04791">
        <ele>484.66761</ele>
        <time>2021-03-25T14:49:45.000Z</time>
      </trkpt>
      <trkpt lat="45.91692" lon="3.04797">
        <ele>485.66766</ele>
        <time>2021-03-25T14:49:49.000Z</time>
      </trkpt>
      <trkpt lat="45.91692" lon="3.04804">
        <ele>483.66767</ele>
        <time>2021-03-25T14:49:54.000Z</time>
      </trkpt>
      <trkpt lat="45.9169" lon="3.04813">
        <ele>481.66762</ele>
        <time>2021-03-25T14:49:58.000Z</time>
      </trkpt>
      <trkpt lat="45.91687" lon="3.0482">
        <ele>478.66748</ele>
        <time>2021-03-25T14:50:02.000Z</time>
      </trkpt>
      <trkpt lat="45.91684" lon="3.04828">
        <ele>477.66734</ele>
        <time>2021-03-25T14:50:06.000Z</time>
      </trkpt>
      <trkpt lat="45.9168" lon="3.04836">
        <ele>476.6672</ele>
        <time>2021-03-25T14:50:10.000Z</time>
      </trkpt>
      <trkpt lat="45.91679" lon="3.04842">
        <ele>475.66714</ele>
        <time>2021-03-25T14:50:15.000Z</time>
      </trkpt>
      <trkpt lat="45.91675" lon="3.0485">
        <ele>475.66701</ele>
        <time>2021-03-25T14:50:20.000Z</time>
      </trkpt>
      <trkpt lat="45.91678" lon="3.04859">
        <ele>474.66711</ele>
        <time>2021-03-25T14:50:24.000Z</time>
      </trkpt>
      <trkpt lat="45.91678" lon="3.04867">
        <ele>475.66713</ele>
        <time>2021-03-25T14:50:28.000Z</time>
      </trkpt>
      <trkpt lat="45.91678" lon="3.04873">
        <ele>471.66712</ele>
        <time>2021-03-25T14:50:33.000Z</time>
      </trkpt>
      <trkpt lat="45.91676" lon="3.04878">
        <ele>472.66705</ele>
        <time>2021-03-25T14:50:37.000Z</time>
      </trkpt>
      <trkpt lat="45.91673" lon="3.04887">
        <ele>471.66691</ele>
        <time>2021-03-25T14:50:42.000Z</time>
      </trkpt>
      <trkpt lat="45.9167" lon="3.04894">
        <ele>469.66681</ele>
        <time>2021-03-25T14:50:46.000Z</time>
      </trkpt>
      <trkpt lat="45.91666" lon="3.04902">
        <ele>468.66664</ele>
        <time>2021-03-25T14:50:51.000Z</time>
      </trkpt>
      <trkpt lat="45.91663" lon="3.04911">
        <ele>466.66653</ele>
        <time>2021-03-25T14:50:56.000Z</time>
      </trkpt>
      <trkpt lat="45.91663" lon="3.04917">
        <ele>466.66651</ele>
        <time>2021-03-25T14:51:00.000Z</time>
      </trkpt>
      <trkpt lat="45.91664" lon="3.04926">
        <ele>468.66655</ele>
        <time>2021-03-25T14:51:05.000Z</time>
      </trkpt>
      <trkpt lat="45.91664" lon="3.04935">
        <ele>468.66658</ele>
        <time>2021-03-25T14:51:10.000Z</time>
      </trkpt>
      <trkpt lat="45.91661" lon="3.04944">
        <ele>467.66645</ele>
        <time>2021-03-25T14:51:15.000Z</time>
      </trkpt>
      <trkpt lat="45.91658" lon="3.04949">
        <ele>466.66632</ele>
        <time>2021-03-25T14:51:19.000Z</time>
      </trkpt>
      <trkpt lat="45.91655" lon="3.04958">
        <ele>464.66621</ele>
        <time>2021-03-25T14:51:23.000Z</time>
      </trkpt>
      <trkpt lat="45.91655" lon="3.04968">
        <ele>462.66619</ele>
        <time>2021-03-25T14:51:28.000Z</time>
      </trkpt>
      <trkpt lat="45.91652" lon="3.04974">
        <ele>460.66609</ele>
        <time>2021-03-25T14:51:32.000Z</time>
      </trkpt>
      <trkpt lat="45.91652" lon="3.04983">
        <ele>457.66609</ele>
        <time>2021-03-25T14:51:37.000Z</time>
      </trkpt>
      <trkpt lat="45.9165" lon="3.04993">
        <ele>455.666</ele>
        <time>2021-03-25T14:51:42.000Z</time>
      </trkpt>
      <trkpt lat="45.91649" lon="3.05001">
        <ele>452.66596</ele>
        <time>2021-03-25T14:51:47.000Z</time>
      </trkpt>
      <trkpt lat="45.91649" lon="3.05009">
        <ele>451.66597</ele>
        <time>2021-03-25T14:51:51.000Z</time>
      </trkpt>
      <trkpt lat="45.91651" lon="3.05016">
        <ele>453.66602</ele>
        <time>2021-03-25T14:51:56.000Z</time>
      </trkpt>
      <trkpt lat="45.91651" lon="3.05022">
        <ele>453.66605</ele>
        <time>2021-03-25T14:52:01.000Z</time>
      </trkpt>
      <trkpt lat="45.91652" lon="3.05028">
        <ele>455.66606</ele>
        <time>2021-03-25T14:52:06.000Z</time>
      </trkpt>
      <trkpt lat="45.91651" lon="3.05033">
        <ele>456.66605</ele>
        <time>2021-03-25T14:52:10.000Z</time>
      </trkpt>
      <trkpt lat="45.91649" lon="3.05042">
        <ele>457.66595</ele>
        <time>2021-03-25T14:52:15.000Z</time>
      </trkpt>
      <trkpt lat="45.91648" lon="3.05051">
        <ele>457.66592</ele>
        <time>2021-03-25T14:52:19.000Z</time>
      </trkpt>
      <trkpt lat="45.91646" lon="3.05059">
        <ele>457.66585</ele>
        <time>2021-03-25T14:52:23.000Z</time>
      </trkpt>
      <trkpt lat="45.91646" lon="3.05065">
        <ele>457.66582</ele>
        <time>2021-03-25T14:52:29.000Z</time>
      </trkpt>
      <trkpt lat="45.91648" lon="3.05072">
        <ele>458.66591</ele>
        <time>2021-03-25T14:52:33.000Z</time>
      </trkpt>
      <trkpt lat="45.91648" lon="3.05083">
        <ele>459.66591</ele>
        <time>2021-03-25T14:52:38.000Z</time>
      </trkpt>
      <trkpt lat="45.91648" lon="3.05092">
        <ele>459.66593</ele>
        <time>2021-03-25T14:52:43.000Z</time>
      </trkpt>
      <trkpt lat="45.91648" lon="3.051">
        <ele>460.66592</ele>
        <time>2021-03-25T14:52:47.000Z</time>
      </trkpt>
      <trkpt lat="45.91649" lon="3.05107">
        <ele>461.66595</ele>
        <time>2021-03-25T14:52:51.000Z</time>
      </trkpt>
      <trkpt lat="45.91649" lon="3.05115">
        <ele>461.66597</ele>
        <time>2021-03-25T14:52:56.000Z</time>
      </trkpt>
      <trkpt lat="45.91651" lon="3.05125">
        <ele>463.66605</ele>
        <time>2021-03-25T14:53:01.000Z</time>
      </trkpt>
      <trkpt lat="45.91652" lon="3.05132">
        <ele>462.66607</ele>
        <time>2021-03-25T14:53:05.000Z</time>
      </trkpt>
      <trkpt lat="45.91653" lon="3.05138">
        <ele>463.66614</ele>
        <time>2021-03-25T14:53:09.000Z</time>
      </trkpt>
      <trkpt lat="45.91653" lon="3.05146">
        <ele>462.6661</ele>
        <time>2021-03-25T14:53:14.000Z</time>
      </trkpt>
      <trkpt lat="45.91649" lon="3.05154">
        <ele>460.66596</ele>
        <time>2021-03-25T14:53:19.000Z</time>
      </trkpt>
      <trkpt lat="45.91646" lon="3.0516">
        <ele>457.66585</ele>
        <time>2021-03-25T14:53:23.000Z</time>
      </trkpt>
      <trkpt lat="45.91646" lon="3.05168">
        <ele>456.66583</ele>
        <time>2021-03-25T14:53:27.000Z</time>
      </trkpt>
      <trkpt lat="45.91645" lon="3.05176">
        <ele>453.66579</ele>
        <time>2021-03-25T14:53:31.000Z</time>
      </trkpt>
      <trkpt lat="45.9164" lon="3.05185">
        <ele>452.6656</ele>
        <time>2021-03-25T14:53:36.000Z</time>
      </trkpt>
      <trkpt lat="45.91638" lon="3.05189">
        <ele>451.66553</ele>
        <time>2021-03-25T14:53:41.000Z</time>
      </trkpt>
      <trkpt lat="45.91635" lon="3.05195">
        <ele>450.66539</ele>
        <time>2021-03-25T14:53:46.000Z</time>
      </trkpt>
      <trkpt lat="45.9163" lon="3.05203">
        <ele>450.66519</ele>
        <time>2021-03-25T14:53:51.000Z</time>
      </trkpt>
      <trkpt lat="45.91628" lon="3.0521">
        <ele>449.66512</ele>
        <time>2021-03-25T14:53:55.000Z</time>
      </trkpt>
      <trkpt lat="45.91624" lon="3.05218">
        <ele>446.66496</ele>
        <time>2021-03-25T14:54:00.000Z</time>
      </trkpt>
      <trkpt lat="45.91622" lon="3.05225">
        <ele>445.66489</ele>
        <time>2021-03-25T14:54:04.000Z</time>
      </trkpt>
      <trkpt lat="45.91619" lon="3.05232">
        <ele>445.66474</ele>
        <time>2021-03-25T14:54:09.000Z</time>
      </trkpt>
      <trkpt lat="45.91616" lon="3.05237">
        <ele>443.66466</ele>
        <time>2021-03-25T14:54:13.000Z</time>
      </trkpt>
      <trkpt lat="45.91613" lon="3.05245">
        <ele>440.66453</ele>
        <time>2021-03-25T14:54:18.000Z</time>
      </trkpt>
      <trkpt lat="45.91612" lon="3.05257">
        <ele>440.66449</ele>
        <time>2021-03-25T14:54:22.000Z</time>
      </trkpt>
      <trkpt lat="45.91611" lon="3.05263">
        <ele>441.66445</ele>
        <time>2021-03-25T14:54:27.000Z</time>
      </trkpt>
      <trkpt lat="45.91611" lon="3.05268">
        <ele>439.66443</ele>
        <time>2021-03-25T14:54:32.000Z</time>
      </trkpt>
      <trkpt lat="45.9161" lon="3.05275">
        <ele>440.6644</ele>
        <time>2021-03-25T14:54:36.000Z</time>
      </trkpt>
      <trkpt lat="45.9161" lon="3.05282">
        <ele>440.66439</ele>
        <time>2021-03-25T14:54:40.000Z</time>
      </trkpt>
      <trkpt lat="45.91609" lon="3.0529">
        <ele>437.66435</ele>
        <time>2021-03-25T14:54:44.000Z</time>
      </trkpt>
      <trkpt lat="45.91609" lon="3.05299">
        <ele>436.66436</ele>
        <time>2021-03-25T14:54:49.000Z</time>
      </trkpt>
      <trkpt lat="45.91609" lon="3.05308">
        <ele>436.66438</ele>
        <time>2021-03-25T14:54:53.000Z</time>
      </trkpt>
      <trkpt lat="45.9161" lon="3.05315">
        <ele>436.66439</ele>
        <time>2021-03-25T14:54:57.000Z</time>
      </trkpt>
      <trkpt lat="45.9161" lon="3.05321">
        <ele>436.6644</ele>
        <time>2021-03-25T14:55:02.000Z</time>
      </trkpt>
      <trkpt lat="45.9161" lon="3.05332">
        <ele>438.6644</ele>
        <time>2021-03-25T14:55:07.000Z</time>
      </trkpt>
      <trkpt lat="45.91609" lon="3.0534">
        <ele>438.66435</ele>
        <time>2021-03-25T14:55:11.000Z</time>
      </trkpt>
      <trkpt lat="45.91609" lon="3.05349">
        <ele>440.66437</ele>
        <time>2021-03-25T14:55:15.000Z</time>
      </trkpt>
      <trkpt lat="45.91609" lon="3.05357">
        <ele>441.66436</ele>
        <time>2021-03-25T14:55:20.000Z</time>
      </trkpt>
      <trkpt lat="45.91608" lon="3.05365">
        <ele>440.66434</ele>
        <time>2021-03-25T14:55:24.000Z</time>
      </trkpt>
      <trkpt lat="45.91608" lon="3.05374">
        <ele>440.66432</ele>
        <time>2021-03-25T14:55:29.000Z</time>
      </trkpt>
      <trkpt lat="45.91607" lon="3.05382">
        <ele>439.6643</ele>
        <time>2021-03-25T14:55:33.000Z</time>
      </trkpt>
      <trkpt lat="45.91607" lon="3.0539">
        <ele>437.66429</ele>
        <time>2021-03-25T14:55:37.000Z</time>
      </trkpt>
      <trkpt lat="45.91607" lon="3.054">
        <ele>437.66428</ele>
        <time>2021-03-25T14:55:42.000Z</time>
      </trkpt>
      <trkpt lat="45.91608" lon="3.0541">
        <ele>437.66432</ele>
        <time>2021-03-25T14:55:47.000Z</time>
      </trkpt>
      <trkpt lat="45.91607" lon="3.05418">
        <ele>438.66429</ele>
        <time>2021-03-25T14:55:52.000Z</time>
      </trkpt>
      <trkpt lat="45.91606" lon="3.05427">
        <ele>438.66423</ele>
        <time>2021-03-25T14:55:56.000Z</time>
      </trkpt>
      <trkpt lat="45.91606" lon="3.05435">
        <ele>438.66423</ele>
        <time>2021-03-25T14:56:00.000Z</time>
      </trkpt>
      <trkpt lat="45.91604" lon="3.05442">
        <ele>438.66417</ele>
        <time>2021-03-25T14:56:04.000Z</time>
      </trkpt>
      <trkpt lat="45.91603" lon="3.0545">
        <ele>437.66414</ele>
        <time>2021-03-25T14:56:09.000Z</time>
      </trkpt>
      <trkpt lat="45.91603" lon="3.05458">
        <ele>436.6641</ele>
        <time>2021-03-25T14:56:14.000Z</time>
      </trkpt>
      <trkpt lat="45.91606" lon="3.05462">
        <ele>434.66422</ele>
        <time>2021-03-25T14:56:27.000Z</time>
      </trkpt>
      <trkpt lat="45.91607" lon="3.05468">
        <ele>434.66429</ele>
        <time>2021-03-25T14:56:31.000Z</time>
      </trkpt>
      <trkpt lat="45.91607" lon="3.05474">
        <ele>433.66427</ele>
        <time>2021-03-25T14:56:35.000Z</time>
      </trkpt>
      <trkpt lat="45.91606" lon="3.05482">
        <ele>433.66425</ele>
        <time>2021-03-25T14:56:40.000Z</time>
      </trkpt>
      <trkpt lat="45.91606" lon="3.0549">
        <ele>431.66426</ele>
        <time>2021-03-25T14:56:45.000Z</time>
      </trkpt>
      <trkpt lat="45.91606" lon="3.055">
        <ele>432.66424</ele>
        <time>2021-03-25T14:56:50.000Z</time>
      </trkpt>
      <trkpt lat="45.91606" lon="3.055">
        <ele>432.66424</ele>
        <time>2021-03-25T14:56:50.000Z</time>
      </trkpt>
      <trkpt lat="45.91605" lon="3.05506">
        <ele>432.6642</ele>
        <time>2021-03-25T14:56:54.000Z</time>
      </trkpt>
      <trkpt lat="45.91607" lon="3.05514">
        <ele>432.66427</ele>
        <time>2021-03-25T14:56:58.000Z</time>
      </trkpt>
      <trkpt lat="45.9161" lon="3.0552">
        <ele>433.66439</ele>
        <time>2021-03-25T14:57:02.000Z</time>
      </trkpt>
      <trkpt lat="45.91612" lon="3.05527">
        <ele>433.66446</ele>
        <time>2021-03-25T14:57:07.000Z</time>
      </trkpt>
      <trkpt lat="45.91613" lon="3.05533">
        <ele>434.66451</ele>
        <time>2021-03-25T14:57:12.000Z</time>
      </trkpt>
      <trkpt lat="45.91617" lon="3.05539">
        <ele>434.66467</ele>
        <time>2021-03-25T14:57:17.000Z</time>
      </trkpt>
      <trkpt lat="45.91619" lon="3.05544">
        <ele>434.66475</ele>
        <time>2021-03-25T14:57:21.000Z</time>
      </trkpt>
      <trkpt lat="45.91621" lon="3.05552">
        <ele>435.66485</ele>
        <time>2021-03-25T14:57:26.000Z</time>
      </trkpt>
      <trkpt lat="45.91624" lon="3.05558">
        <ele>434.66494</ele>
        <time>2021-03-25T14:57:30.000Z</time>
      </trkpt>
      <trkpt lat="45.91628" lon="3.05565">
        <ele>433.6651</ele>
        <time>2021-03-25T14:57:35.000Z</time>
      </trkpt>
      <trkpt lat="45.91629" lon="3.0557">
        <ele>432.66517</ele>
        <time>2021-03-25T14:57:40.000Z</time>
      </trkpt>
      <trkpt lat="45.91634" lon="3.05579">
        <ele>432.66535</ele>
        <time>2021-03-25T14:57:45.000Z</time>
      </trkpt>
      <trkpt lat="45.91636" lon="3.05583">
        <ele>432.66545</ele>
        <time>2021-03-25T14:57:47.000Z</time>
      </trkpt>
      <trkpt lat="45.9164" lon="3.05589">
        <ele>431.66559</ele>
        <time>2021-03-25T14:57:52.000Z</time>
      </trkpt>
      <trkpt lat="45.91641" lon="3.05596">
        <ele>432.66565</ele>
        <time>2021-03-25T14:57:56.000Z</time>
      </trkpt>
      <trkpt lat="45.91644" lon="3.05602">
        <ele>432.66575</ele>
        <time>2021-03-25T14:58:00.000Z</time>
      </trkpt>
      <trkpt lat="45.91646" lon="3.05609">
        <ele>432.66586</ele>
        <time>2021-03-25T14:58:04.000Z</time>
      </trkpt>
      <trkpt lat="45.9165" lon="3.05615">
        <ele>432.66598</ele>
        <time>2021-03-25T14:58:07.000Z</time>
      </trkpt>
      <trkpt lat="45.91653" lon="3.05621">
        <ele>432.66611</ele>
        <time>2021-03-25T14:58:12.000Z</time>
      </trkpt>
      <trkpt lat="45.91653" lon="3.05626">
        <ele>431.66613</ele>
        <time>2021-03-25T14:58:18.000Z</time>
      </trkpt>
      <trkpt lat="45.91658" lon="3.05633">
        <ele>432.6663</ele>
        <time>2021-03-25T14:58:23.000Z</time>
      </trkpt>
      <trkpt lat="45.91661" lon="3.05637">
        <ele>433.66644</ele>
        <time>2021-03-25T14:58:27.000Z</time>
      </trkpt>
      <trkpt lat="45.91665" lon="3.05646">
        <ele>431.6666</ele>
        <time>2021-03-25T14:58:31.000Z</time>
      </trkpt>
      <trkpt lat="45.91668" lon="3.05653">
        <ele>431.66674</ele>
        <time>2021-03-25T14:58:35.000Z</time>
      </trkpt>
      <trkpt lat="45.9167" lon="3.05662">
        <ele>431.66681</ele>
        <time>2021-03-25T14:58:40.000Z</time>
      </trkpt>
      <trkpt lat="45.91674" lon="3.05667">
        <ele>432.66696</ele>
        <time>2021-03-25T14:58:45.000Z</time>
      </trkpt>
      <trkpt lat="45.91678" lon="3.05675">
        <ele>432.66711</ele>
        <time>2021-03-25T14:58:50.000Z</time>
      </trkpt>
      <trkpt lat="45.91681" lon="3.05679">
        <ele>429.66726</ele>
        <time>2021-03-25T14:58:54.000Z</time>
      </trkpt>
      <trkpt lat="45.91686" lon="3.05686">
        <ele>430.66744</ele>
        <time>2021-03-25T14:58:59.000Z</time>
      </trkpt>
      <trkpt lat="45.9169" lon="3.05685">
        <ele>432.6676</ele>
        <time>2021-03-25T14:59:09.000Z</time>
      </trkpt>
      <trkpt lat="45.91697" lon="3.05685">
        <ele>434.66787</ele>
        <time>2021-03-25T14:59:14.000Z</time>
      </trkpt>
      <trkpt lat="45.91703" lon="3.05684">
        <ele>434.66812</ele>
        <time>2021-03-25T14:59:19.000Z</time>
      </trkpt>
      <trkpt lat="45.91707" lon="3.05689">
        <ele>435.66828</ele>
        <time>2021-03-25T14:59:23.000Z</time>
      </trkpt>
      <trkpt lat="45.91709" lon="3.05695">
        <ele>434.66837</ele>
        <time>2021-03-25T14:59:28.000Z</time>
      </trkpt>
      <trkpt lat="45.91713" lon="3.05701">
        <ele>433.66852</ele>
        <time>2021-03-25T14:59:33.000Z</time>
      </trkpt>
      <trkpt lat="45.91715" lon="3.05706">
        <ele>430.66862</ele>
        <time>2021-03-25T14:59:37.000Z</time>
      </trkpt>
      <trkpt lat="45.91716" lon="3.05713">
        <ele>430.66862</ele>
        <time>2021-03-25T14:59:41.000Z</time>
      </trkpt>
      <trkpt lat="45.91716" lon="3.05721">
        <ele>429.66864</ele>
        <time>2021-03-25T14:59:46.000Z</time>
      </trkpt>
      <trkpt lat="45.91717" lon="3.05728">
        <ele>429.66867</ele>
        <time>2021-03-25T14:59:50.000Z</time>
      </trkpt>
      <trkpt lat="45.91715" lon="3.05738">
        <ele>430.66861</ele>
        <time>2021-03-25T14:59:55.000Z</time>
      </trkpt>
      <trkpt lat="45.91715" lon="3.05745">
        <ele>430.66862</ele>
        <time>2021-03-25T15:00:00.000Z</time>
      </trkpt>
      <trkpt lat="45.91713" lon="3.05754">
        <ele>431.66852</ele>
        <time>2021-03-25T15:00:05.000Z</time>
      </trkpt>
      <trkpt lat="45.91711" lon="3.0576">
        <ele>430.66845</ele>
        <time>2021-03-25T15:00:12.000Z</time>
      </trkpt>
      <trkpt lat="45.91714" lon="3.05763">
        <ele>433.66855</ele>
        <time>2021-03-25T15:00:28.000Z</time>
      </trkpt>
      <trkpt lat="45.91719" lon="3.05772">
        <ele>434.66875</ele>
        <time>2021-03-25T15:00:33.000Z</time>
      </trkpt>
      <trkpt lat="45.91724" lon="3.05777">
        <ele>435.66895</ele>
        <time>2021-03-25T15:00:36.000Z</time>
      </trkpt>
      <trkpt lat="45.91727" lon="3.05781">
        <ele>437.66909</ele>
        <time>2021-03-25T15:00:41.000Z</time>
      </trkpt>
      <trkpt lat="45.91733" lon="3.05785">
        <ele>437.66931</ele>
        <time>2021-03-25T15:00:46.000Z</time>
      </trkpt>
      <trkpt lat="45.91736" lon="3.05787">
        <ele>438.66945</ele>
        <time>2021-03-25T15:00:50.000Z</time>
      </trkpt>
      <trkpt lat="45.91744" lon="3.05793">
        <ele>440.66975</ele>
        <time>2021-03-25T15:00:55.000Z</time>
      </trkpt>
      <trkpt lat="45.91747" lon="3.05795">
        <ele>441.6699</ele>
        <time>2021-03-25T15:00:59.000Z</time>
      </trkpt>
      <trkpt lat="45.91754" lon="3.058">
        <ele>443.67015</ele>
        <time>2021-03-25T15:01:04.000Z</time>
      </trkpt>
      <trkpt lat="45.91758" lon="3.05804">
        <ele>445.6703</ele>
        <time>2021-03-25T15:01:08.000Z</time>
      </trkpt>
      <trkpt lat="45.91763" lon="3.05806">
        <ele>445.67053</ele>
        <time>2021-03-25T15:01:12.000Z</time>
      </trkpt>
      <trkpt lat="45.91769" lon="3.05808">
        <ele>445.67075</ele>
        <time>2021-03-25T15:01:16.000Z</time>
      </trkpt>
      <trkpt lat="45.91773" lon="3.05809">
        <ele>447.67092</ele>
        <time>2021-03-25T15:01:19.000Z</time>
      </trkpt>
      <trkpt lat="45.91777" lon="3.05806">
        <ele>446.67108</ele>
        <time>2021-03-25T15:01:24.000Z</time>
      </trkpt>
      <trkpt lat="45.91782" lon="3.05809">
        <ele>446.67128</ele>
        <time>2021-03-25T15:01:28.000Z</time>
      </trkpt>
      <trkpt lat="45.91788" lon="3.05806">
        <ele>445.67154</ele>
        <time>2021-03-25T15:01:33.000Z</time>
      </trkpt>
      <trkpt lat="45.91794" lon="3.05805">
        <ele>446.67174</ele>
        <time>2021-03-25T15:01:38.000Z</time>
      </trkpt>
      <trkpt lat="45.91799" lon="3.0581">
        <ele>445.67195</ele>
        <time>2021-03-25T15:01:43.000Z</time>
      </trkpt>
      <trkpt lat="45.91803" lon="3.05813">
        <ele>445.67212</ele>
        <time>2021-03-25T15:01:47.000Z</time>
      </trkpt>
      <trkpt lat="45.91803" lon="3.05813">
        <ele>445.67212</ele>
        <time>2021-03-25T15:01:47.000Z</time>
      </trkpt>
      <trkpt lat="45.91808" lon="3.05815">
        <ele>446.67232</ele>
        <time>2021-03-25T15:01:52.000Z</time>
      </trkpt>
      <trkpt lat="45.91814" lon="3.05812">
        <ele>444.67254</ele>
        <time>2021-03-25T15:01:56.000Z</time>
      </trkpt>
      <trkpt lat="45.91817" lon="3.0581">
        <ele>444.67269</ele>
        <time>2021-03-25T15:02:00.000Z</time>
      </trkpt>
      <trkpt lat="45.91824" lon="3.05809">
        <ele>445.67294</ele>
        <time>2021-03-25T15:02:04.000Z</time>
      </trkpt>
      <trkpt lat="45.91832" lon="3.05808">
        <ele>443.67329</ele>
        <time>2021-03-25T15:02:09.000Z</time>
      </trkpt>
      <trkpt lat="45.91839" lon="3.05806">
        <ele>441.67355</ele>
        <time>2021-03-25T15:02:13.000Z</time>
      </trkpt>
      <trkpt lat="45.91845" lon="3.05809">
        <ele>439.67379</ele>
        <time>2021-03-25T15:02:18.000Z</time>
      </trkpt>
      <trkpt lat="45.91846" lon="3.05816">
        <ele>436.67382</ele>
        <time>2021-03-25T15:02:36.000Z</time>
      </trkpt>
      <trkpt lat="45.91849" lon="3.05818">
        <ele>436.67396</ele>
        <time>2021-03-25T15:02:40.000Z</time>
      </trkpt>
      <trkpt lat="45.91854" lon="3.05822">
        <ele>435.67415</ele>
        <time>2021-03-25T15:02:45.000Z</time>
      </trkpt>
      <trkpt lat="45.91858" lon="3.05825">
        <ele>435.67432</ele>
        <time>2021-03-25T15:02:49.000Z</time>
      </trkpt>
      <trkpt lat="45.91864" lon="3.05829">
        <ele>436.67456</ele>
        <time>2021-03-25T15:02:54.000Z</time>
      </trkpt>
      <trkpt lat="45.91868" lon="3.05835">
        <ele>437.67471</ele>
        <time>2021-03-25T15:02:59.000Z</time>
      </trkpt>
      <trkpt lat="45.9187" lon="3.05838">
        <ele>438.6748</ele>
        <time>2021-03-25T15:03:03.000Z</time>
      </trkpt>
      <trkpt lat="45.91875" lon="3.0584">
        <ele>439.67501</ele>
        <time>2021-03-25T15:03:07.000Z</time>
      </trkpt>
      <trkpt lat="45.9188" lon="3.05838">
        <ele>440.67522</ele>
        <time>2021-03-25T15:03:11.000Z</time>
      </trkpt>
      <trkpt lat="45.91887" lon="3.05841">
        <ele>440.67548</ele>
        <time>2021-03-25T15:03:16.000Z</time>
      </trkpt>
      <trkpt lat="45.91891" lon="3.05842">
        <ele>440.67563</ele>
        <time>2021-03-25T15:03:20.000Z</time>
      </trkpt>
      <trkpt lat="45.919" lon="3.05847">
        <ele>439.67598</ele>
        <time>2021-03-25T15:03:25.000Z</time>
      </trkpt>
      <trkpt lat="45.91905" lon="3.0585">
        <ele>435.67619</ele>
        <time>2021-03-25T15:03:29.000Z</time>
      </trkpt>
      <trkpt lat="45.91908" lon="3.05858">
        <ele>435.67631</ele>
        <time>2021-03-25T15:03:33.000Z</time>
      </trkpt>
      <trkpt lat="45.91911" lon="3.05862">
        <ele>435.67644</ele>
        <time>2021-03-25T15:03:37.000Z</time>
      </trkpt>
      <trkpt lat="45.91915" lon="3.0587">
        <ele>434.6766</ele>
        <time>2021-03-25T15:03:42.000Z</time>
      </trkpt>
      <trkpt lat="45.91918" lon="3.05876">
        <ele>435.67671</ele>
        <time>2021-03-25T15:03:46.000Z</time>
      </trkpt>
      <trkpt lat="45.91922" lon="3.05879">
        <ele>435.6769</ele>
        <time>2021-03-25T15:03:51.000Z</time>
      </trkpt>
      <trkpt lat="45.91926" lon="3.05886">
        <ele>435.67704</ele>
        <time>2021-03-25T15:03:55.000Z</time>
      </trkpt>
      <trkpt lat="45.91929" lon="3.05891">
        <ele>435.67715</ele>
        <time>2021-03-25T15:03:59.000Z</time>
      </trkpt>
      <trkpt lat="45.91934" lon="3.05895">
        <ele>435.67736</ele>
        <time>2021-03-25T15:04:03.000Z</time>
      </trkpt>
      <trkpt lat="45.91934" lon="3.05889">
        <ele>435.67736</ele>
        <time>2021-03-25T15:04:09.000Z</time>
      </trkpt>
      <trkpt lat="45.91937" lon="3.05884">
        <ele>436.67748</ele>
        <time>2021-03-25T15:04:14.000Z</time>
      </trkpt>
      <trkpt lat="45.91939" lon="3.05879">
        <ele>437.67756</ele>
        <time>2021-03-25T15:04:20.000Z</time>
      </trkpt>
      <trkpt lat="45.91941" lon="3.05873">
        <ele>435.67762</ele>
        <time>2021-03-25T15:04:32.000Z</time>
      </trkpt>
      <trkpt lat="45.91943" lon="3.05869">
        <ele>435.67773</ele>
        <time>2021-03-25T15:04:39.000Z</time>
      </trkpt>
      <trkpt lat="45.91947" lon="3.05864">
        <ele>434.67786</ele>
        <time>2021-03-25T15:04:44.000Z</time>
      </trkpt>
      <trkpt lat="45.91949" lon="3.05859">
        <ele>434.67797</ele>
        <time>2021-03-25T15:04:49.000Z</time>
      </trkpt>
      <trkpt lat="45.91954" lon="3.05851">
        <ele>435.67816</ele>
        <time>2021-03-25T15:04:54.000Z</time>
      </trkpt>
      <trkpt lat="45.91956" lon="3.05846">
        <ele>435.67825</ele>
        <time>2021-03-25T15:04:59.000Z</time>
      </trkpt>
      <trkpt lat="45.91958" lon="3.05841">
        <ele>435.67833</ele>
        <time>2021-03-25T15:05:04.000Z</time>
      </trkpt>
      <trkpt lat="45.91961" lon="3.05836">
        <ele>435.67842</ele>
        <time>2021-03-25T15:05:10.000Z</time>
      </trkpt>
      <trkpt lat="45.91963" lon="3.05832">
        <ele>436.6785</ele>
        <time>2021-03-25T15:05:14.000Z</time>
      </trkpt>
      <trkpt lat="45.91967" lon="3.05827">
        <ele>436.67866</ele>
        <time>2021-03-25T15:05:18.000Z</time>
      </trkpt>
      <trkpt lat="45.91969" lon="3.05822">
        <ele>437.67875</ele>
        <time>2021-03-25T15:05:24.000Z</time>
      </trkpt>
      <trkpt lat="45.91971" lon="3.05817">
        <ele>437.67884</ele>
        <time>2021-03-25T15:05:29.000Z</time>
      </trkpt>
      <trkpt lat="45.91974" lon="3.05814">
        <ele>439.67895</ele>
        <time>2021-03-25T15:05:36.000Z</time>
      </trkpt>
      <trkpt lat="45.91976" lon="3.0581">
        <ele>441.67904</ele>
        <time>2021-03-25T15:05:43.000Z</time>
      </trkpt>
      <trkpt lat="45.91976" lon="3.05803">
        <ele>442.67906</ele>
        <time>2021-03-25T15:05:59.000Z</time>
      </trkpt>
      <trkpt lat="45.91979" lon="3.05798">
        <ele>440.67914</ele>
        <time>2021-03-25T15:06:04.000Z</time>
      </trkpt>
      <trkpt lat="45.91983" lon="3.05796">
        <ele>440.67931</ele>
        <time>2021-03-25T15:06:09.000Z</time>
      </trkpt>
      <trkpt lat="45.91987" lon="3.05799">
        <ele>441.67949</ele>
        <time>2021-03-25T15:06:14.000Z</time>
      </trkpt>
      <trkpt lat="45.91991" lon="3.05803">
        <ele>442.67965</ele>
        <time>2021-03-25T15:06:18.000Z</time>
      </trkpt>
      <trkpt lat="45.91997" lon="3.05807">
        <ele>442.67987</ele>
        <time>2021-03-25T15:06:22.000Z</time>
      </trkpt>
      <trkpt lat="45.92001" lon="3.05809">
        <ele>443.68003</ele>
        <time>2021-03-25T15:06:27.000Z</time>
      </trkpt>
      <trkpt lat="45.92005" lon="3.05814">
        <ele>445.68021</ele>
        <time>2021-03-25T15:06:31.000Z</time>
      </trkpt>
      <trkpt lat="45.92009" lon="3.05817">
        <ele>445.68037</ele>
        <time>2021-03-25T15:06:35.000Z</time>
      </trkpt>
      <trkpt lat="45.92012" lon="3.05821">
        <ele>444.68047</ele>
        <time>2021-03-25T15:06:47.000Z</time>
      </trkpt>
      <trkpt lat="45.92015" lon="3.05823">
        <ele>444.68062</ele>
        <time>2021-03-25T15:06:52.000Z</time>
      </trkpt>
      <trkpt lat="45.92019" lon="3.05825">
        <ele>444.68077</ele>
        <time>2021-03-25T15:06:56.000Z</time>
      </trkpt>
      <trkpt lat="45.92024" lon="3.05827">
        <ele>446.68096</ele>
        <time>2021-03-25T15:07:01.000Z</time>
      </trkpt>
      <trkpt lat="45.92028" lon="3.05829">
        <ele>446.68111</ele>
        <time>2021-03-25T15:07:05.000Z</time>
      </trkpt>
      <trkpt lat="45.92032" lon="3.0583">
        <ele>448.68128</ele>
        <time>2021-03-25T15:07:09.000Z</time>
      </trkpt>
      <trkpt lat="45.92037" lon="3.05831">
        <ele>448.68147</ele>
        <time>2021-03-25T15:07:13.000Z</time>
      </trkpt>
      <trkpt lat="45.92041" lon="3.05833">
        <ele>448.68164</ele>
        <time>2021-03-25T15:07:17.000Z</time>
      </trkpt>
      <trkpt lat="45.92046" lon="3.05834">
        <ele>448.68184</ele>
        <time>2021-03-25T15:07:22.000Z</time>
      </trkpt>
      <trkpt lat="45.92051" lon="3.05834">
        <ele>447.68203</ele>
        <time>2021-03-25T15:07:26.000Z</time>
      </trkpt>
      <trkpt lat="45.92056" lon="3.05834">
        <ele>448.68222</ele>
        <time>2021-03-25T15:07:30.000Z</time>
      </trkpt>
      <trkpt lat="45.92061" lon="3.05833">
        <ele>448.68243</ele>
        <time>2021-03-25T15:07:34.000Z</time>
      </trkpt>
      <trkpt lat="45.92066" lon="3.0583">
        <ele>447.68265</ele>
        <time>2021-03-25T15:07:39.000Z</time>
      </trkpt>
      <trkpt lat="45.92071" lon="3.05829">
        <ele>449.68283</ele>
        <time>2021-03-25T15:07:44.000Z</time>
      </trkpt>
      <trkpt lat="45.92075" lon="3.05827">
        <ele>451.683</ele>
        <time>2021-03-25T15:07:49.000Z</time>
      </trkpt>
      <trkpt lat="45.92079" lon="3.05823">
        <ele>450.68315</ele>
        <time>2021-03-25T15:07:53.000Z</time>
      </trkpt>
      <trkpt lat="45.92084" lon="3.05823">
        <ele>451.68336</ele>
        <time>2021-03-25T15:07:58.000Z</time>
      </trkpt>
      <trkpt lat="45.92089" lon="3.05822">
        <ele>451.68356</ele>
        <time>2021-03-25T15:08:02.000Z</time>
      </trkpt>
      <trkpt lat="45.92094" lon="3.05823">
        <ele>451.68376</ele>
        <time>2021-03-25T15:08:06.000Z</time>
      </trkpt>
      <trkpt lat="45.92098" lon="3.05821">
        <ele>450.68392</ele>
        <time>2021-03-25T15:08:10.000Z</time>
      </trkpt>
      <trkpt lat="45.92102" lon="3.05818">
        <ele>450.6841</ele>
        <time>2021-03-25T15:08:14.000Z</time>
      </trkpt>
      <trkpt lat="45.92108" lon="3.05817">
        <ele>451.68432</ele>
        <time>2021-03-25T15:08:19.000Z</time>
      </trkpt>
      <trkpt lat="45.92113" lon="3.05812">
        <ele>452.68451</ele>
        <time>2021-03-25T15:08:23.000Z</time>
      </trkpt>
      <trkpt lat="45.92117" lon="3.05811">
        <ele>452.6847</ele>
        <time>2021-03-25T15:08:27.000Z</time>
      </trkpt>
      <trkpt lat="45.92124" lon="3.05812">
        <ele>453.68496</ele>
        <time>2021-03-25T15:08:32.000Z</time>
      </trkpt>
      <trkpt lat="45.92129" lon="3.05814">
        <ele>453.68514</ele>
        <time>2021-03-25T15:08:37.000Z</time>
      </trkpt>
      <trkpt lat="45.92133" lon="3.05811">
        <ele>452.68534</ele>
        <time>2021-03-25T15:08:41.000Z</time>
      </trkpt>
      <trkpt lat="45.92139" lon="3.0581">
        <ele>454.68557</ele>
        <time>2021-03-25T15:08:45.000Z</time>
      </trkpt>
      <trkpt lat="45.92144" lon="3.0581">
        <ele>454.68575</ele>
        <time>2021-03-25T15:08:50.000Z</time>
      </trkpt>
      <trkpt lat="45.9215" lon="3.05807">
        <ele>452.68599</ele>
        <time>2021-03-25T15:08:55.000Z</time>
      </trkpt>
      <trkpt lat="45.92155" lon="3.05805">
        <ele>453.68619</ele>
        <time>2021-03-25T15:08:59.000Z</time>
      </trkpt>
      <trkpt lat="45.9216" lon="3.05804">
        <ele>454.68642</ele>
        <time>2021-03-25T15:09:03.000Z</time>
      </trkpt>
      <trkpt lat="45.92166" lon="3.05803">
        <ele>454.68662</ele>
        <time>2021-03-25T15:09:07.000Z</time>
      </trkpt>
      <trkpt lat="45.92171" lon="3.05802">
        <ele>453.68683</ele>
        <time>2021-03-25T15:09:11.000Z</time>
      </trkpt>
      <trkpt lat="45.92176" lon="3.05802">
        <ele>454.68704</ele>
        <time>2021-03-25T15:09:15.000Z</time>
      </trkpt>
      <trkpt lat="45.92183" lon="3.058">
        <ele>454.68731</ele>
        <time>2021-03-25T15:09:20.000Z</time>
      </trkpt>
      <trkpt lat="45.92187" lon="3.058">
        <ele>455.6875</ele>
        <time>2021-03-25T15:09:24.000Z</time>
      </trkpt>
      <trkpt lat="45.92194" lon="3.05801">
        <ele>455.68775</ele>
        <time>2021-03-25T15:09:29.000Z</time>
      </trkpt>
      <trkpt lat="45.922" lon="3.05804">
        <ele>454.68799</ele>
        <time>2021-03-25T15:09:33.000Z</time>
      </trkpt>
      <trkpt lat="45.92205" lon="3.05808">
        <ele>454.68819</ele>
        <time>2021-03-25T15:09:37.000Z</time>
      </trkpt>
      <trkpt lat="45.92211" lon="3.05812">
        <ele>454.68844</ele>
        <time>2021-03-25T15:09:42.000Z</time>
      </trkpt>
      <trkpt lat="45.92217" lon="3.05818">
        <ele>452.68868</ele>
        <time>2021-03-25T15:09:47.000Z</time>
      </trkpt>
      <trkpt lat="45.9222" lon="3.05823">
        <ele>452.68881</ele>
        <time>2021-03-25T15:09:51.000Z</time>
      </trkpt>
      <trkpt lat="45.9222" lon="3.05823">
        <ele>452.68881</ele>
        <time>2021-03-25T15:09:51.000Z</time>
      </trkpt>
      <trkpt lat="45.92223" lon="3.0583">
        <ele>451.6889</ele>
        <time>2021-03-25T15:09:56.000Z</time>
      </trkpt>
      <trkpt lat="45.92226" lon="3.05838">
        <ele>451.68905</ele>
        <time>2021-03-25T15:10:01.000Z</time>
      </trkpt>
      <trkpt lat="45.9223" lon="3.05846">
        <ele>451.68921</ele>
        <time>2021-03-25T15:10:06.000Z</time>
      </trkpt>
      <trkpt lat="45.92233" lon="3.05851">
        <ele>451.68931</ele>
        <time>2021-03-25T15:10:10.000Z</time>
      </trkpt>
      <trkpt lat="45.92236" lon="3.05859">
        <ele>452.68944</ele>
        <time>2021-03-25T15:10:15.000Z</time>
      </trkpt>
      <trkpt lat="45.92236" lon="3.05864">
        <ele>453.68945</ele>
        <time>2021-03-25T15:10:20.000Z</time>
      </trkpt>
      <trkpt lat="45.92238" lon="3.05871">
        <ele>452.68953</ele>
        <time>2021-03-25T15:10:24.000Z</time>
      </trkpt>
      <trkpt lat="45.92241" lon="3.05879">
        <ele>453.68962</ele>
        <time>2021-03-25T15:10:29.000Z</time>
      </trkpt>
      <trkpt lat="45.92241" lon="3.05886">
        <ele>453.68964</ele>
        <time>2021-03-25T15:10:34.000Z</time>
      </trkpt>
      <trkpt lat="45.92241" lon="3.05893">
        <ele>453.68964</ele>
        <time>2021-03-25T15:10:38.000Z</time>
      </trkpt>
      <trkpt lat="45.92242" lon="3.059">
        <ele>452.68968</ele>
        <time>2021-03-25T15:10:42.000Z</time>
      </trkpt>
      <trkpt lat="45.92243" lon="3.05909">
        <ele>452.68974</ele>
        <time>2021-03-25T15:10:47.000Z</time>
      </trkpt>
      <trkpt lat="45.92246" lon="3.05918">
        <ele>452.68984</ele>
        <time>2021-03-25T15:10:52.000Z</time>
      </trkpt>
      <trkpt lat="45.92248" lon="3.05927">
        <ele>451.68991</ele>
        <time>2021-03-25T15:10:57.000Z</time>
      </trkpt>
      <trkpt lat="45.9225" lon="3.05934">
        <ele>452.68999</ele>
        <time>2021-03-25T15:11:01.000Z</time>
      </trkpt>
      <trkpt lat="45.92251" lon="3.05939">
        <ele>452.69003</ele>
        <time>2021-03-25T15:11:04.000Z</time>
      </trkpt>
      <trkpt lat="45.92253" lon="3.05947">
        <ele>452.69012</ele>
        <time>2021-03-25T15:11:09.000Z</time>
      </trkpt>
      <trkpt lat="45.92255" lon="3.05954">
        <ele>451.69019</ele>
        <time>2021-03-25T15:11:13.000Z</time>
      </trkpt>
      <trkpt lat="45.92257" lon="3.05961">
        <ele>452.69029</ele>
        <time>2021-03-25T15:11:17.000Z</time>
      </trkpt>
      <trkpt lat="45.92259" lon="3.05968">
        <ele>452.69037</ele>
        <time>2021-03-25T15:11:22.000Z</time>
      </trkpt>
      <trkpt lat="45.92262" lon="3.05976">
        <ele>452.69047</ele>
        <time>2021-03-25T15:11:27.000Z</time>
      </trkpt>
      <trkpt lat="45.92266" lon="3.05982">
        <ele>451.69063</ele>
        <time>2021-03-25T15:11:32.000Z</time>
      </trkpt>
      <trkpt lat="45.9227" lon="3.05986">
        <ele>452.69079</ele>
        <time>2021-03-25T15:11:36.000Z</time>
      </trkpt>
      <trkpt lat="45.92273" lon="3.05989">
        <ele>452.69092</ele>
        <time>2021-03-25T15:11:40.000Z</time>
      </trkpt>
      <trkpt lat="45.92277" lon="3.05998">
        <ele>452.69106</ele>
        <time>2021-03-25T15:11:45.000Z</time>
      </trkpt>
      <trkpt lat="45.9228" lon="3.06003">
        <ele>451.69121</ele>
        <time>2021-03-25T15:11:49.000Z</time>
      </trkpt>
      <trkpt lat="45.92284" lon="3.0601">
        <ele>452.69137</ele>
        <time>2021-03-25T15:11:54.000Z</time>
      </trkpt>
      <trkpt lat="45.92289" lon="3.06013">
        <ele>452.69155</ele>
        <time>2021-03-25T15:11:59.000Z</time>
      </trkpt>
      <trkpt lat="45.92294" lon="3.06016">
        <ele>454.69174</ele>
        <time>2021-03-25T15:12:03.000Z</time>
      </trkpt>
      <trkpt lat="45.92299" lon="3.06019">
        <ele>454.69195</ele>
        <time>2021-03-25T15:12:08.000Z</time>
      </trkpt>
      <trkpt lat="45.92305" lon="3.06019">
        <ele>454.69219</ele>
        <time>2021-03-25T15:12:13.000Z</time>
      </trkpt>
      <trkpt lat="45.9231" lon="3.06018">
        <ele>454.69241</ele>
        <time>2021-03-25T15:12:17.000Z</time>
      </trkpt>
      <trkpt lat="45.92315" lon="3.06022">
        <ele>454.69262</ele>
        <time>2021-03-25T15:12:22.000Z</time>
      </trkpt>
      <trkpt lat="45.92322" lon="3.06025">
        <ele>456.69287</ele>
        <time>2021-03-25T15:12:27.000Z</time>
      </trkpt>
      <trkpt lat="45.92326" lon="3.06028">
        <ele>456.69306</ele>
        <time>2021-03-25T15:12:31.000Z</time>
      </trkpt>
      <trkpt lat="45.9233" lon="3.06032">
        <ele>456.69319</ele>
        <time>2021-03-25T15:12:36.000Z</time>
      </trkpt>
      <trkpt lat="45.92335" lon="3.06032">
        <ele>456.69338</ele>
        <time>2021-03-25T15:12:41.000Z</time>
      </trkpt>
      <trkpt lat="45.9234" lon="3.06034">
        <ele>455.69359</ele>
        <time>2021-03-25T15:12:45.000Z</time>
      </trkpt>
      <trkpt lat="45.92345" lon="3.06038">
        <ele>456.6938</ele>
        <time>2021-03-25T15:12:49.000Z</time>
      </trkpt>
      <trkpt lat="45.92351" lon="3.06043">
        <ele>455.69405</ele>
        <time>2021-03-25T15:12:54.000Z</time>
      </trkpt>
      <trkpt lat="45.92359" lon="3.06047">
        <ele>455.69434</ele>
        <time>2021-03-25T15:12:59.000Z</time>
      </trkpt>
      <trkpt lat="45.92363" lon="3.0605">
        <ele>456.69452</ele>
        <time>2021-03-25T15:13:03.000Z</time>
      </trkpt>
      <trkpt lat="45.92368" lon="3.06053">
        <ele>455.69471</ele>
        <time>2021-03-25T15:13:07.000Z</time>
      </trkpt>
      <trkpt lat="45.92372" lon="3.06056">
        <ele>456.69488</ele>
        <time>2021-03-25T15:13:12.000Z</time>
      </trkpt>
      <trkpt lat="45.92376" lon="3.0606">
        <ele>454.69503</ele>
        <time>2021-03-25T15:13:16.000Z</time>
      </trkpt>
      <trkpt lat="45.92379" lon="3.06064">
        <ele>455.69517</ele>
        <time>2021-03-25T15:13:20.000Z</time>
      </trkpt>
      <trkpt lat="45.92385" lon="3.06067">
        <ele>457.69539</ele>
        <time>2021-03-25T15:13:25.000Z</time>
      </trkpt>
      <trkpt lat="45.92389" lon="3.06068">
        <ele>457.69556</ele>
        <time>2021-03-25T15:13:29.000Z</time>
      </trkpt>
      <trkpt lat="45.92397" lon="3.0607">
        <ele>457.69587</ele>
        <time>2021-03-25T15:13:34.000Z</time>
      </trkpt>
      <trkpt lat="45.92402" lon="3.06073">
        <ele>456.69609</ele>
        <time>2021-03-25T15:13:38.000Z</time>
      </trkpt>
      <trkpt lat="45.92406" lon="3.06078">
        <ele>455.69625</ele>
        <time>2021-03-25T15:13:42.000Z</time>
      </trkpt>
      <trkpt lat="45.92411" lon="3.06082">
        <ele>455.69646</ele>
        <time>2021-03-25T15:13:47.000Z</time>
      </trkpt>
      <trkpt lat="45.92417" lon="3.06084">
        <ele>456.69669</ele>
        <time>2021-03-25T15:13:52.000Z</time>
      </trkpt>
      <trkpt lat="45.92423" lon="3.06087">
        <ele>456.6969</ele>
        <time>2021-03-25T15:13:57.000Z</time>
      </trkpt>
      <trkpt lat="45.92429" lon="3.06089">
        <ele>456.69714</ele>
        <time>2021-03-25T15:14:02.000Z</time>
      </trkpt>
      <trkpt lat="45.92433" lon="3.06092">
        <ele>456.69731</ele>
        <time>2021-03-25T15:14:06.000Z</time>
      </trkpt>
      <trkpt lat="45.92438" lon="3.06097">
        <ele>456.69753</ele>
        <time>2021-03-25T15:14:11.000Z</time>
      </trkpt>
      <trkpt lat="45.92443" lon="3.06103">
        <ele>457.69771</ele>
        <time>2021-03-25T15:14:16.000Z</time>
      </trkpt>
      <trkpt lat="45.92447" lon="3.0611">
        <ele>456.69786</ele>
        <time>2021-03-25T15:14:21.000Z</time>
      </trkpt>
      <trkpt lat="45.92449" lon="3.06116">
        <ele>456.69797</ele>
        <time>2021-03-25T15:14:25.000Z</time>
      </trkpt>
      <trkpt lat="45.92452" lon="3.06122">
        <ele>457.69806</ele>
        <time>2021-03-25T15:14:29.000Z</time>
      </trkpt>
      <trkpt lat="45.92454" lon="3.06129">
        <ele>457.69815</ele>
        <time>2021-03-25T15:14:33.000Z</time>
      </trkpt>
      <trkpt lat="45.92457" lon="3.06138">
        <ele>458.69826</ele>
        <time>2021-03-25T15:14:38.000Z</time>
      </trkpt>
      <trkpt lat="45.92459" lon="3.06147">
        <ele>458.69835</ele>
        <time>2021-03-25T15:14:42.000Z</time>
      </trkpt>
      <trkpt lat="45.92458" lon="3.06154">
        <ele>458.69833</ele>
        <time>2021-03-25T15:14:47.000Z</time>
      </trkpt>
      <trkpt lat="45.92459" lon="3.06161">
        <ele>459.69838</ele>
        <time>2021-03-25T15:14:51.000Z</time>
      </trkpt>
      <trkpt lat="45.92459" lon="3.06169">
        <ele>460.69835</ele>
        <time>2021-03-25T15:14:55.000Z</time>
      </trkpt>
      <trkpt lat="45.92459" lon="3.06177">
        <ele>460.69837</ele>
        <time>2021-03-25T15:14:59.000Z</time>
      </trkpt>
      <trkpt lat="45.9246" lon="3.06185">
        <ele>461.69839</ele>
        <time>2021-03-25T15:15:03.000Z</time>
      </trkpt>
      <trkpt lat="45.92462" lon="3.06192">
        <ele>462.6985</ele>
        <time>2021-03-25T15:15:07.000Z</time>
      </trkpt>
      <trkpt lat="45.92465" lon="3.06201">
        <ele>461.69858</ele>
        <time>2021-03-25T15:15:12.000Z</time>
      </trkpt>
      <trkpt lat="45.92465" lon="3.06208">
        <ele>461.69862</ele>
        <time>2021-03-25T15:15:16.000Z</time>
      </trkpt>
      <trkpt lat="45.92466" lon="3.06216">
        <ele>462.69864</ele>
        <time>2021-03-25T15:15:21.000Z</time>
      </trkpt>
      <trkpt lat="45.92467" lon="3.06222">
        <ele>461.69867</ele>
        <time>2021-03-25T15:15:25.000Z</time>
      </trkpt>
      <trkpt lat="45.92468" lon="3.06229">
        <ele>461.69873</ele>
        <time>2021-03-25T15:15:29.000Z</time>
      </trkpt>
      <trkpt lat="45.9247" lon="3.0624">
        <ele>461.69881</ele>
        <time>2021-03-25T15:15:34.000Z</time>
      </trkpt>
      <trkpt lat="45.92473" lon="3.06246">
        <ele>460.69891</ele>
        <time>2021-03-25T15:15:38.000Z</time>
      </trkpt>
      <trkpt lat="45.92476" lon="3.06251">
        <ele>459.69902</ele>
        <time>2021-03-25T15:15:43.000Z</time>
      </trkpt>
      <trkpt lat="45.92478" lon="3.06255">
        <ele>458.6991</ele>
        <time>2021-03-25T15:15:47.000Z</time>
      </trkpt>
      <trkpt lat="45.9248" lon="3.06259">
        <ele>458.6992</ele>
        <time>2021-03-25T15:15:52.000Z</time>
      </trkpt>
      <trkpt lat="45.92484" lon="3.06265">
        <ele>458.69935</ele>
        <time>2021-03-25T15:15:57.000Z</time>
      </trkpt>
      <trkpt lat="45.92488" lon="3.06265">
        <ele>458.69953</ele>
        <time>2021-03-25T15:16:01.000Z</time>
      </trkpt>
      <trkpt lat="45.92493" lon="3.06264">
        <ele>458.69971</ele>
        <time>2021-03-25T15:16:06.000Z</time>
      </trkpt>
      <trkpt lat="45.92499" lon="3.06267">
        <ele>459.69995</ele>
        <time>2021-03-25T15:16:11.000Z</time>
      </trkpt>
      <trkpt lat="45.92502" lon="3.0627">
        <ele>458.7001</ele>
        <time>2021-03-25T15:16:15.000Z</time>
      </trkpt>
      <trkpt lat="45.92508" lon="3.06276">
        <ele>458.7003</ele>
        <time>2021-03-25T15:16:20.000Z</time>
      </trkpt>
      <trkpt lat="45.92511" lon="3.0628">
        <ele>458.70045</ele>
        <time>2021-03-25T15:16:25.000Z</time>
      </trkpt>
      <trkpt lat="45.92517" lon="3.06286">
        <ele>458.70067</ele>
        <time>2021-03-25T15:16:30.000Z</time>
      </trkpt>
      <trkpt lat="45.92522" lon="3.0629">
        <ele>458.70088</ele>
        <time>2021-03-25T15:16:34.000Z</time>
      </trkpt>
      <trkpt lat="45.92528" lon="3.06295">
        <ele>459.7011</ele>
        <time>2021-03-25T15:16:39.000Z</time>
      </trkpt>
      <trkpt lat="45.92532" lon="3.06297">
        <ele>458.70128</ele>
        <time>2021-03-25T15:16:43.000Z</time>
      </trkpt>
      <trkpt lat="45.92538" lon="3.06298">
        <ele>458.70151</ele>
        <time>2021-03-25T15:16:48.000Z</time>
      </trkpt>
      <trkpt lat="45.92542" lon="3.06296">
        <ele>458.70168</ele>
        <time>2021-03-25T15:16:53.000Z</time>
      </trkpt>
      <trkpt lat="45.92544" lon="3.06303">
        <ele>459.70177</ele>
        <time>2021-03-25T15:16:58.000Z</time>
      </trkpt>
      <trkpt lat="45.92546" lon="3.0631">
        <ele>457.70182</ele>
        <time>2021-03-25T15:17:02.000Z</time>
      </trkpt>
      <trkpt lat="45.92546" lon="3.06317">
        <ele>457.70182</ele>
        <time>2021-03-25T15:17:06.000Z</time>
      </trkpt>
      <trkpt lat="45.92546" lon="3.06323">
        <ele>453.70183</ele>
        <time>2021-03-25T15:20:07.000Z</time>
      </trkpt>
      <trkpt lat="45.92546" lon="3.06331">
        <ele>452.70184</ele>
        <time>2021-03-25T15:20:12.000Z</time>
      </trkpt>
      <trkpt lat="45.92546" lon="3.06331">
        <ele>452.70184</ele>
        <time>2021-03-25T15:20:12.000Z</time>
      </trkpt>
      <trkpt lat="45.92544" lon="3.06335">
        <ele>454.70177</ele>
        <time>2021-03-25T15:20:52.000Z</time>
      </trkpt>
      <trkpt lat="45.92544" lon="3.06335">
        <ele>454.70177</ele>
        <time>2021-03-25T15:20:52.000Z</time>
      </trkpt>
      <trkpt lat="45.92544" lon="3.06341">
        <ele>452.70176</ele>
        <time>2021-03-25T15:45:30.000Z</time>
      </trkpt>
    </trkseg>
  </trk>
</gpx>